Wetterdaten: Dienstag, 24.12.2024
Datum Zeit Temp. I. Temp. A. Feuchte I. Feuchte A. Luftdruck Regen Wind Richtung Richtung Sonnenschein Solar Taupunkt Windchill Windböen
24.12.2024 00:00 22,1 °C 3,3 °C 53 % 86 % 1016,5 hPa 0,0 l/m² 7,4 km/h (2 Bft) W-NW 292 ° 0 min 0 W/m² 1,2 °C 2,4 °C 16,1 km/h (3 Bft)
24.12.2024 00:02 22,1 °C 3,3 °C 53 % 86 % 1016,5 hPa 0,0 l/m² 5,7 km/h (2 Bft) W 275 ° 0 min 0 W/m² 1,2 °C 3,3 °C 11,3 km/h (2 Bft)
24.12.2024 00:03 22,1 °C 3,3 °C 53 % 86 % 1016,5 hPa 0,0 l/m² 5,9 km/h (2 Bft) W 279 ° 0 min 0 W/m² 1,2 °C 3,3 °C 12,9 km/h (3 Bft)
24.12.2024 00:05 22,1 °C 3,3 °C 53 % 86 % 1016,5 hPa 0,0 l/m² 9,0 km/h (2 Bft) W 271 ° 0 min 0 W/m² 1,2 °C 1,0 °C 14,5 km/h (3 Bft)
24.12.2024 00:07 22,1 °C 3,3 °C 53 % 86 % 1016,6 hPa 0,0 l/m² 9,6 km/h (2 Bft) W 272 ° 0 min 0 W/m² 1,2 °C 0,5 °C 12,9 km/h (3 Bft)
24.12.2024 00:09 22,1 °C 3,3 °C 53 % 86 % 1016,6 hPa 0,0 l/m² 10,4 km/h (2 Bft) W 275 ° 0 min 0 W/m² 1,2 °C -0,1 °C 12,9 km/h (3 Bft)
24.12.2024 00:10 22,1 °C 3,3 °C 53 % 86 % 1016,6 hPa 0,0 l/m² 10,5 km/h (2 Bft) W 274 ° 0 min 0 W/m² 1,2 °C -0,2 °C 14,5 km/h (3 Bft)
24.12.2024 00:12 22,1 °C 3,2 °C 53 % 85 % 1016,6 hPa 0,0 l/m² 10,0 km/h (2 Bft) W 275 ° 0 min 0 W/m² 0,9 °C 0,1 °C 12,9 km/h (3 Bft)
24.12.2024 00:13 22,1 °C 3,2 °C 53 % 85 % 1016,6 hPa 0,0 l/m² 9,9 km/h (2 Bft) W 274 ° 0 min 0 W/m² 0,9 °C 0,2 °C 14,5 km/h (3 Bft)
24.12.2024 00:15 22,1 °C 3,2 °C 53 % 86 % 1016,6 hPa 0,0 l/m² 10,4 km/h (2 Bft) W-NW 288 ° 0 min 0 W/m² 1,1 °C -0,2 °C 14,5 km/h (3 Bft)
24.12.2024 00:17 22,1 °C 3,2 °C 53 % 86 % 1016,6 hPa 0,0 l/m² 10,2 km/h (2 Bft) W-NW 288 ° 0 min 0 W/m² 1,1 °C -0,1 °C 14,5 km/h (3 Bft)
24.12.2024 00:19 22,1 °C 3,1 °C 53 % 86 % 1016,6 hPa 0,0 l/m² 10,6 km/h (2 Bft) W 280 ° 0 min 0 W/m² 1,0 °C -0,5 °C 16,1 km/h (3 Bft)
24.12.2024 00:20 22,0 °C 3,1 °C 53 % 86 % 1016,7 hPa 0,0 l/m² 12,0 km/h (2 Bft) W 275 ° 0 min 0 W/m² 1,0 °C -1,4 °C 17,7 km/h (3 Bft)
24.12.2024 00:22 22,0 °C 3,1 °C 53 % 86 % 1016,6 hPa 0,0 l/m² 10,7 km/h (2 Bft) W 272 ° 0 min 0 W/m² 1,0 °C -0,5 °C 16,1 km/h (3 Bft)
24.12.2024 00:23 22,0 °C 3,1 °C 53 % 86 % 1016,7 hPa 0,0 l/m² 11,0 km/h (2 Bft) W-NW 290 ° 0 min 0 W/m² 1,0 °C -0,8 °C 16,1 km/h (3 Bft)
24.12.2024 00:25 22,0 °C 3,1 °C 53 % 86 % 1016,7 hPa 0,0 l/m² 9,6 km/h (2 Bft) W 281 ° 0 min 0 W/m² 1,0 °C 0,3 °C 20,9 km/h (4 Bft)
24.12.2024 00:27 22,0 °C 3,1 °C 53 % 86 % 1016,7 hPa 0,0 l/m² 10,6 km/h (2 Bft) W 262 ° 0 min 0 W/m² 1,0 °C -0,5 °C 17,7 km/h (3 Bft)
24.12.2024 00:28 22,0 °C 3,1 °C 53 % 86 % 1016,6 hPa 0,0 l/m² 13,2 km/h (3 Bft) W-NW 288 ° 0 min 0 W/m² 1,0 °C -2,2 °C 17,7 km/h (3 Bft)
24.12.2024 00:29 22,0 °C 3,1 °C 53 % 86 % 1016,7 hPa 0,0 l/m² 10,8 km/h (2 Bft) W-NW 301 ° 0 min 0 W/m² 1,0 °C -0,6 °C 16,1 km/h (3 Bft)
24.12.2024 00:31 22,0 °C 3,1 °C 53 % 86 % 1016,8 hPa 0,0 l/m² 12,6 km/h (3 Bft) W-NW 286 ° 0 min 0 W/m² 1,0 °C -1,8 °C 19,3 km/h (3 Bft)
24.12.2024 00:33 22,0 °C 3,1 °C 53 % 87 % 1016,8 hPa 0,0 l/m² 11,7 km/h (2 Bft) W 267 ° 0 min 0 W/m² 1,2 °C -1,2 °C 16,1 km/h (3 Bft)
24.12.2024 00:35 21,9 °C 3,1 °C 53 % 86 % 1016,8 hPa 0,0 l/m² 10,9 km/h (2 Bft) W 277 ° 0 min 0 W/m² 1,0 °C -0,7 °C 14,5 km/h (3 Bft)
24.12.2024 00:37 21,9 °C 3,1 °C 53 % 87 % 1016,8 hPa 0,0 l/m² 13,8 km/h (3 Bft) W-NW 290 ° 0 min 0 W/m² 1,2 °C -2,5 °C 19,3 km/h (3 Bft)
24.12.2024 00:39 21,9 °C 3,1 °C 53 % 87 % 1016,8 hPa 0,0 l/m² 12,9 km/h (3 Bft) W 279 ° 0 min 0 W/m² 1,2 °C -2,0 °C 16,1 km/h (3 Bft)
24.12.2024 00:40 21,9 °C 3,1 °C 53 % 87 % 1016,9 hPa 0,0 l/m² 11,7 km/h (2 Bft) W 279 ° 0 min 0 W/m² 1,2 °C -1,2 °C 16,1 km/h (3 Bft)
24.12.2024 00:42 21,9 °C 3,1 °C 53 % 87 % 1017,0 hPa 0,0 l/m² 15,2 km/h (3 Bft) W-NW 283 ° 0 min 0 W/m² 1,2 °C -3,3 °C 20,9 km/h (4 Bft)
24.12.2024 00:44 21,9 °C 3,1 °C 53 % 87 % 1016,9 hPa 0,0 l/m² 16,1 km/h (3 Bft) W-NW 286 ° 0 min 0 W/m² 1,2 °C -3,8 °C 20,9 km/h (4 Bft)
24.12.2024 00:46 21,9 °C 3,1 °C 53 % 87 % 1016,9 hPa 0,0 l/m² 16,1 km/h (3 Bft) W-NW 282 ° 0 min 0 W/m² 1,2 °C -3,8 °C 19,3 km/h (3 Bft)
24.12.2024 00:47 21,9 °C 3,1 °C 53 % 87 % 1016,9 hPa 0,0 l/m² 14,2 km/h (3 Bft) W 278 ° 0 min 0 W/m² 1,2 °C -2,8 °C 19,3 km/h (3 Bft)
24.12.2024 00:48 21,9 °C 3,1 °C 53 % 87 % 1016,9 hPa 0,0 l/m² 15,6 km/h (3 Bft) W 267 ° 0 min 0 W/m² 1,2 °C -3,5 °C 19,3 km/h (3 Bft)
24.12.2024 00:50 21,9 °C 3,1 °C 53 % 87 % 1016,9 hPa 0,0 l/m² 13,3 km/h (3 Bft) W-NW 284 ° 0 min 0 W/m² 1,2 °C -2,2 °C 19,3 km/h (3 Bft)
24.12.2024 00:51 21,9 °C 3,1 °C 53 % 87 % 1016,9 hPa 0,0 l/m² 13,5 km/h (3 Bft) W-SW 254 ° 0 min 0 W/m² 1,2 °C -2,4 °C 19,3 km/h (3 Bft)
24.12.2024 00:52 21,9 °C 3,1 °C 53 % 87 % 1016,9 hPa 0,0 l/m² 14,7 km/h (3 Bft) W 271 ° 0 min 0 W/m² 1,2 °C -3,1 °C 17,7 km/h (3 Bft)
24.12.2024 00:53 21,9 °C 3,1 °C 53 % 87 % 1017,0 hPa 0,0 l/m² 14,3 km/h (3 Bft) W 281 ° 0 min 0 W/m² 1,2 °C -2,8 °C 19,3 km/h (3 Bft)
24.12.2024 00:55 21,9 °C 3,1 °C 53 % 87 % 1016,9 hPa 0,0 l/m² 13,7 km/h (3 Bft) W 271 ° 0 min 0 W/m² 1,2 °C -2,5 °C 19,3 km/h (3 Bft)
24.12.2024 00:56 21,9 °C 3,1 °C 53 % 87 % 1016,9 hPa 0,0 l/m² 14,8 km/h (3 Bft) W 281 ° 0 min 0 W/m² 1,2 °C -3,1 °C 19,3 km/h (3 Bft)
24.12.2024 00:57 21,9 °C 3,1 °C 53 % 87 % 1016,9 hPa 0,0 l/m² 13,0 km/h (3 Bft) W 267 ° 0 min 0 W/m² 1,2 °C -2,1 °C 16,1 km/h (3 Bft)
24.12.2024 00:59 21,9 °C 3,1 °C 53 % 87 % 1016,9 hPa 0,0 l/m² 13,8 km/h (3 Bft) W 269 ° 0 min 0 W/m² 1,2 °C -2,5 °C 17,7 km/h (3 Bft)
24.12.2024 01:00 21,9 °C 3,1 °C 53 % 87 % 1017,0 hPa 0,0 l/m² 12,7 km/h (3 Bft) W-NW 282 ° 0 min 0 W/m² 1,2 °C -1,9 °C 16,1 km/h (3 Bft)
24.12.2024 01:01 21,9 °C 3,1 °C 53 % 87 % 1017,0 hPa 0,0 l/m² 14,8 km/h (3 Bft) W 271 ° 0 min 0 W/m² 1,2 °C -3,1 °C 22,5 km/h (4 Bft)
24.12.2024 01:02 21,9 °C 3,1 °C 53 % 87 % 1017,0 hPa 0,0 l/m² 8,2 km/h (2 Bft) W 279 ° 0 min 0 W/m² 1,2 °C 1,4 °C 12,9 km/h (3 Bft)
24.12.2024 01:04 21,8 °C 3,1 °C 53 % 87 % 1017,1 hPa 0,0 l/m² 12,7 km/h (3 Bft) W-NW 286 ° 0 min 0 W/m² 1,2 °C -1,9 °C 19,3 km/h (3 Bft)
24.12.2024 01:06 21,8 °C 3,1 °C 53 % 87 % 1017,1 hPa 0,0 l/m² 14,5 km/h (3 Bft) W 281 ° 0 min 0 W/m² 1,2 °C -2,9 °C 19,3 km/h (3 Bft)
24.12.2024 01:08 21,9 °C 3,1 °C 53 % 87 % 1017,1 hPa 0,0 l/m² 11,4 km/h (2 Bft) W 261 ° 0 min 0 W/m² 1,2 °C -1,0 °C 16,1 km/h (3 Bft)
24.12.2024 01:10 21,8 °C 3,1 °C 53 % 87 % 1017,2 hPa 0,0 l/m² 12,7 km/h (3 Bft) W 276 ° 0 min 0 W/m² 1,2 °C -1,9 °C 20,9 km/h (4 Bft)
24.12.2024 01:11 21,8 °C 3,1 °C 53 % 87 % 1017,1 hPa 0,0 l/m² 12,1 km/h (2 Bft) W 272 ° 0 min 0 W/m² 1,2 °C -1,5 °C 14,5 km/h (3 Bft)
24.12.2024 01:12 21,8 °C 3,1 °C 53 % 87 % 1017,1 hPa 0,0 l/m² 13,2 km/h (3 Bft) W-NW 298 ° 0 min 0 W/m² 1,2 °C -2,2 °C 19,3 km/h (3 Bft)
24.12.2024 01:13 21,8 °C 3,1 °C 53 % 87 % 1017,1 hPa 0,0 l/m² 11,4 km/h (2 Bft) W 276 ° 0 min 0 W/m² 1,2 °C -1,0 °C 14,5 km/h (3 Bft)
24.12.2024 01:14 21,8 °C 3,1 °C 53 % 87 % 1017,1 hPa 0,0 l/m² 13,8 km/h (3 Bft) W-NW 288 ° 0 min 0 W/m² 1,2 °C -2,5 °C 19,3 km/h (3 Bft)
24.12.2024 01:16 21,8 °C 3,0 °C 53 % 87 % 1017,1 hPa 0,0 l/m² 12,9 km/h (3 Bft) W-NW 288 ° 0 min 0 W/m² 1,1 °C -2,1 °C 19,3 km/h (3 Bft)
24.12.2024 01:18 21,8 °C 3,0 °C 53 % 87 % 1017,2 hPa 0,0 l/m² 11,8 km/h (2 Bft) W 275 ° 0 min 0 W/m² 1,1 °C -1,4 °C 16,1 km/h (3 Bft)
24.12.2024 01:20 21,8 °C 3,0 °C 53 % 87 % 1017,2 hPa 0,0 l/m² 11,7 km/h (2 Bft) W 273 ° 0 min 0 W/m² 1,1 °C -1,3 °C 17,7 km/h (3 Bft)
24.12.2024 01:21 21,8 °C 3,0 °C 53 % 87 % 1017,3 hPa 0,0 l/m² 10,9 km/h (2 Bft) W 275 ° 0 min 0 W/m² 1,1 °C -0,8 °C 14,5 km/h (3 Bft)
24.12.2024 01:23 21,8 °C 3,0 °C 53 % 87 % 1017,2 hPa 0,0 l/m² 10,7 km/h (2 Bft) W 281 ° 0 min 0 W/m² 1,1 °C -0,7 °C 14,5 km/h (3 Bft)
24.12.2024 01:24 21,8 °C 3,0 °C 53 % 87 % 1017,3 hPa 0,0 l/m² 10,1 km/h (2 Bft) W-SW 255 ° 0 min 0 W/m² 1,1 °C -0,2 °C 14,5 km/h (3 Bft)
24.12.2024 01:25 21,8 °C 3,0 °C 53 % 87 % 1017,3 hPa 0,0 l/m² 9,8 km/h (2 Bft) W 281 ° 0 min 0 W/m² 1,1 °C 0,0 °C 12,9 km/h (3 Bft)
24.12.2024 01:26 21,8 °C 2,9 °C 53 % 87 % 1017,4 hPa 0,0 l/m² 10,5 km/h (2 Bft) W 279 ° 0 min 0 W/m² 1,0 °C -0,6 °C 12,9 km/h (3 Bft)
24.12.2024 01:27 21,8 °C 2,9 °C 53 % 87 % 1017,4 hPa 0,0 l/m² 8,8 km/h (2 Bft) W-NW 285 ° 0 min 0 W/m² 1,0 °C 0,7 °C 16,1 km/h (3 Bft)
24.12.2024 01:28 21,8 °C 2,9 °C 53 % 87 % 1017,4 hPa 0,0 l/m² 8,8 km/h (2 Bft) W-NW 284 ° 0 min 0 W/m² 1,0 °C 0,7 °C 12,9 km/h (3 Bft)
24.12.2024 01:29 21,8 °C 2,9 °C 53 % 87 % 1017,4 hPa 0,0 l/m² 10,6 km/h (2 Bft) W-NW 283 ° 0 min 0 W/m² 1,0 °C -0,7 °C 12,9 km/h (3 Bft)
24.12.2024 01:31 21,8 °C 2,9 °C 53 % 87 % 1017,5 hPa 0,0 l/m² 8,8 km/h (2 Bft) W-NW 288 ° 0 min 0 W/m² 1,0 °C 0,7 °C 12,9 km/h (3 Bft)
24.12.2024 01:33 21,8 °C 2,9 °C 53 % 87 % 1017,5 hPa 0,0 l/m² 10,7 km/h (2 Bft) W 281 ° 0 min 0 W/m² 1,0 °C -0,8 °C 17,7 km/h (3 Bft)
24.12.2024 01:34 21,7 °C 2,9 °C 53 % 87 % 1017,6 hPa 0,0 l/m² 10,1 km/h (2 Bft) W 279 ° 0 min 0 W/m² 1,0 °C -0,3 °C 12,9 km/h (3 Bft)
24.12.2024 01:35 21,7 °C 2,9 °C 53 % 87 % 1017,6 hPa 0,0 l/m² 10,4 km/h (2 Bft) NW 304 ° 0 min 0 W/m² 1,0 °C -0,5 °C 14,5 km/h (3 Bft)
24.12.2024 01:36 21,8 °C 2,9 °C 53 % 87 % 1017,6 hPa 0,0 l/m² 9,7 km/h (2 Bft) W 281 ° 0 min 0 W/m² 1,0 °C -0,0 °C 12,9 km/h (3 Bft)
24.12.2024 01:37 21,8 °C 2,9 °C 53 % 87 % 1017,6 hPa 0,0 l/m² 10,7 km/h (2 Bft) W 280 ° 0 min 0 W/m² 1,0 °C -0,8 °C 14,5 km/h (3 Bft)
24.12.2024 01:38 21,8 °C 2,9 °C 53 % 87 % 1017,6 hPa 0,0 l/m² 8,4 km/h (2 Bft) W 276 ° 0 min 0 W/m² 1,0 °C 1,0 °C 11,3 km/h (2 Bft)
24.12.2024 01:39 21,7 °C 2,8 °C 53 % 87 % 1017,6 hPa 0,0 l/m² 14,6 km/h (3 Bft) W 281 ° 0 min 0 W/m² 0,9 °C -3,4 °C 22,5 km/h (4 Bft)
24.12.2024 01:40 21,8 °C 2,8 °C 53 % 87 % 1017,6 hPa 0,0 l/m² 14,8 km/h (3 Bft) W-NW 286 ° 0 min 0 W/m² 0,9 °C -3,5 °C 20,9 km/h (4 Bft)
24.12.2024 01:42 21,7 °C 2,8 °C 53 % 87 % 1017,7 hPa 0,0 l/m² 7,9 km/h (2 Bft) W 276 ° 0 min 0 W/m² 0,9 °C 1,4 °C 14,5 km/h (3 Bft)
24.12.2024 01:43 21,7 °C 2,9 °C 53 % 87 % 1017,7 hPa 0,0 l/m² 6,2 km/h (2 Bft) W-NW 286 ° 0 min 0 W/m² 1,0 °C 2,9 °C 11,3 km/h (2 Bft)
24.12.2024 01:44 21,8 °C 2,9 °C 53 % 87 % 1017,8 hPa 0,0 l/m² 8,2 km/h (2 Bft) W-SW 253 ° 0 min 0 W/m² 1,0 °C 1,2 °C 12,9 km/h (3 Bft)
24.12.2024 01:45 21,8 °C 2,8 °C 53 % 87 % 1017,9 hPa 0,0 l/m² 12,0 km/h (2 Bft) W-NW 288 ° 0 min 0 W/m² 0,9 °C -1,8 °C 17,7 km/h (3 Bft)
24.12.2024 01:46 21,7 °C 2,9 °C 53 % 87 % 1017,9 hPa 0,0 l/m² 9,7 km/h (2 Bft) W 273 ° 0 min 0 W/m² 1,0 °C -0,0 °C 14,5 km/h (3 Bft)
24.12.2024 01:47 21,8 °C 2,9 °C 53 % 87 % 1017,8 hPa 0,0 l/m² 8,4 km/h (2 Bft) W-NW 282 ° 0 min 0 W/m² 1,0 °C 1,0 °C 14,5 km/h (3 Bft)
24.12.2024 01:48 21,7 °C 2,9 °C 53 % 87 % 1017,9 hPa 0,0 l/m² 11,4 km/h (2 Bft) W 271 ° 0 min 0 W/m² 1,0 °C -1,3 °C 16,1 km/h (3 Bft)
24.12.2024 01:49 21,7 °C 2,9 °C 53 % 87 % 1017,8 hPa 0,0 l/m² 11,0 km/h (2 Bft) W-NW 290 ° 0 min 0 W/m² 1,0 °C -1,0 °C 14,5 km/h (3 Bft)
24.12.2024 01:50 21,7 °C 2,9 °C 53 % 87 % 1018,0 hPa 0,0 l/m² 12,2 km/h (2 Bft) W 270 ° 0 min 0 W/m² 1,0 °C -1,8 °C 17,7 km/h (3 Bft)
24.12.2024 01:52 21,7 °C 2,9 °C 53 % 87 % 1018,0 hPa 0,0 l/m² 11,7 km/h (2 Bft) W 267 ° 0 min 0 W/m² 1,0 °C -1,5 °C 17,7 km/h (3 Bft)
24.12.2024 01:53 21,7 °C 2,9 °C 53 % 87 % 1018,0 hPa 0,0 l/m² 13,1 km/h (3 Bft) W-NW 286 ° 0 min 0 W/m² 1,0 °C -2,4 °C 17,7 km/h (3 Bft)
24.12.2024 01:54 21,7 °C 2,9 °C 53 % 87 % 1018,1 hPa 0,0 l/m² 12,3 km/h (2 Bft) W 269 ° 0 min 0 W/m² 1,0 °C -1,9 °C 17,7 km/h (3 Bft)
24.12.2024 01:55 21,7 °C 2,9 °C 53 % 87 % 1018,2 hPa 0,0 l/m² 10,1 km/h (2 Bft) W-NW 295 ° 0 min 0 W/m² 1,0 °C -0,3 °C 14,5 km/h (3 Bft)
24.12.2024 01:56 21,7 °C 2,9 °C 53 % 87 % 1018,2 hPa 0,0 l/m² 7,8 km/h (2 Bft) W-NW 284 ° 0 min 0 W/m² 1,0 °C 1,6 °C 12,9 km/h (3 Bft)
24.12.2024 01:57 21,7 °C 2,9 °C 53 % 87 % 1018,2 hPa 0,0 l/m² 9,1 km/h (2 Bft) W-NW 284 ° 0 min 0 W/m² 1,0 °C 0,5 °C 12,9 km/h (3 Bft)
24.12.2024 01:58 21,7 °C 2,9 °C 53 % 87 % 1018,2 hPa 0,0 l/m² 11,8 km/h (2 Bft) W-NW 296 ° 0 min 0 W/m² 1,0 °C -1,5 °C 16,1 km/h (3 Bft)
24.12.2024 01:59 21,7 °C 2,9 °C 53 % 87 % 1018,1 hPa 0,0 l/m² 12,7 km/h (3 Bft) W 274 ° 0 min 0 W/m² 1,0 °C -2,1 °C 17,7 km/h (3 Bft)
24.12.2024 02:01 21,7 °C 2,9 °C 53 % 87 % 1018,2 hPa 0,0 l/m² 11,7 km/h (2 Bft) W 273 ° 0 min 0 W/m² 1,0 °C -1,5 °C 17,7 km/h (3 Bft)
24.12.2024 02:03 21,7 °C 2,9 °C 53 % 87 % 1018,2 hPa 0,0 l/m² 11,2 km/h (2 Bft) W-NW 296 ° 0 min 0 W/m² 1,0 °C -1,1 °C 17,7 km/h (3 Bft)
24.12.2024 02:04 21,7 °C 2,9 °C 53 % 87 % 1018,2 hPa 0,0 l/m² 8,9 km/h (2 Bft) W-NW 289 ° 0 min 0 W/m² 1,0 °C 0,6 °C 14,5 km/h (3 Bft)
24.12.2024 02:05 21,7 °C 2,9 °C 53 % 87 % 1018,3 hPa 0,0 l/m² 9,5 km/h (2 Bft) W 279 ° 0 min 0 W/m² 1,0 °C 0,1 °C 16,1 km/h (3 Bft)
24.12.2024 02:06 21,7 °C 2,9 °C 53 % 87 % 1018,2 hPa 0,0 l/m² 10,1 km/h (2 Bft) W 277 ° 0 min 0 W/m² 1,0 °C -0,3 °C 16,1 km/h (3 Bft)
24.12.2024 02:07 21,7 °C 2,8 °C 53 % 87 % 1018,2 hPa 0,0 l/m² 10,1 km/h (2 Bft) W-NW 282 ° 0 min 0 W/m² 0,9 °C -0,4 °C 16,1 km/h (3 Bft)
24.12.2024 02:08 21,7 °C 2,9 °C 53 % 87 % 1018,3 hPa 0,0 l/m² 11,3 km/h (2 Bft) W-NW 297 ° 0 min 0 W/m² 1,0 °C -1,2 °C 14,5 km/h (3 Bft)
24.12.2024 02:09 21,7 °C 2,9 °C 53 % 88 % 1018,3 hPa 0,0 l/m² 12,0 km/h (2 Bft) NW 309 ° 0 min 0 W/m² 1,1 °C -1,7 °C 16,1 km/h (3 Bft)
24.12.2024 02:10 21,7 °C 2,9 °C 53 % 88 % 1018,3 hPa 0,0 l/m² 5,2 km/h (1 Bft) W 278 ° 0 min 0 W/m² 1,1 °C 2,9 °C 9,7 km/h (2 Bft)
24.12.2024 02:12 21,7 °C 2,9 °C 53 % 88 % 1018,3 hPa 0,0 l/m² 9,9 km/h (2 Bft) W-NW 292 ° 0 min 0 W/m² 1,1 °C -0,2 °C 14,5 km/h (3 Bft)
24.12.2024 02:13 21,7 °C 2,8 °C 53 % 88 % 1018,3 hPa 0,0 l/m² 9,1 km/h (2 Bft) W 277 ° 0 min 0 W/m² 1,0 °C 0,4 °C 16,1 km/h (3 Bft)
24.12.2024 02:14 21,7 °C 2,9 °C 53 % 88 % 1018,3 hPa 0,0 l/m² 6,6 km/h (2 Bft) W-NW 293 ° 0 min 0 W/m² 1,1 °C 2,7 °C 11,3 km/h (2 Bft)
24.12.2024 02:15 21,7 °C 2,8 °C 53 % 88 % 1018,4 hPa 0,0 l/m² 7,2 km/h (2 Bft) W-NW 286 ° 0 min 0 W/m² 1,0 °C 2,0 °C 12,9 km/h (3 Bft)
24.12.2024 02:16 21,7 °C 2,8 °C 53 % 88 % 1018,4 hPa 0,0 l/m² 7,8 km/h (2 Bft) W-NW 288 ° 0 min 0 W/m² 1,0 °C 1,5 °C 11,3 km/h (2 Bft)
24.12.2024 02:17 21,7 °C 2,8 °C 53 % 88 % 1018,4 hPa 0,0 l/m² 8,9 km/h (2 Bft) W-NW 292 ° 0 min 0 W/m² 1,0 °C 0,5 °C 11,3 km/h (2 Bft)
24.12.2024 02:18 21,7 °C 2,8 °C 53 % 88 % 1018,5 hPa 0,0 l/m² 6,7 km/h (2 Bft) W-SW 257 ° 0 min 0 W/m² 1,0 °C 2,5 °C 12,9 km/h (3 Bft)
24.12.2024 02:19 21,7 °C 2,8 °C 53 % 88 % 1018,4 hPa 0,0 l/m² 8,8 km/h (2 Bft) W 269 ° 0 min 0 W/m² 1,0 °C 0,6 °C 14,5 km/h (3 Bft)
24.12.2024 02:20 21,7 °C 2,8 °C 53 % 88 % 1018,4 hPa 0,0 l/m² 10,7 km/h (2 Bft) W 276 ° 0 min 0 W/m² 1,0 °C -0,9 °C 14,5 km/h (3 Bft)
24.12.2024 02:22 21,6 °C 2,8 °C 53 % 87 % 1018,6 hPa 0,0 l/m² 11,0 km/h (2 Bft) W 270 ° 0 min 0 W/m² 0,9 °C -1,1 °C 17,7 km/h (3 Bft)
24.12.2024 02:24 21,7 °C 2,8 °C 53 % 88 % 1018,5 hPa 0,0 l/m² 10,1 km/h (2 Bft) W 264 ° 0 min 0 W/m² 1,0 °C -0,4 °C 16,1 km/h (3 Bft)
24.12.2024 02:25 21,6 °C 2,8 °C 53 % 87 % 1018,5 hPa 0,0 l/m² 12,1 km/h (2 Bft) W-NW 288 ° 0 min 0 W/m² 0,9 °C -1,8 °C 16,1 km/h (3 Bft)
24.12.2024 02:26 21,6 °C 2,8 °C 53 % 87 % 1018,6 hPa 0,0 l/m² 11,4 km/h (2 Bft) W 273 ° 0 min 0 W/m² 0,9 °C -1,4 °C 14,5 km/h (3 Bft)
24.12.2024 02:27 21,7 °C 2,8 °C 53 % 87 % 1018,6 hPa 0,0 l/m² 12,6 km/h (3 Bft) W 275 ° 0 min 0 W/m² 0,9 °C -2,2 °C 16,1 km/h (3 Bft)
24.12.2024 02:28 21,7 °C 2,8 °C 53 % 87 % 1018,6 hPa 0,0 l/m² 12,3 km/h (2 Bft) W 277 ° 0 min 0 W/m² 0,9 °C -2,0 °C 17,7 km/h (3 Bft)
24.12.2024 02:29 21,7 °C 2,8 °C 53 % 87 % 1018,6 hPa 0,0 l/m² 11,1 km/h (2 Bft) W 277 ° 0 min 0 W/m² 0,9 °C -1,2 °C 14,5 km/h (3 Bft)
24.12.2024 02:31 21,7 °C 2,8 °C 53 % 88 % 1018,5 hPa 0,0 l/m² 9,3 km/h (2 Bft) W 276 ° 0 min 0 W/m² 1,0 °C 0,2 °C 16,1 km/h (3 Bft)
24.12.2024 02:33 21,7 °C 2,7 °C 53 % 88 % 1018,6 hPa 0,0 l/m² 11,1 km/h (2 Bft) W 272 ° 0 min 0 W/m² 0,9 °C -1,3 °C 19,3 km/h (3 Bft)
24.12.2024 02:34 21,7 °C 2,7 °C 53 % 88 % 1018,7 hPa 0,0 l/m² 12,5 km/h (2 Bft) W 270 ° 0 min 0 W/m² 0,9 °C -2,2 °C 16,1 km/h (3 Bft)
24.12.2024 02:35 21,6 °C 2,7 °C 53 % 88 % 1018,6 hPa 0,0 l/m² 12,4 km/h (2 Bft) W 276 ° 0 min 0 W/m² 0,9 °C -2,2 °C 14,5 km/h (3 Bft)
24.12.2024 02:36 21,6 °C 2,7 °C 53 % 88 % 1018,6 hPa 0,0 l/m² 12,7 km/h (3 Bft) W 273 ° 0 min 0 W/m² 0,9 °C -2,3 °C 16,1 km/h (3 Bft)
24.12.2024 02:37 21,6 °C 2,7 °C 53 % 88 % 1018,7 hPa 0,0 l/m² 14,3 km/h (3 Bft) W-NW 294 ° 0 min 0 W/m² 0,9 °C -3,3 °C 17,7 km/h (3 Bft)
24.12.2024 02:38 21,6 °C 2,7 °C 53 % 88 % 1018,7 hPa 0,0 l/m² 15,0 km/h (3 Bft) W-NW 282 ° 0 min 0 W/m² 0,9 °C -3,7 °C 20,9 km/h (4 Bft)
24.12.2024 02:39 21,7 °C 2,7 °C 53 % 88 % 1018,7 hPa 0,0 l/m² 11,2 km/h (2 Bft) W-NW 285 ° 0 min 0 W/m² 0,9 °C -1,3 °C 16,1 km/h (3 Bft)
24.12.2024 02:41 21,6 °C 2,7 °C 53 % 88 % 1018,7 hPa 0,0 l/m² 13,5 km/h (3 Bft) W-NW 286 ° 0 min 0 W/m² 0,9 °C -2,8 °C 17,7 km/h (3 Bft)
24.12.2024 02:43 21,6 °C 2,8 °C 53 % 88 % 1018,8 hPa 0,0 l/m² 11,9 km/h (2 Bft) W 275 ° 0 min 0 W/m² 1,0 °C -1,7 °C 14,5 km/h (3 Bft)
24.12.2024 02:44 21,6 °C 2,8 °C 53 % 88 % 1018,8 hPa 0,0 l/m² 14,0 km/h (3 Bft) W 280 ° 0 min 0 W/m² 1,0 °C -3,0 °C 19,3 km/h (3 Bft)
24.12.2024 02:45 21,6 °C 2,7 °C 53 % 88 % 1018,9 hPa 0,0 l/m² 11,9 km/h (2 Bft) W 273 ° 0 min 0 W/m² 0,9 °C -1,8 °C 16,1 km/h (3 Bft)
24.12.2024 02:46 21,6 °C 2,7 °C 53 % 88 % 1018,9 hPa 0,0 l/m² 12,5 km/h (2 Bft) W 275 ° 0 min 0 W/m² 0,9 °C -2,2 °C 17,7 km/h (3 Bft)
24.12.2024 02:47 21,6 °C 2,7 °C 53 % 88 % 1018,9 hPa 0,0 l/m² 10,9 km/h (2 Bft) W 270 ° 0 min 0 W/m² 0,9 °C -1,1 °C 12,9 km/h (3 Bft)
24.12.2024 02:48 21,6 °C 2,7 °C 53 % 88 % 1018,9 hPa 0,0 l/m² 9,9 km/h (2 Bft) W-NW 283 ° 0 min 0 W/m² 0,9 °C -0,4 °C 12,9 km/h (3 Bft)
24.12.2024 02:49 21,6 °C 2,7 °C 53 % 88 % 1018,9 hPa 0,0 l/m² 9,0 km/h (2 Bft) W 273 ° 0 min 0 W/m² 0,9 °C 0,3 °C 12,9 km/h (3 Bft)
24.12.2024 02:51 21,6 °C 2,7 °C 53 % 88 % 1019,0 hPa 0,0 l/m² 9,7 km/h (2 Bft) W-NW 289 ° 0 min 0 W/m² 0,9 °C -0,2 °C 14,5 km/h (3 Bft)
24.12.2024 02:53 21,6 °C 2,7 °C 54 % 88 % 1018,9 hPa 0,0 l/m² 9,3 km/h (2 Bft) W 280 ° 0 min 0 W/m² 0,9 °C 0,1 °C 14,5 km/h (3 Bft)
24.12.2024 02:54 21,6 °C 2,7 °C 54 % 88 % 1019,0 hPa 0,0 l/m² 7,8 km/h (2 Bft) W-NW 286 ° 0 min 0 W/m² 0,9 °C 1,4 °C 12,9 km/h (3 Bft)
24.12.2024 02:55 21,6 °C 2,7 °C 54 % 88 % 1018,9 hPa 0,0 l/m² 7,0 km/h (2 Bft) W 273 ° 0 min 0 W/m² 0,9 °C 2,1 °C 12,9 km/h (3 Bft)
24.12.2024 02:56 21,6 °C 2,7 °C 53 % 88 % 1019,0 hPa 0,0 l/m² 9,2 km/h (2 Bft) W-NW 284 ° 0 min 0 W/m² 0,9 °C 0,2 °C 14,5 km/h (3 Bft)
24.12.2024 02:57 21,6 °C 2,7 °C 54 % 88 % 1018,9 hPa 0,0 l/m² 6,7 km/h (2 Bft) W 273 ° 0 min 0 W/m² 0,9 °C 2,4 °C 11,3 km/h (2 Bft)
24.12.2024 02:58 21,6 °C 2,6 °C 54 % 88 % 1018,9 hPa 0,0 l/m² 9,8 km/h (2 Bft) W 270 ° 0 min 0 W/m² 0,8 °C -0,4 °C 14,5 km/h (3 Bft)
24.12.2024 02:59 21,6 °C 2,6 °C 53 % 88 % 1019,0 hPa 0,0 l/m² 10,1 km/h (2 Bft) W-NW 289 ° 0 min 0 W/m² 0,8 °C -0,7 °C 12,9 km/h (3 Bft)
24.12.2024 03:00 21,6 °C 2,6 °C 54 % 88 % 1019,0 hPa 0,0 l/m² 8,3 km/h (2 Bft) W-NW 286 ° 0 min 0 W/m² 0,8 °C 0,8 °C 14,5 km/h (3 Bft)
24.12.2024 03:01 21,6 °C 2,6 °C 54 % 88 % 1019,0 hPa 0,0 l/m² 9,7 km/h (2 Bft) W-NW 292 ° 0 min 0 W/m² 0,8 °C -0,3 °C 14,5 km/h (3 Bft)
24.12.2024 03:07 21,6 °C 2,6 °C 54 % 88 % 1019,1 hPa 0,0 l/m² 7,3 km/h (2 Bft) W 277 ° 0 min 0 W/m² 0,8 °C 1,7 °C 11,3 km/h (2 Bft)
24.12.2024 03:09 21,6 °C 2,6 °C 54 % 88 % 1019,2 hPa 0,0 l/m² 5,8 km/h (2 Bft) W 276 ° 0 min 0 W/m² 0,8 °C 2,6 °C 11,3 km/h (2 Bft)
24.12.2024 03:10 21,6 °C 2,6 °C 54 % 88 % 1019,2 hPa 0,0 l/m² 9,0 km/h (2 Bft) W-SW 251 ° 0 min 0 W/m² 0,8 °C 0,2 °C 12,9 km/h (3 Bft)
24.12.2024 03:12 21,6 °C 2,6 °C 54 % 88 % 1019,1 hPa 0,0 l/m² 10,0 km/h (2 Bft) W 268 ° 0 min 0 W/m² 0,8 °C -0,6 °C 16,1 km/h (3 Bft)
24.12.2024 03:13 21,6 °C 2,6 °C 54 % 88 % 1019,1 hPa 0,0 l/m² 12,3 km/h (2 Bft) W-NW 286 ° 0 min 0 W/m² 0,8 °C -2,2 °C 16,1 km/h (3 Bft)
24.12.2024 03:15 21,6 °C 2,6 °C 54 % 88 % 1019,2 hPa 0,0 l/m² 6,1 km/h (2 Bft) W-NW 294 ° 0 min 0 W/m² 0,8 °C 2,6 °C 11,3 km/h (2 Bft)
24.12.2024 03:17 21,6 °C 2,6 °C 54 % 88 % 1019,2 hPa 0,0 l/m² 2,9 km/h (1 Bft) W-NW 287 ° 0 min 0 W/m² 0,8 °C 2,6 °C 8,0 km/h (2 Bft)
24.12.2024 03:19 21,6 °C 2,6 °C 54 % 88 % 1019,3 hPa 0,0 l/m² 3,5 km/h (1 Bft) NW 306 ° 0 min 0 W/m² 0,8 °C 2,6 °C 11,3 km/h (2 Bft)
24.12.2024 03:20 21,6 °C 2,6 °C 54 % 88 % 1019,3 hPa 0,0 l/m² 5,8 km/h (2 Bft) W-NW 285 ° 0 min 0 W/m² 0,8 °C 2,6 °C 11,3 km/h (2 Bft)
24.12.2024 03:21 21,6 °C 2,6 °C 54 % 88 % 1019,2 hPa 0,0 l/m² 6,2 km/h (2 Bft) W-NW 287 ° 0 min 0 W/m² 0,8 °C 2,6 °C 9,7 km/h (2 Bft)
24.12.2024 03:22 21,6 °C 2,6 °C 54 % 88 % 1019,2 hPa 0,0 l/m² 3,0 km/h (1 Bft) W 279 ° 0 min 0 W/m² 0,8 °C 2,6 °C 6,4 km/h (2 Bft)
24.12.2024 03:24 21,6 °C 2,6 °C 54 % 88 % 1019,3 hPa 0,0 l/m² 6,1 km/h (2 Bft) W-NW 294 ° 0 min 0 W/m² 0,8 °C 2,6 °C 11,3 km/h (2 Bft)
24.12.2024 03:26 21,6 °C 2,6 °C 54 % 88 % 1019,3 hPa 0,0 l/m² 6,2 km/h (2 Bft) W-NW 282 ° 0 min 0 W/m² 0,8 °C 2,6 °C 12,9 km/h (3 Bft)
24.12.2024 03:28 21,6 °C 2,6 °C 54 % 88 % 1019,3 hPa 0,0 l/m² 6,0 km/h (2 Bft) W-NW 288 ° 0 min 0 W/m² 0,8 °C 2,6 °C 12,9 km/h (3 Bft)
24.12.2024 03:30 21,6 °C 2,6 °C 54 % 88 % 1019,3 hPa 0,0 l/m² 5,9 km/h (2 Bft) W 265 ° 0 min 0 W/m² 0,8 °C 2,6 °C 14,5 km/h (3 Bft)
24.12.2024 03:31 21,6 °C 2,6 °C 54 % 88 % 1019,4 hPa 0,0 l/m² 5,1 km/h (1 Bft) W 280 ° 0 min 0 W/m² 0,8 °C 2,6 °C 12,9 km/h (3 Bft)
24.12.2024 03:32 21,6 °C 2,6 °C 54 % 88 % 1019,4 hPa 0,0 l/m² 3,2 km/h (1 Bft) W 281 ° 0 min 0 W/m² 0,8 °C 2,6 °C 6,4 km/h (2 Bft)
24.12.2024 03:34 21,6 °C 2,6 °C 54 % 88 % 1019,4 hPa 0,0 l/m² 3,2 km/h (1 Bft) W 281 ° 0 min 0 W/m² 0,8 °C 2,6 °C 6,4 km/h (2 Bft)
24.12.2024 03:36 21,6 °C 2,6 °C 54 % 88 % 1019,4 hPa 0,0 l/m² 12,7 km/h (3 Bft) W 279 ° 0 min 0 W/m² 0,8 °C -2,5 °C 17,7 km/h (3 Bft)
24.12.2024 03:38 21,6 °C 2,6 °C 54 % 88 % 1019,4 hPa 0,0 l/m² 11,8 km/h (2 Bft) W-NW 283 ° 0 min 0 W/m² 0,8 °C -1,9 °C 17,7 km/h (3 Bft)
24.12.2024 03:40 21,6 °C 2,5 °C 54 % 88 % 1019,4 hPa 0,0 l/m² 10,2 km/h (2 Bft) W-NW 299 ° 0 min 0 W/m² 0,7 °C -0,8 °C 14,5 km/h (3 Bft)
24.12.2024 03:41 21,6 °C 2,6 °C 54 % 88 % 1019,4 hPa 0,0 l/m² 10,4 km/h (2 Bft) W 278 ° 0 min 0 W/m² 0,8 °C -0,9 °C 16,1 km/h (3 Bft)
24.12.2024 03:42 21,6 °C 2,6 °C 54 % 88 % 1019,4 hPa 0,0 l/m² 13,0 km/h (3 Bft) W 274 ° 0 min 0 W/m² 0,8 °C -2,7 °C 16,1 km/h (3 Bft)
24.12.2024 03:43 21,6 °C 2,5 °C 54 % 88 % 1019,4 hPa 0,0 l/m² 15,1 km/h (3 Bft) W 269 ° 0 min 0 W/m² 0,7 °C -4,0 °C 19,3 km/h (3 Bft)
24.12.2024 03:44 21,6 °C 2,5 °C 54 % 88 % 1019,6 hPa 0,0 l/m² 15,9 km/h (3 Bft) W 267 ° 0 min 0 W/m² 0,7 °C -4,4 °C 20,9 km/h (4 Bft)
24.12.2024 03:47 21,6 °C 2,6 °C 54 % 88 % 1019,6 hPa 0,0 l/m² 14,5 km/h (3 Bft) W 275 ° 0 min 0 W/m² 0,8 °C -3,5 °C 17,7 km/h (3 Bft)
24.12.2024 03:49 21,6 °C 2,6 °C 54 % 88 % 1019,6 hPa 0,0 l/m² 15,8 km/h (3 Bft) W 272 ° 0 min 0 W/m² 0,8 °C -4,3 °C 20,9 km/h (4 Bft)
24.12.2024 03:50 21,6 °C 2,6 °C 54 % 88 % 1019,6 hPa 0,0 l/m² 13,7 km/h (3 Bft) W-NW 288 ° 0 min 0 W/m² 0,8 °C -3,1 °C 19,3 km/h (3 Bft)
24.12.2024 03:51 21,6 °C 2,6 °C 54 % 88 % 1019,6 hPa 0,0 l/m² 16,0 km/h (3 Bft) W-NW 289 ° 0 min 0 W/m² 0,8 °C -4,4 °C 19,3 km/h (3 Bft)
24.12.2024 03:52 21,6 °C 2,6 °C 54 % 88 % 1019,6 hPa 0,0 l/m² 13,9 km/h (3 Bft) W 274 ° 0 min 0 W/m² 0,8 °C -3,2 °C 17,7 km/h (3 Bft)
24.12.2024 03:54 21,6 °C 2,6 °C 54 % 88 % 1019,7 hPa 0,0 l/m² 16,3 km/h (3 Bft) W 278 ° 0 min 0 W/m² 0,8 °C -4,5 °C 24,1 km/h (4 Bft)
24.12.2024 03:56 21,6 °C 2,6 °C 53 % 88 % 1019,6 hPa 0,0 l/m² 16,2 km/h (3 Bft) W 280 ° 0 min 0 W/m² 0,8 °C -4,5 °C 20,9 km/h (4 Bft)
24.12.2024 03:58 21,6 °C 2,6 °C 54 % 88 % 1019,7 hPa 0,0 l/m² 15,7 km/h (3 Bft) W-NW 286 ° 0 min 0 W/m² 0,8 °C -4,2 °C 22,5 km/h (4 Bft)
24.12.2024 04:00 21,6 °C 2,6 °C 54 % 88 % 1019,7 hPa 0,0 l/m² 15,6 km/h (3 Bft) W-NW 282 ° 0 min 0 W/m² 0,8 °C -4,2 °C 20,9 km/h (4 Bft)
24.12.2024 04:01 21,6 °C 2,6 °C 53 % 88 % 1019,7 hPa 0,0 l/m² 15,4 km/h (3 Bft) W 273 ° 0 min 0 W/m² 0,8 °C -4,1 °C 24,1 km/h (4 Bft)
24.12.2024 04:02 21,6 °C 2,6 °C 54 % 88 % 1019,8 hPa 0,0 l/m² 16,6 km/h (3 Bft) W 281 ° 0 min 0 W/m² 0,8 °C -4,7 °C 20,9 km/h (4 Bft)
24.12.2024 04:04 21,6 °C 2,7 °C 53 % 88 % 1019,8 hPa 0,0 l/m² 14,1 km/h (3 Bft) W-NW 286 ° 0 min 0 W/m² 0,9 °C -3,2 °C 19,3 km/h (3 Bft)
24.12.2024 04:06 21,6 °C 2,7 °C 54 % 88 % 1019,9 hPa 0,0 l/m² 15,4 km/h (3 Bft) W 280 ° 0 min 0 W/m² 0,9 °C -3,9 °C 20,9 km/h (4 Bft)
24.12.2024 04:08 21,6 °C 2,7 °C 53 % 88 % 1019,9 hPa 0,0 l/m² 16,1 km/h (3 Bft) W-NW 283 ° 0 min 0 W/m² 0,9 °C -4,3 °C 22,5 km/h (4 Bft)
24.12.2024 04:10 21,6 °C 2,7 °C 54 % 88 % 1020,0 hPa 0,0 l/m² 14,0 km/h (3 Bft) W-NW 286 ° 0 min 0 W/m² 0,9 °C -3,1 °C 20,9 km/h (4 Bft)
24.12.2024 04:11 21,6 °C 2,7 °C 54 % 88 % 1020,0 hPa 0,0 l/m² 14,5 km/h (3 Bft) W 269 ° 0 min 0 W/m² 0,9 °C -3,4 °C 19,3 km/h (3 Bft)
24.12.2024 04:12 21,6 °C 2,7 °C 54 % 88 % 1020,1 hPa 0,0 l/m² 13,6 km/h (3 Bft) W-NW 286 ° 0 min 0 W/m² 0,9 °C -2,9 °C 16,1 km/h (3 Bft)
24.12.2024 04:14 21,6 °C 2,7 °C 53 % 88 % 1020,0 hPa 0,0 l/m² 11,2 km/h (2 Bft) W-NW 289 ° 0 min 0 W/m² 0,9 °C -1,3 °C 17,7 km/h (3 Bft)
24.12.2024 04:16 21,6 °C 2,7 °C 53 % 88 % 1020,1 hPa 0,0 l/m² 14,9 km/h (3 Bft) W 263 ° 0 min 0 W/m² 0,9 °C -3,7 °C 20,9 km/h (4 Bft)
24.12.2024 04:18 21,6 °C 2,8 °C 53 % 88 % 1020,0 hPa 0,0 l/m² 13,5 km/h (3 Bft) W 271 ° 0 min 0 W/m² 1,0 °C -2,7 °C 17,7 km/h (3 Bft)
24.12.2024 04:20 21,6 °C 2,8 °C 53 % 88 % 1020,2 hPa 0,0 l/m² 13,8 km/h (3 Bft) W 279 ° 0 min 0 W/m² 1,0 °C -2,9 °C 19,3 km/h (3 Bft)
24.12.2024 04:21 21,6 °C 2,7 °C 53 % 88 % 1020,1 hPa 0,0 l/m² 13,6 km/h (3 Bft) W 269 ° 0 min 0 W/m² 0,9 °C -2,9 °C 20,9 km/h (4 Bft)
24.12.2024 04:22 21,6 °C 2,7 °C 53 % 88 % 1020,1 hPa 0,0 l/m² 14,9 km/h (3 Bft) W-NW 298 ° 0 min 0 W/m² 0,9 °C -3,7 °C 17,7 km/h (3 Bft)
24.12.2024 04:24 21,6 °C 2,8 °C 53 % 88 % 1020,2 hPa 0,0 l/m² 14,6 km/h (3 Bft) W-NW 290 ° 0 min 0 W/m² 1,0 °C -3,4 °C 17,7 km/h (3 Bft)
24.12.2024 04:26 21,6 °C 2,7 °C 53 % 88 % 1020,3 hPa 0,0 l/m² 12,6 km/h (3 Bft) W 271 ° 0 min 0 W/m² 0,9 °C -2,3 °C 20,9 km/h (4 Bft)
24.12.2024 04:28 21,6 °C 2,7 °C 53 % 88 % 1020,3 hPa 0,0 l/m² 11,1 km/h (2 Bft) W 276 ° 0 min 0 W/m² 0,9 °C -1,3 °C 16,1 km/h (3 Bft)
24.12.2024 04:30 21,6 °C 2,7 °C 53 % 88 % 1020,3 hPa 0,0 l/m² 13,0 km/h (3 Bft) W 274 ° 0 min 0 W/m² 0,9 °C -2,5 °C 17,7 km/h (3 Bft)
24.12.2024 04:31 21,6 °C 2,7 °C 53 % 88 % 1020,3 hPa 0,0 l/m² 11,8 km/h (2 Bft) W 278 ° 0 min 0 W/m² 0,9 °C -1,8 °C 17,7 km/h (3 Bft)
24.12.2024 04:32 21,6 °C 2,7 °C 53 % 88 % 1020,3 hPa 0,0 l/m² 11,7 km/h (2 Bft) W 266 ° 0 min 0 W/m² 0,9 °C -1,7 °C 16,1 km/h (3 Bft)
24.12.2024 04:33 21,6 °C 2,7 °C 53 % 88 % 1020,4 hPa 0,0 l/m² 12,3 km/h (2 Bft) W 265 ° 0 min 0 W/m² 0,9 °C -2,1 °C 14,5 km/h (3 Bft)
24.12.2024 04:34 21,6 °C 2,7 °C 53 % 88 % 1020,4 hPa 0,0 l/m² 10,5 km/h (2 Bft) W-NW 288 ° 0 min 0 W/m² 0,9 °C -0,8 °C 14,5 km/h (3 Bft)
24.12.2024 04:35 21,6 °C 2,7 °C 53 % 88 % 1020,4 hPa 0,0 l/m² 10,4 km/h (2 Bft) W 277 ° 0 min 0 W/m² 0,9 °C -0,8 °C 16,1 km/h (3 Bft)
24.12.2024 04:37 21,6 °C 2,7 °C 53 % 88 % 1020,4 hPa 0,0 l/m² 10,9 km/h (2 Bft) W-NW 290 ° 0 min 0 W/m² 0,9 °C -1,1 °C 17,7 km/h (3 Bft)
24.12.2024 04:39 21,6 °C 2,7 °C 53 % 88 % 1020,5 hPa 0,0 l/m² 8,4 km/h (2 Bft) W-NW 284 ° 0 min 0 W/m² 0,9 °C 0,8 °C 12,9 km/h (3 Bft)
24.12.2024 04:40 21,6 °C 2,7 °C 53 % 88 % 1020,5 hPa 0,0 l/m² 6,1 km/h (2 Bft) W-NW 288 ° 0 min 0 W/m² 0,9 °C 2,7 °C 11,3 km/h (2 Bft)
24.12.2024 04:41 21,6 °C 2,7 °C 53 % 88 % 1020,5 hPa 0,0 l/m² 10,1 km/h (2 Bft) W 273 ° 0 min 0 W/m² 0,9 °C -0,5 °C 16,1 km/h (3 Bft)
24.12.2024 04:42 21,6 °C 2,7 °C 53 % 88 % 1020,5 hPa 0,0 l/m² 8,4 km/h (2 Bft) NW 317 ° 0 min 0 W/m² 0,9 °C 0,8 °C 14,5 km/h (3 Bft)
24.12.2024 04:44 21,6 °C 2,7 °C 53 % 88 % 1020,5 hPa 0,0 l/m² 8,3 km/h (2 Bft) W 275 ° 0 min 0 W/m² 0,9 °C 0,9 °C 12,9 km/h (3 Bft)
24.12.2024 04:46 21,6 °C 2,8 °C 53 % 88 % 1020,5 hPa 0,0 l/m² 6,3 km/h (2 Bft) W-NW 286 ° 0 min 0 W/m² 1,0 °C 2,8 °C 11,3 km/h (2 Bft)
24.12.2024 04:48 21,6 °C 2,8 °C 53 % 89 % 1020,6 hPa 0,0 l/m² 9,2 km/h (2 Bft) W 271 ° 0 min 0 W/m² 1,2 °C 0,3 °C 12,9 km/h (3 Bft)
24.12.2024 04:50 21,6 °C 2,8 °C 53 % 89 % 1020,6 hPa 0,0 l/m² 7,7 km/h (2 Bft) W 262 ° 0 min 0 W/m² 1,2 °C 1,6 °C 12,9 km/h (3 Bft)
24.12.2024 04:51 21,6 °C 2,8 °C 53 % 89 % 1020,6 hPa 0,0 l/m² 10,7 km/h (2 Bft) W 273 ° 0 min 0 W/m² 1,2 °C -0,9 °C 14,5 km/h (3 Bft)
24.12.2024 04:52 21,6 °C 2,8 °C 53 % 89 % 1020,6 hPa 0,0 l/m² 8,4 km/h (2 Bft) W 279 ° 0 min 0 W/m² 1,2 °C 0,9 °C 11,3 km/h (2 Bft)
24.12.2024 04:53 21,5 °C 2,8 °C 53 % 89 % 1020,6 hPa 0,0 l/m² 9,3 km/h (2 Bft) W 267 ° 0 min 0 W/m² 1,2 °C 0,2 °C 14,5 km/h (3 Bft)
24.12.2024 04:55 21,6 °C 2,8 °C 53 % 89 % 1020,6 hPa 0,0 l/m² 10,2 km/h (2 Bft) W 281 ° 0 min 0 W/m² 1,2 °C -0,5 °C 16,1 km/h (3 Bft)
24.12.2024 04:57 21,5 °C 2,9 °C 53 % 89 % 1020,7 hPa 0,0 l/m² 7,3 km/h (2 Bft) W 273 ° 0 min 0 W/m² 1,3 °C 2,0 °C 12,9 km/h (3 Bft)
24.12.2024 04:59 21,6 °C 2,9 °C 53 % 89 % 1020,7 hPa 0,0 l/m² 8,7 km/h (2 Bft) W 277 ° 0 min 0 W/m² 1,3 °C 0,8 °C 14,5 km/h (3 Bft)
24.12.2024 05:00 21,6 °C 2,9 °C 53 % 89 % 1020,6 hPa 0,0 l/m² 9,4 km/h (2 Bft) W 277 ° 0 min 0 W/m² 1,3 °C 0,2 °C 12,9 km/h (3 Bft)
24.12.2024 05:01 21,6 °C 2,9 °C 53 % 89 % 1020,6 hPa 0,0 l/m² 10,0 km/h (2 Bft) W 275 ° 0 min 0 W/m² 1,3 °C -0,2 °C 12,9 km/h (3 Bft)
24.12.2024 05:02 21,6 °C 2,9 °C 53 % 89 % 1020,6 hPa 0,0 l/m² 11,5 km/h (2 Bft) W 265 ° 0 min 0 W/m² 1,3 °C -1,3 °C 16,1 km/h (3 Bft)
24.12.2024 05:04 21,6 °C 2,9 °C 53 % 89 % 1020,7 hPa 0,0 l/m² 12,5 km/h (2 Bft) W 276 ° 0 min 0 W/m² 1,3 °C -2,0 °C 16,1 km/h (3 Bft)
24.12.2024 05:06 21,6 °C 3,0 °C 54 % 89 % 1020,7 hPa 0,0 l/m² 9,6 km/h (2 Bft) W 276 ° 0 min 0 W/m² 1,4 °C 0,2 °C 12,9 km/h (3 Bft)
24.12.2024 05:08 21,5 °C 3,0 °C 53 % 89 % 1020,7 hPa 0,0 l/m² 11,7 km/h (2 Bft) W 278 ° 0 min 0 W/m² 1,4 °C -1,3 °C 16,1 km/h (3 Bft)
24.12.2024 05:10 21,5 °C 3,1 °C 53 % 89 % 1020,7 hPa 0,0 l/m² 13,3 km/h (3 Bft) W 277 ° 0 min 0 W/m² 1,5 °C -2,2 °C 16,1 km/h (3 Bft)
24.12.2024 05:11 21,6 °C 3,1 °C 53 % 89 % 1020,7 hPa 0,0 l/m² 11,9 km/h (2 Bft) W 277 ° 0 min 0 W/m² 1,5 °C -1,4 °C 16,1 km/h (3 Bft)
24.12.2024 05:12 21,5 °C 3,1 °C 53 % 89 % 1020,7 hPa 0,0 l/m² 12,4 km/h (2 Bft) W 277 ° 0 min 0 W/m² 1,5 °C -1,7 °C 14,5 km/h (3 Bft)
24.12.2024 05:13 21,5 °C 3,1 °C 53 % 89 % 1020,8 hPa 0,0 l/m² 10,6 km/h (2 Bft) W-SW 249 ° 0 min 0 W/m² 1,5 °C -0,5 °C 12,9 km/h (3 Bft)
24.12.2024 05:15 21,6 °C 3,2 °C 53 % 89 % 1020,8 hPa 0,0 l/m² 10,4 km/h (2 Bft) W 279 ° 0 min 0 W/m² 1,6 °C -0,2 °C 14,5 km/h (3 Bft)
24.12.2024 05:17 21,5 °C 3,2 °C 53 % 89 % 1020,9 hPa 0,0 l/m² 11,3 km/h (2 Bft) W-NW 285 ° 0 min 0 W/m² 1,6 °C -0,8 °C 16,1 km/h (3 Bft)
24.12.2024 05:19 21,6 °C 3,2 °C 53 % 89 % 1021,0 hPa 0,0 l/m² 10,0 km/h (2 Bft) W 279 ° 0 min 0 W/m² 1,6 °C 0,1 °C 16,1 km/h (3 Bft)
24.12.2024 05:21 21,5 °C 3,2 °C 53 % 89 % 1021,0 hPa 0,0 l/m² 9,6 km/h (2 Bft) W 276 ° 0 min 0 W/m² 1,6 °C 0,4 °C 14,5 km/h (3 Bft)
24.12.2024 05:22 21,5 °C 3,2 °C 53 % 89 % 1021,1 hPa 0,0 l/m² 11,9 km/h (2 Bft) W 271 ° 0 min 0 W/m² 1,6 °C -1,3 °C 14,5 km/h (3 Bft)
24.12.2024 05:23 21,5 °C 3,2 °C 53 % 89 % 1021,1 hPa 0,0 l/m² 8,2 km/h (2 Bft) W 276 ° 0 min 0 W/m² 1,6 °C 1,5 °C 12,9 km/h (3 Bft)
24.12.2024 05:24 21,5 °C 3,2 °C 53 % 89 % 1021,1 hPa 0,0 l/m² 10,1 km/h (2 Bft) W 273 ° 0 min 0 W/m² 1,6 °C 0,0 °C 12,9 km/h (3 Bft)
24.12.2024 05:26 21,5 °C 3,3 °C 53 % 89 % 1021,1 hPa 0,0 l/m² 13,4 km/h (3 Bft) W 265 ° 0 min 0 W/m² 1,7 °C -2,1 °C 17,7 km/h (3 Bft)
24.12.2024 05:28 21,5 °C 3,3 °C 53 % 89 % 1021,2 hPa 0,0 l/m² 11,3 km/h (2 Bft) W 281 ° 0 min 0 W/m² 1,7 °C -0,7 °C 14,5 km/h (3 Bft)
24.12.2024 05:30 21,5 °C 3,3 °C 53 % 89 % 1021,1 hPa 0,0 l/m² 11,2 km/h (2 Bft) W 278 ° 0 min 0 W/m² 1,7 °C -0,7 °C 16,1 km/h (3 Bft)
24.12.2024 05:31 21,5 °C 3,3 °C 53 % 89 % 1021,2 hPa 0,0 l/m² 10,7 km/h (2 Bft) W-SW 250 ° 0 min 0 W/m² 1,7 °C -0,3 °C 16,1 km/h (3 Bft)
24.12.2024 05:32 21,5 °C 3,3 °C 53 % 89 % 1021,2 hPa 0,0 l/m² 9,6 km/h (2 Bft) W 281 ° 0 min 0 W/m² 1,7 °C 0,5 °C 12,9 km/h (3 Bft)
24.12.2024 05:33 21,5 °C 3,3 °C 53 % 89 % 1021,2 hPa 0,0 l/m² 9,7 km/h (2 Bft) W 281 ° 0 min 0 W/m² 1,7 °C 0,4 °C 12,9 km/h (3 Bft)
24.12.2024 05:35 21,4 °C 3,3 °C 53 % 89 % 1021,2 hPa 0,0 l/m² 8,9 km/h (2 Bft) W 278 ° 0 min 0 W/m² 1,7 °C 1,1 °C 14,5 km/h (3 Bft)
24.12.2024 05:37 21,5 °C 3,3 °C 53 % 89 % 1021,3 hPa 0,0 l/m² 7,1 km/h (2 Bft) W 273 ° 0 min 0 W/m² 1,7 °C 2,6 °C 11,3 km/h (2 Bft)
24.12.2024 05:39 21,4 °C 3,4 °C 53 % 89 % 1021,3 hPa 0,0 l/m² 5,5 km/h (2 Bft) W-NW 302 ° 0 min 0 W/m² 1,8 °C 3,4 °C 14,5 km/h (3 Bft)
24.12.2024 05:41 21,5 °C 3,4 °C 53 % 89 % 1021,4 hPa 0,0 l/m² 10,1 km/h (2 Bft) W 278 ° 0 min 0 W/m² 1,8 °C 0,2 °C 14,5 km/h (3 Bft)
24.12.2024 05:42 21,4 °C 3,4 °C 53 % 89 % 1021,4 hPa 0,0 l/m² 11,1 km/h (2 Bft) W-NW 282 ° 0 min 0 W/m² 1,8 °C -0,5 °C 16,1 km/h (3 Bft)
24.12.2024 05:43 21,4 °C 3,4 °C 53 % 89 % 1021,5 hPa 0,0 l/m² 6,8 km/h (2 Bft) W-NW 284 ° 0 min 0 W/m² 1,8 °C 3,0 °C 11,3 km/h (2 Bft)
24.12.2024 05:44 21,5 °C 3,4 °C 53 % 89 % 1021,4 hPa 0,0 l/m² 7,3 km/h (2 Bft) W-NW 282 ° 0 min 0 W/m² 1,8 °C 2,6 °C 12,9 km/h (3 Bft)
24.12.2024 05:46 21,4 °C 3,4 °C 53 % 89 % 1021,4 hPa 0,0 l/m² 8,9 km/h (2 Bft) W-NW 284 ° 0 min 0 W/m² 1,8 °C 1,2 °C 12,9 km/h (3 Bft)
24.12.2024 05:48 21,4 °C 3,4 °C 53 % 89 % 1021,5 hPa 0,0 l/m² 10,6 km/h (2 Bft) W 278 ° 0 min 0 W/m² 1,8 °C -0,1 °C 14,5 km/h (3 Bft)
24.12.2024 05:50 21,5 °C 3,4 °C 53 % 89 % 1021,6 hPa 0,0 l/m² 8,4 km/h (2 Bft) W 279 ° 0 min 0 W/m² 1,8 °C 1,6 °C 12,9 km/h (3 Bft)
24.12.2024 05:51 21,4 °C 3,4 °C 53 % 89 % 1021,6 hPa 0,0 l/m² 8,5 km/h (2 Bft) W 275 ° 0 min 0 W/m² 1,8 °C 1,5 °C 12,9 km/h (3 Bft)
24.12.2024 05:52 21,4 °C 3,4 °C 53 % 89 % 1021,6 hPa 0,0 l/m² 9,0 km/h (2 Bft) W 274 ° 0 min 0 W/m² 1,8 °C 1,1 °C 11,3 km/h (2 Bft)
24.12.2024 05:53 21,4 °C 3,4 °C 53 % 88 % 1021,5 hPa 0,0 l/m² 7,2 km/h (2 Bft) W 273 ° 0 min 0 W/m² 1,6 °C 2,7 °C 9,7 km/h (2 Bft)
24.12.2024 05:55 21,4 °C 3,4 °C 53 % 88 % 1021,6 hPa 0,0 l/m² 6,6 km/h (2 Bft) W-NW 295 ° 0 min 0 W/m² 1,6 °C 3,2 °C 12,9 km/h (3 Bft)
24.12.2024 05:57 21,4 °C 3,4 °C 53 % 88 % 1021,6 hPa 0,0 l/m² 9,6 km/h (2 Bft) W 278 ° 0 min 0 W/m² 1,6 °C 0,6 °C 14,5 km/h (3 Bft)
24.12.2024 05:59 21,4 °C 3,4 °C 53 % 88 % 1021,6 hPa 0,0 l/m² 9,0 km/h (2 Bft) W 278 ° 0 min 0 W/m² 1,6 °C 1,1 °C 12,9 km/h (3 Bft)
24.12.2024 06:01 21,4 °C 3,4 °C 53 % 88 % 1021,6 hPa 0,0 l/m² 9,4 km/h (2 Bft) W 268 ° 0 min 0 W/m² 1,6 °C 0,8 °C 12,9 km/h (3 Bft)
24.12.2024 06:02 21,4 °C 3,4 °C 53 % 88 % 1021,6 hPa 0,0 l/m² 10,9 km/h (2 Bft) W 273 ° 0 min 0 W/m² 1,6 °C -0,3 °C 14,5 km/h (3 Bft)
24.12.2024 06:03 21,4 °C 3,4 °C 53 % 88 % 1021,7 hPa 0,0 l/m² 9,3 km/h (2 Bft) W-NW 288 ° 0 min 0 W/m² 1,6 °C 0,8 °C 12,9 km/h (3 Bft)
24.12.2024 06:04 21,4 °C 3,4 °C 53 % 88 % 1021,7 hPa 0,0 l/m² 10,1 km/h (2 Bft) W 279 ° 0 min 0 W/m² 1,6 °C 0,2 °C 14,5 km/h (3 Bft)
24.12.2024 06:06 21,4 °C 3,4 °C 53 % 88 % 1021,7 hPa 0,0 l/m² 9,4 km/h (2 Bft) W 277 ° 0 min 0 W/m² 1,6 °C 0,8 °C 12,9 km/h (3 Bft)
24.12.2024 06:08 21,4 °C 3,4 °C 53 % 88 % 1021,7 hPa 0,0 l/m² 8,7 km/h (2 Bft) W 272 ° 0 min 0 W/m² 1,6 °C 1,3 °C 12,9 km/h (3 Bft)
24.12.2024 06:10 21,4 °C 3,4 °C 54 % 88 % 1021,7 hPa 0,0 l/m² 12,2 km/h (2 Bft) W 269 ° 0 min 0 W/m² 1,6 °C -1,2 °C 19,3 km/h (3 Bft)
24.12.2024 06:11 21,4 °C 3,4 °C 53 % 88 % 1021,7 hPa 0,0 l/m² 11,7 km/h (2 Bft) W-NW 284 ° 0 min 0 W/m² 1,6 °C -0,9 °C 16,1 km/h (3 Bft)
24.12.2024 06:12 21,4 °C 3,4 °C 54 % 88 % 1021,7 hPa 0,0 l/m² 13,1 km/h (3 Bft) NW 306 ° 0 min 0 W/m² 1,6 °C -1,8 °C 17,7 km/h (3 Bft)
24.12.2024 06:13 21,4 °C 3,4 °C 53 % 88 % 1021,8 hPa 0,0 l/m² 10,9 km/h (2 Bft) W-NW 288 ° 0 min 0 W/m² 1,6 °C -0,3 °C 14,5 km/h (3 Bft)
24.12.2024 06:15 21,4 °C 3,4 °C 53 % 88 % 1021,8 hPa 0,0 l/m² 9,0 km/h (2 Bft) W-NW 292 ° 0 min 0 W/m² 1,6 °C 1,1 °C 12,9 km/h (3 Bft)
24.12.2024 06:17 21,4 °C 3,4 °C 53 % 88 % 1022,0 hPa 0,0 l/m² 8,8 km/h (2 Bft) W-NW 297 ° 0 min 0 W/m² 1,6 °C 1,2 °C 17,7 km/h (3 Bft)
24.12.2024 06:19 21,4 °C 3,4 °C 53 % 88 % 1021,8 hPa 0,0 l/m² 10,3 km/h (2 Bft) W 279 ° 0 min 0 W/m² 1,6 °C 0,1 °C 19,3 km/h (3 Bft)
24.12.2024 06:21 21,4 °C 3,4 °C 53 % 88 % 1021,9 hPa 0,0 l/m² 10,8 km/h (2 Bft) W 276 ° 0 min 0 W/m² 1,6 °C -0,3 °C 17,7 km/h (3 Bft)
24.12.2024 06:22 21,4 °C 3,5 °C 54 % 88 % 1022,0 hPa 0,0 l/m² 8,8 km/h (2 Bft) W-NW 285 ° 0 min 0 W/m² 1,7 °C 1,4 °C 17,7 km/h (3 Bft)
24.12.2024 06:23 21,4 °C 3,5 °C 54 % 89 % 1022,0 hPa 0,0 l/m² 9,2 km/h (2 Bft) W 279 ° 0 min 0 W/m² 1,9 °C 1,0 °C 14,5 km/h (3 Bft)
24.12.2024 06:24 21,4 °C 3,5 °C 53 % 89 % 1021,9 hPa 0,0 l/m² 8,7 km/h (2 Bft) W-NW 287 ° 0 min 0 W/m² 1,9 °C 1,4 °C 14,5 km/h (3 Bft)
24.12.2024 06:26 21,4 °C 3,5 °C 53 % 89 % 1022,0 hPa 0,0 l/m² 10,0 km/h (2 Bft) W-NW 296 ° 0 min 0 W/m² 1,9 °C 0,4 °C 16,1 km/h (3 Bft)
24.12.2024 06:28 21,4 °C 3,5 °C 53 % 89 % 1022,0 hPa 0,0 l/m² 7,3 km/h (2 Bft) W 280 ° 0 min 0 W/m² 1,9 °C 2,7 °C 17,7 km/h (3 Bft)
24.12.2024 06:30 21,4 °C 3,5 °C 53 % 89 % 1022,0 hPa 0,0 l/m² 8,7 km/h (2 Bft) W-NW 282 ° 0 min 0 W/m² 1,9 °C 1,4 °C 17,7 km/h (3 Bft)
24.12.2024 06:31 21,4 °C 3,5 °C 54 % 89 % 1022,0 hPa 0,0 l/m² 8,0 km/h (2 Bft) W-NW 289 ° 0 min 0 W/m² 1,9 °C 2,0 °C 14,5 km/h (3 Bft)
24.12.2024 06:32 21,4 °C 3,5 °C 54 % 89 % 1022,0 hPa 0,0 l/m² 11,1 km/h (2 Bft) W-NW 282 ° 0 min 0 W/m² 1,9 °C -0,4 °C 16,1 km/h (3 Bft)
24.12.2024 06:33 21,4 °C 3,5 °C 54 % 88 % 1022,1 hPa 0,0 l/m² 8,9 km/h (2 Bft) W-NW 288 ° 0 min 0 W/m² 1,7 °C 1,3 °C 14,5 km/h (3 Bft)
24.12.2024 06:35 21,4 °C 3,5 °C 54 % 88 % 1022,1 hPa 0,0 l/m² 13,3 km/h (3 Bft) W 273 ° 0 min 0 W/m² 1,7 °C -1,8 °C 20,9 km/h (4 Bft)
24.12.2024 06:37 21,4 °C 3,5 °C 54 % 88 % 1022,1 hPa 0,0 l/m² 11,8 km/h (2 Bft) W-NW 285 ° 0 min 0 W/m² 1,7 °C -0,8 °C 17,7 km/h (3 Bft)
24.12.2024 06:39 21,4 °C 3,5 °C 54 % 88 % 1022,2 hPa 0,0 l/m² 14,0 km/h (3 Bft) W 281 ° 0 min 0 W/m² 1,7 °C -2,2 °C 20,9 km/h (4 Bft)
24.12.2024 06:41 21,4 °C 3,5 °C 54 % 88 % 1022,2 hPa 0,0 l/m² 12,0 km/h (2 Bft) W 279 ° 0 min 0 W/m² 1,7 °C -1,0 °C 17,7 km/h (3 Bft)
24.12.2024 06:42 21,4 °C 3,4 °C 54 % 88 % 1022,2 hPa 0,0 l/m² 17,6 km/h (3 Bft) W 277 ° 0 min 0 W/m² 1,6 °C -4,2 °C 22,5 km/h (4 Bft)
24.12.2024 06:43 21,4 °C 3,5 °C 54 % 88 % 1022,2 hPa 0,0 l/m² 10,5 km/h (2 Bft) W-NW 286 ° 0 min 0 W/m² 1,7 °C 0,1 °C 14,5 km/h (3 Bft)
24.12.2024 06:44 21,4 °C 3,5 °C 54 % 88 % 1022,2 hPa 0,0 l/m² 12,5 km/h (2 Bft) W-NW 302 ° 0 min 0 W/m² 1,7 °C -1,3 °C 19,3 km/h (3 Bft)
24.12.2024 06:47 21,4 °C 3,5 °C 54 % 88 % 1022,2 hPa 0,0 l/m² 11,9 km/h (2 Bft) W 278 ° 0 min 0 W/m² 1,7 °C -0,9 °C 20,9 km/h (4 Bft)
24.12.2024 06:49 21,4 °C 3,4 °C 54 % 88 % 1022,2 hPa 0,0 l/m² 13,4 km/h (3 Bft) W 269 ° 0 min 0 W/m² 1,6 °C -2,0 °C 17,7 km/h (3 Bft)
24.12.2024 06:51 21,4 °C 3,5 °C 54 % 88 % 1022,3 hPa 0,0 l/m² 14,8 km/h (3 Bft) W-NW 295 ° 0 min 0 W/m² 1,7 °C -2,6 °C 19,3 km/h (3 Bft)
24.12.2024 06:52 21,4 °C 3,4 °C 54 % 88 % 1022,4 hPa 0,0 l/m² 14,8 km/h (3 Bft) W 274 ° 0 min 0 W/m² 1,6 °C -2,8 °C 19,3 km/h (3 Bft)
24.12.2024 06:53 21,4 °C 3,4 °C 54 % 88 % 1022,4 hPa 0,0 l/m² 14,2 km/h (3 Bft) W-NW 290 ° 0 min 0 W/m² 1,6 °C -2,4 °C 17,7 km/h (3 Bft)
24.12.2024 06:54 21,4 °C 3,4 °C 54 % 88 % 1022,4 hPa 0,0 l/m² 11,3 km/h (2 Bft) W-NW 290 ° 0 min 0 W/m² 1,6 °C -0,6 °C 17,7 km/h (3 Bft)
24.12.2024 06:56 21,4 °C 3,4 °C 54 % 88 % 1022,5 hPa 0,0 l/m² 12,3 km/h (2 Bft) W-NW 284 ° 0 min 0 W/m² 1,6 °C -1,3 °C 20,9 km/h (4 Bft)
24.12.2024 06:58 21,4 °C 3,4 °C 54 % 88 % 1022,5 hPa 0,0 l/m² 10,3 km/h (2 Bft) W-NW 294 ° 0 min 0 W/m² 1,6 °C 0,1 °C 20,9 km/h (4 Bft)
24.12.2024 07:00 21,4 °C 3,4 °C 54 % 88 % 1022,5 hPa 0,0 l/m² 10,0 km/h (2 Bft) W-NW 284 ° 0 min 0 W/m² 1,6 °C 0,3 °C 17,7 km/h (3 Bft)
24.12.2024 07:01 21,4 °C 3,4 °C 54 % 88 % 1022,5 hPa 0,0 l/m² 13,2 km/h (3 Bft) W 280 ° 0 min 0 W/m² 1,6 °C -1,8 °C 24,1 km/h (4 Bft)
24.12.2024 07:02 21,4 °C 3,4 °C 54 % 88 % 1022,5 hPa 0,0 l/m² 16,2 km/h (3 Bft) W-NW 299 ° 0 min 0 W/m² 1,6 °C -3,5 °C 24,1 km/h (4 Bft)
24.12.2024 07:03 21,4 °C 3,4 °C 54 % 88 % 1022,5 hPa 0,0 l/m² 11,0 km/h (2 Bft) W-NW 289 ° 0 min 0 W/m² 1,6 °C -0,4 °C 16,1 km/h (3 Bft)
24.12.2024 07:05 21,4 °C 3,4 °C 54 % 88 % 1022,5 hPa 0,0 l/m² 12,6 km/h (3 Bft) W-NW 283 ° 0 min 0 W/m² 1,6 °C -1,5 °C 17,7 km/h (3 Bft)
24.12.2024 07:07 21,4 °C 3,4 °C 54 % 88 % 1022,6 hPa 0,0 l/m² 12,2 km/h (2 Bft) W-NW 300 ° 0 min 0 W/m² 1,6 °C -1,2 °C 16,1 km/h (3 Bft)
24.12.2024 07:09 21,4 °C 3,4 °C 54 % 88 % 1022,5 hPa 0,0 l/m² 10,4 km/h (2 Bft) W-NW 289 ° 0 min 0 W/m² 1,6 °C 0,0 °C 14,5 km/h (3 Bft)
24.12.2024 07:11 21,4 °C 3,4 °C 54 % 88 % 1022,5 hPa 0,0 l/m² 11,7 km/h (2 Bft) W-NW 301 ° 0 min 0 W/m² 1,6 °C -0,9 °C 19,3 km/h (3 Bft)
24.12.2024 07:12 21,4 °C 3,4 °C 54 % 88 % 1022,5 hPa 0,0 l/m² 11,6 km/h (2 Bft) W-NW 287 ° 0 min 0 W/m² 1,6 °C -0,8 °C 19,3 km/h (3 Bft)
24.12.2024 07:13 21,4 °C 3,4 °C 54 % 88 % 1022,5 hPa 0,0 l/m² 11,6 km/h (2 Bft) NW 306 ° 0 min 0 W/m² 1,6 °C -0,8 °C 19,3 km/h (3 Bft)
24.12.2024 07:14 21,4 °C 3,4 °C 54 % 88 % 1022,6 hPa 0,0 l/m² 10,3 km/h (2 Bft) W 281 ° 0 min 0 W/m² 1,6 °C 0,1 °C 16,1 km/h (3 Bft)
24.12.2024 07:16 21,4 °C 3,4 °C 54 % 88 % 1022,6 hPa 0,0 l/m² 7,0 km/h (2 Bft) W-NW 285 ° 0 min 0 W/m² 1,6 °C 2,8 °C 16,1 km/h (3 Bft)
24.12.2024 07:17 21,4 °C 3,4 °C 54 % 88 % 1022,7 hPa 0,0 l/m² 6,1 km/h (2 Bft) W 271 ° 0 min 0 W/m² 1,6 °C 3,4 °C 16,1 km/h (3 Bft)
24.12.2024 07:18 21,4 °C 3,4 °C 54 % 88 % 1022,6 hPa 0,0 l/m² 10,0 km/h (2 Bft) W 279 ° 0 min 0 W/m² 1,6 °C 0,3 °C 14,5 km/h (3 Bft)
24.12.2024 07:19 21,4 °C 3,4 °C 54 % 88 % 1022,6 hPa 0,0 l/m² 11,2 km/h (2 Bft) W 281 ° 0 min 0 W/m² 1,6 °C -0,6 °C 14,5 km/h (3 Bft)
24.12.2024 07:21 21,4 °C 3,4 °C 54 % 88 % 1022,6 hPa 0,0 l/m² 10,7 km/h (2 Bft) W 277 ° 0 min 0 W/m² 1,6 °C -0,2 °C 16,1 km/h (3 Bft)
24.12.2024 07:22 21,4 °C 3,4 °C 54 % 88 % 1022,6 hPa 0,0 l/m² 11,3 km/h (2 Bft) W 273 ° 0 min 0 W/m² 1,6 °C -0,6 °C 16,1 km/h (3 Bft)
24.12.2024 07:23 21,4 °C 3,4 °C 54 % 88 % 1022,6 hPa 0,0 l/m² 9,3 km/h (2 Bft) W 275 ° 0 min 0 W/m² 1,6 °C 0,8 °C 12,9 km/h (3 Bft)
24.12.2024 07:24 21,4 °C 3,4 °C 54 % 88 % 1022,6 hPa 0,0 l/m² 5,7 km/h (2 Bft) W-NW 287 ° 0 min 0 W/m² 1,6 °C 3,4 °C 11,3 km/h (2 Bft)
24.12.2024 07:26 21,4 °C 3,4 °C 54 % 88 % 1022,7 hPa 0,0 l/m² 8,6 km/h (2 Bft) W 264 ° 0 min 0 W/m² 1,6 °C 1,4 °C 14,5 km/h (3 Bft)
24.12.2024 07:28 21,4 °C 3,4 °C 54 % 88 % 1022,6 hPa 0,0 l/m² 10,0 km/h (2 Bft) W-NW 300 ° 0 min 0 W/m² 1,6 °C 0,3 °C 17,7 km/h (3 Bft)
24.12.2024 07:30 21,4 °C 3,4 °C 54 % 88 % 1022,7 hPa 0,0 l/m² 10,5 km/h (2 Bft) W-NW 291 ° 0 min 0 W/m² 1,6 °C -0,1 °C 17,7 km/h (3 Bft)
24.12.2024 07:31 21,4 °C 3,4 °C 54 % 88 % 1022,7 hPa 0,0 l/m² 11,8 km/h (2 Bft) W 277 ° 0 min 0 W/m² 1,6 °C -1,0 °C 16,1 km/h (3 Bft)
24.12.2024 07:32 21,4 °C 3,4 °C 54 % 88 % 1022,7 hPa 0,0 l/m² 9,5 km/h (2 Bft) W 281 ° 0 min 0 W/m² 1,6 °C 0,7 °C 16,1 km/h (3 Bft)
24.12.2024 07:33 21,4 °C 3,4 °C 54 % 88 % 1022,7 hPa 0,0 l/m² 10,5 km/h (2 Bft) W 274 ° 0 min 0 W/m² 1,6 °C -0,1 °C 14,5 km/h (3 Bft)
24.12.2024 07:35 21,4 °C 3,3 °C 54 % 88 % 1022,7 hPa 0,0 l/m² 10,2 km/h (2 Bft) W-NW 283 ° 0 min 0 W/m² 1,5 °C 0,0 °C 16,1 km/h (3 Bft)
24.12.2024 07:37 21,4 °C 3,3 °C 54 % 88 % 1022,7 hPa 0,0 l/m² 10,4 km/h (2 Bft) W 275 ° 0 min 0 W/m² 1,5 °C -0,1 °C 19,3 km/h (3 Bft)
24.12.2024 07:39 21,4 °C 3,3 °C 54 % 88 % 1022,7 hPa 0,0 l/m² 10,4 km/h (2 Bft) W 272 ° 0 min 0 W/m² 1,5 °C -0,1 °C 16,1 km/h (3 Bft)
24.12.2024 07:41 21,4 °C 3,3 °C 54 % 88 % 1022,8 hPa 0,0 l/m² 9,9 km/h (2 Bft) W 273 ° 0 min 0 W/m² 1,5 °C 0,3 °C 16,1 km/h (3 Bft)
24.12.2024 07:42 21,4 °C 3,3 °C 54 % 88 % 1022,8 hPa 0,0 l/m² 9,5 km/h (2 Bft) W 281 ° 0 min 0 W/m² 1,5 °C 0,6 °C 14,5 km/h (3 Bft)
24.12.2024 07:43 21,4 °C 3,3 °C 54 % 88 % 1022,8 hPa 0,0 l/m² 8,4 km/h (2 Bft) W 280 ° 0 min 0 W/m² 1,5 °C 1,5 °C 12,9 km/h (3 Bft)
24.12.2024 07:44 21,4 °C 3,2 °C 54 % 88 % 1022,8 hPa 0,0 l/m² 7,0 km/h (2 Bft) W-NW 283 ° 0 min 0 W/m² 1,4 °C 2,6 °C 12,9 km/h (3 Bft)
24.12.2024 07:46 21,4 °C 3,2 °C 54 % 88 % 1022,9 hPa 0,0 l/m² 7,4 km/h (2 Bft) NW 314 ° 0 min 0 W/m² 1,4 °C 2,3 °C 12,9 km/h (3 Bft)
24.12.2024 07:48 21,4 °C 3,2 °C 54 % 88 % 1022,9 hPa 0,0 l/m² 9,1 km/h (2 Bft) W 277 ° 0 min 0 W/m² 1,4 °C 0,8 °C 16,1 km/h (3 Bft)
24.12.2024 07:50 21,4 °C 3,2 °C 53 % 88 % 1022,9 hPa 0,0 l/m² 9,3 km/h (2 Bft) W-NW 287 ° 0 min 0 W/m² 1,4 °C 0,6 °C 14,5 km/h (3 Bft)
24.12.2024 07:51 21,4 °C 3,2 °C 53 % 88 % 1023,0 hPa 0,0 l/m² 11,4 km/h (2 Bft) W 277 ° 0 min 0 W/m² 1,4 °C -0,9 °C 16,1 km/h (3 Bft)
24.12.2024 07:52 21,4 °C 3,2 °C 53 % 88 % 1023,0 hPa 0,0 l/m² 9,7 km/h (2 Bft) W-NW 292 ° 0 min 0 W/m² 1,4 °C 0,3 °C 12,9 km/h (3 Bft)
24.12.2024 07:53 21,4 °C 3,2 °C 54 % 88 % 1022,9 hPa 0,0 l/m² 9,4 km/h (2 Bft) W 279 ° 0 min 0 W/m² 1,4 °C 0,5 °C 11,3 km/h (2 Bft)
24.12.2024 07:55 21,4 °C 3,1 °C 54 % 88 % 1023,0 hPa 0,0 l/m² 6,9 km/h (2 Bft) W 276 ° 0 min 0 W/m² 1,3 °C 2,6 °C 11,3 km/h (2 Bft)
24.12.2024 07:57 21,4 °C 3,1 °C 54 % 88 % 1023,0 hPa 0,0 l/m² 7,5 km/h (2 Bft) W 276 ° 0 min 0 W/m² 1,3 °C 2,1 °C 12,9 km/h (3 Bft)
24.12.2024 07:59 21,4 °C 3,1 °C 54 % 88 % 1023,0 hPa 0,0 l/m² 4,4 km/h (1 Bft) W 270 ° 0 min 0 W/m² 1,3 °C 3,1 °C 9,7 km/h (2 Bft)
24.12.2024 08:01 21,4 °C 3,0 °C 54 % 88 % 1023,1 hPa 0,0 l/m² 4,4 km/h (1 Bft) W 269 ° 0 min 0 W/m² 1,2 °C 3,0 °C 6,4 km/h (2 Bft)
24.12.2024 08:02 21,4 °C 2,9 °C 54 % 88 % 1023,1 hPa 0,0 l/m² 3,8 km/h (1 Bft) W 268 ° 0 min 0 W/m² 1,1 °C 2,9 °C 6,4 km/h (2 Bft)
24.12.2024 08:03 21,4 °C 2,9 °C 54 % 88 % 1023,1 hPa 0,0 l/m² 2,7 km/h (1 Bft) W 268 ° 0 min 0 W/m² 1,1 °C 2,9 °C 4,8 km/h (1 Bft)
24.12.2024 08:04 21,4 °C 2,9 °C 54 % 88 % 1023,1 hPa 0,0 l/m² 1,5 km/h (1 Bft) W 268 ° 0 min 0 W/m² 1,1 °C 2,9 °C 3,2 km/h (1 Bft)
24.12.2024 08:06 21,4 °C 2,9 °C 54 % 88 % 1023,2 hPa 0,0 l/m² 0,9 km/h (0 Bft) W 268 ° 0 min 0 W/m² 1,1 °C 2,9 °C 3,2 km/h (1 Bft)
24.12.2024 08:08 21,4 °C 2,8 °C 54 % 88 % 1023,1 hPa 0,0 l/m² 2,5 km/h (1 Bft) W 268 ° 0 min 0 W/m² 1,0 °C 2,8 °C 4,8 km/h (1 Bft)
24.12.2024 08:10 21,4 °C 2,8 °C 54 % 88 % 1023,1 hPa 0,0 l/m² 2,2 km/h (1 Bft) W 268 ° 0 min 0 W/m² 1,0 °C 2,8 °C 3,2 km/h (1 Bft)
24.12.2024 08:11 21,4 °C 2,8 °C 54 % 88 % 1023,2 hPa 0,0 l/m² 2,7 km/h (1 Bft) W 268 ° 0 min 0 W/m² 1,0 °C 2,8 °C 4,8 km/h (1 Bft)
24.12.2024 08:12 21,4 °C 2,7 °C 54 % 88 % 1023,2 hPa 0,0 l/m² 2,1 km/h (1 Bft) W 268 ° 0 min 0 W/m² 0,9 °C 2,7 °C 3,2 km/h (1 Bft)
24.12.2024 08:13 21,4 °C 2,7 °C 54 % 88 % 1023,2 hPa 0,0 l/m² 3,2 km/h (1 Bft) W 268 ° 0 min 0 W/m² 0,9 °C 2,7 °C 4,8 km/h (1 Bft)
24.12.2024 08:15 21,4 °C 2,7 °C 54 % 88 % 1023,2 hPa 0,0 l/m² 3,1 km/h (1 Bft) W 268 ° 0 min 5 W/m² 0,9 °C 2,7 °C 4,8 km/h (1 Bft)
24.12.2024 08:17 21,4 °C 2,6 °C 54 % 88 % 1023,3 hPa 0,0 l/m² 3,5 km/h (1 Bft) W 268 ° 0 min 5 W/m² 0,8 °C 2,6 °C 4,8 km/h (1 Bft)
24.12.2024 08:19 21,4 °C 2,6 °C 54 % 88 % 1023,3 hPa 0,0 l/m² 5,0 km/h (1 Bft) W 261 ° 0 min 5 W/m² 0,8 °C 2,6 °C 6,4 km/h (2 Bft)
24.12.2024 08:20 21,4 °C 2,5 °C 54 % 87 % 1023,3 hPa 0,0 l/m² 5,2 km/h (1 Bft) W 261 ° 0 min 5 W/m² 0,6 °C 2,5 °C 6,4 km/h (2 Bft)
24.12.2024 08:21 21,4 °C 2,4 °C 54 % 87 % 1023,3 hPa 0,0 l/m² 5,3 km/h (1 Bft) W 261 ° 0 min 5 W/m² 0,5 °C 2,4 °C 6,4 km/h (2 Bft)
24.12.2024 08:22 21,4 °C 2,4 °C 54 % 87 % 1023,3 hPa 0,0 l/m² 4,0 km/h (1 Bft) W 261 ° 0 min 5 W/m² 0,5 °C 2,4 °C 4,8 km/h (1 Bft)
24.12.2024 08:24 21,4 °C 2,3 °C 54 % 88 % 1023,3 hPa 0,0 l/m² 4,3 km/h (1 Bft) W-SW 252 ° 0 min 7 W/m² 0,5 °C 2,3 °C 6,4 km/h (2 Bft)
24.12.2024 08:26 21,4 °C 2,3 °C 54 % 88 % 1023,4 hPa 0,0 l/m² 2,6 km/h (1 Bft) W-SW 252 ° 0 min 7 W/m² 0,5 °C 2,3 °C 4,8 km/h (1 Bft)
24.12.2024 08:28 21,4 °C 2,2 °C 54 % 88 % 1023,5 hPa 0,0 l/m² 4,4 km/h (1 Bft) W-SW 248 ° 0 min 7 W/m² 0,4 °C 2,2 °C 6,4 km/h (2 Bft)
24.12.2024 08:30 21,4 °C 2,1 °C 54 % 88 % 1023,5 hPa 0,0 l/m² 3,4 km/h (1 Bft) W-SW 248 ° 0 min 9 W/m² 0,3 °C 2,1 °C 4,8 km/h (1 Bft)
24.12.2024 08:31 21,4 °C 2,1 °C 54 % 88 % 1023,6 hPa 0,0 l/m² 4,8 km/h (1 Bft) W-SW 248 ° 0 min 9 W/m² 0,3 °C 2,1 °C 6,4 km/h (2 Bft)
24.12.2024 08:32 21,4 °C 2,1 °C 54 % 88 % 1023,6 hPa 0,0 l/m² 5,3 km/h (1 Bft) W-SW 243 ° 0 min 9 W/m² 0,3 °C 2,1 °C 6,4 km/h (2 Bft)
24.12.2024 08:33 21,4 °C 2,1 °C 54 % 88 % 1023,6 hPa 0,0 l/m² 4,6 km/h (1 Bft) W-SW 242 ° 0 min 9 W/m² 0,3 °C 2,1 °C 6,4 km/h (2 Bft)
24.12.2024 08:35 21,4 °C 2,0 °C 54 % 88 % 1023,7 hPa 0,0 l/m² 4,4 km/h (1 Bft) W-SW 242 ° 0 min 11 W/m² 0,2 °C 2,0 °C 6,4 km/h (2 Bft)
24.12.2024 08:37 21,4 °C 1,9 °C 54 % 88 % 1023,7 hPa 0,0 l/m² 4,6 km/h (1 Bft) SW 232 ° 0 min 11 W/m² 0,1 °C 1,9 °C 6,4 km/h (2 Bft)
24.12.2024 08:39 21,4 °C 1,9 °C 54 % 88 % 1023,7 hPa 0,0 l/m² 3,6 km/h (1 Bft) SW 231 ° 0 min 12 W/m² 0,1 °C 1,9 °C 6,4 km/h (2 Bft)
24.12.2024 08:40 21,4 °C 1,9 °C 54 % 88 % 1023,8 hPa 0,0 l/m² 5,1 km/h (1 Bft) SW 229 ° 0 min 12 W/m² 0,1 °C 1,9 °C 6,4 km/h (2 Bft)
24.12.2024 08:41 21,4 °C 1,8 °C 54 % 88 % 1023,8 hPa 0,0 l/m² 4,3 km/h (1 Bft) SW 229 ° 0 min 14 W/m² 0,0 °C 1,8 °C 4,8 km/h (1 Bft)
24.12.2024 08:42 21,4 °C 1,8 °C 54 % 88 % 1023,8 hPa 0,0 l/m² 4,4 km/h (1 Bft) SW 229 ° 0 min 14 W/m² 0,0 °C 1,8 °C 4,8 km/h (1 Bft)
24.12.2024 08:44 21,4 °C 1,8 °C 54 % 88 % 1023,9 hPa 0,0 l/m² 2,8 km/h (1 Bft) SW 229 ° 0 min 19 W/m² 0,0 °C 1,8 °C 4,8 km/h (1 Bft)
24.12.2024 08:46 21,4 °C 1,7 °C 54 % 88 % 1023,9 hPa 0,0 l/m² 4,1 km/h (1 Bft) SW 229 ° 0 min 21 W/m² -0,1 °C 1,7 °C 6,4 km/h (2 Bft)
24.12.2024 08:48 21,4 °C 1,7 °C 54 % 88 % 1024,0 hPa 0,0 l/m² 3,3 km/h (1 Bft) SW 229 ° 0 min 25 W/m² -0,1 °C 1,7 °C 6,4 km/h (2 Bft)
24.12.2024 08:50 21,5 °C 1,6 °C 55 % 88 % 1024,0 hPa 0,0 l/m² 3,4 km/h (1 Bft) SW 232 ° 0 min 28 W/m² -0,2 °C 1,6 °C 6,4 km/h (2 Bft)
24.12.2024 08:51 21,6 °C 1,5 °C 55 % 88 % 1024,1 hPa 0,0 l/m² 2,6 km/h (1 Bft) SW 233 ° 0 min 28 W/m² -0,3 °C 1,5 °C 4,8 km/h (1 Bft)
24.12.2024 08:52 21,7 °C 1,4 °C 55 % 89 % 1024,1 hPa 0,0 l/m² 4,0 km/h (1 Bft) W-SW 237 ° 0 min 28 W/m² -0,2 °C 1,4 °C 6,4 km/h (2 Bft)
24.12.2024 08:53 21,7 °C 1,4 °C 55 % 89 % 1024,1 hPa 0,0 l/m² 4,0 km/h (1 Bft) W-SW 238 ° 0 min 30 W/m² -0,2 °C 1,4 °C 6,4 km/h (2 Bft)
24.12.2024 08:54 21,8 °C 1,4 °C 54 % 89 % 1024,1 hPa 0,0 l/m² 4,1 km/h (1 Bft) W-SW 243 ° 0 min 30 W/m² -0,2 °C 1,4 °C 4,8 km/h (1 Bft)
24.12.2024 08:56 21,8 °C 1,4 °C 54 % 89 % 1024,3 hPa 0,0 l/m² 1,9 km/h (1 Bft) W-SW 248 ° 0 min 32 W/m² -0,2 °C 1,4 °C 4,8 km/h (1 Bft)
24.12.2024 08:58 22,1 °C 1,4 °C 54 % 90 % 1024,4 hPa 0,0 l/m² 2,6 km/h (1 Bft) W-SW 248 ° 0 min 33 W/m² -0,1 °C 1,4 °C 4,8 km/h (1 Bft)
24.12.2024 09:00 22,2 °C 1,3 °C 53 % 90 % 1024,4 hPa 0,0 l/m² 2,3 km/h (1 Bft) W-SW 248 ° 0 min 35 W/m² -0,2 °C 1,3 °C 4,8 km/h (1 Bft)
24.12.2024 09:01 22,3 °C 1,3 °C 53 % 90 % 1024,6 hPa 0,0 l/m² 2,4 km/h (1 Bft) W-SW 248 ° 0 min 37 W/m² -0,2 °C 1,3 °C 4,8 km/h (1 Bft)
24.12.2024 09:02 22,5 °C 1,3 °C 53 % 90 % 1024,6 hPa 0,0 l/m² 2,3 km/h (1 Bft) W-SW 248 ° 0 min 39 W/m² -0,2 °C 1,3 °C 4,8 km/h (1 Bft)
24.12.2024 09:03 22,5 °C 1,3 °C 53 % 90 % 1024,6 hPa 0,0 l/m² 1,0 km/h (0 Bft) W-SW 248 ° 0 min 40 W/m² -0,2 °C 1,3 °C 3,2 km/h (1 Bft)
24.12.2024 09:05 22,8 °C 1,3 °C 52 % 90 % 1024,8 hPa 0,0 l/m² 3,0 km/h (1 Bft) W-SW 248 ° 0 min 42 W/m² -0,2 °C 1,3 °C 4,8 km/h (1 Bft)
24.12.2024 09:07 22,9 °C 1,3 °C 52 % 90 % 1024,8 hPa 0,0 l/m² 1,2 km/h (1 Bft) W-SW 248 ° 0 min 44 W/m² -0,2 °C 1,3 °C 3,2 km/h (1 Bft)
24.12.2024 09:09 23,2 °C 1,4 °C 51 % 91 % 1024,9 hPa 0,0 l/m² 0,7 km/h (0 Bft) W-SW 248 ° 0 min 47 W/m² 0,1 °C 1,4 °C 3,2 km/h (1 Bft)
24.12.2024 09:10 23,4 °C 1,4 °C 51 % 91 % 1024,9 hPa 0,0 l/m² 2,4 km/h (1 Bft) W-SW 248 ° 0 min 47 W/m² 0,1 °C 1,4 °C 4,8 km/h (1 Bft)
24.12.2024 09:11 23,6 °C 1,5 °C 51 % 91 % 1024,9 hPa 0,0 l/m² 1,4 km/h (1 Bft) W-SW 248 ° 0 min 49 W/m² 0,2 °C 1,5 °C 4,8 km/h (1 Bft)
24.12.2024 09:12 23,6 °C 1,5 °C 50 % 91 % 1024,9 hPa 0,0 l/m² 1,3 km/h (1 Bft) W-SW 248 ° 0 min 49 W/m² 0,2 °C 1,5 °C 3,2 km/h (1 Bft)
24.12.2024 09:13 23,6 °C 1,6 °C 50 % 90 % 1024,9 hPa 0,0 l/m² 2,0 km/h (1 Bft) W-SW 248 ° 1 min 54 W/m² 0,1 °C 1,6 °C 3,2 km/h (1 Bft)
24.12.2024 09:14 23,7 °C 1,6 °C 50 % 90 % 1024,9 hPa 0,0 l/m² 1,3 km/h (1 Bft) W-SW 248 ° 1 min 54 W/m² 0,1 °C 1,6 °C 3,2 km/h (1 Bft)
24.12.2024 09:15 23,7 °C 1,6 °C 50 % 90 % 1024,9 hPa 0,0 l/m² 0,1 km/h (0 Bft) W-SW 248 ° 1 min 58 W/m² 0,1 °C 1,6 °C 1,6 km/h (1 Bft)
24.12.2024 09:16 23,6 °C 1,6 °C 50 % 90 % 1024,9 hPa 0,0 l/m² 1,3 km/h (1 Bft) W-SW 248 ° 1 min 60 W/m² 0,1 °C 1,6 °C 3,2 km/h (1 Bft)
24.12.2024 09:17 23,6 °C 1,6 °C 50 % 91 % 1024,9 hPa 0,0 l/m² 2,0 km/h (1 Bft) W-SW 248 ° 1 min 62 W/m² 0,3 °C 1,6 °C 4,8 km/h (1 Bft)
24.12.2024 09:18 23,5 °C 1,7 °C 50 % 91 % 1024,9 hPa 0,0 l/m² 1,8 km/h (1 Bft) W-SW 248 ° 1 min 62 W/m² 0,4 °C 1,7 °C 3,2 km/h (1 Bft)
24.12.2024 09:19 23,3 °C 1,7 °C 51 % 91 % 1024,9 hPa 0,0 l/m² 1,8 km/h (1 Bft) W-SW 248 ° 1 min 62 W/m² 0,4 °C 1,7 °C 3,2 km/h (1 Bft)
24.12.2024 09:21 23,2 °C 1,7 °C 51 % 90 % 1024,9 hPa 0,0 l/m² 2,5 km/h (1 Bft) W-SW 248 ° 2 min 62 W/m² 0,2 °C 1,7 °C 4,8 km/h (1 Bft)
24.12.2024 09:23 23,2 °C 1,8 °C 51 % 90 % 1025,0 hPa 0,0 l/m² 1,4 km/h (1 Bft) W-SW 248 ° 2 min 63 W/m² 0,3 °C 1,8 °C 4,8 km/h (1 Bft)
24.12.2024 09:24 23,2 °C 1,8 °C 51 % 90 % 1025,1 hPa 0,0 l/m² 1,4 km/h (1 Bft) W-SW 248 ° 1 min 65 W/m² 0,3 °C 1,8 °C 3,2 km/h (1 Bft)
24.12.2024 09:25 23,1 °C 1,8 °C 51 % 90 % 1024,9 hPa 0,0 l/m² 2,0 km/h (1 Bft) W-SW 248 ° 1 min 63 W/m² 0,3 °C 1,8 °C 3,2 km/h (1 Bft)
24.12.2024 09:26 23,1 °C 1,8 °C 52 % 90 % 1025,0 hPa 0,0 l/m² 1,2 km/h (1 Bft) W-SW 248 ° 1 min 58 W/m² 0,3 °C 1,8 °C 3,2 km/h (1 Bft)
24.12.2024 09:27 23,1 °C 1,8 °C 52 % 90 % 1025,1 hPa 0,0 l/m² 2,4 km/h (1 Bft) W-SW 248 ° 1 min 69 W/m² 0,3 °C 1,8 °C 3,2 km/h (1 Bft)
24.12.2024 09:28 23,1 °C 1,9 °C 52 % 90 % 1025,0 hPa 0,0 l/m² 0,4 km/h (0 Bft) W-SW 248 ° 1 min 69 W/m² 0,4 °C 1,9 °C 3,2 km/h (1 Bft)
24.12.2024 09:29 23,1 °C 1,9 °C 52 % 90 % 1025,1 hPa 0,0 l/m² 0,1 km/h (0 Bft) W-SW 248 ° 1 min 70 W/m² 0,4 °C 1,9 °C 1,6 km/h (1 Bft)
24.12.2024 09:31 23,1 °C 1,9 °C 52 % 90 % 1025,1 hPa 0,0 l/m² 0,2 km/h (0 Bft) W-SW 248 ° 2 min 72 W/m² 0,4 °C 1,9 °C 3,2 km/h (1 Bft)
24.12.2024 09:33 23,1 °C 2,1 °C 52 % 90 % 1025,2 hPa 0,0 l/m² 0,0 km/h (0 Bft) W-SW 248 ° 2 min 72 W/m² 0,6 °C 2,1 °C 0,0 km/h (0 Bft)
24.12.2024 09:34 23,1 °C 2,2 °C 52 % 90 % 1025,1 hPa 0,0 l/m² 0,0 km/h (0 Bft) W-SW 248 ° 1 min 76 W/m² 0,7 °C 2,2 °C 0,0 km/h (0 Bft)
24.12.2024 09:35 23,1 °C 2,2 °C 52 % 90 % 1025,2 hPa 0,0 l/m² 0,0 km/h (0 Bft) W-SW 248 ° 1 min 76 W/m² 0,7 °C 2,2 °C 0,0 km/h (0 Bft)
24.12.2024 09:36 23,1 °C 2,2 °C 52 % 90 % 1025,1 hPa 0,0 l/m² 0,0 km/h (0 Bft) W-SW 248 ° 1 min 76 W/m² 0,7 °C 2,2 °C 0,0 km/h (0 Bft)
24.12.2024 09:37 23,1 °C 2,1 °C 52 % 89 % 1025,2 hPa 0,0 l/m² 0,0 km/h (0 Bft) W-SW 248 ° 1 min 83 W/m² 0,5 °C 2,1 °C 0,0 km/h (0 Bft)
24.12.2024 09:38 23,1 °C 1,9 °C 52 % 89 % 1025,3 hPa 0,0 l/m² 0,0 km/h (0 Bft) W-SW 248 ° 1 min 84 W/m² 0,3 °C 1,9 °C 0,0 km/h (0 Bft)
24.12.2024 09:39 23,1 °C 1,9 °C 52 % 89 % 1025,3 hPa 0,0 l/m² 0,0 km/h (0 Bft) W-SW 248 ° 1 min 86 W/m² 0,3 °C 1,9 °C 0,0 km/h (0 Bft)
24.12.2024 09:41 23,1 °C 1,8 °C 52 % 90 % 1025,3 hPa 0,0 l/m² 0,0 km/h (0 Bft) W-SW 248 ° 2 min 88 W/m² 0,3 °C 1,8 °C 0,0 km/h (0 Bft)
24.12.2024 09:43 23,1 °C 1,9 °C 52 % 90 % 1025,3 hPa 0,0 l/m² 0,0 km/h (0 Bft) W-SW 248 ° 2 min 76 W/m² 0,4 °C 1,9 °C 0,0 km/h (0 Bft)
24.12.2024 09:44 23,1 °C 2,1 °C 52 % 90 % 1025,2 hPa 0,0 l/m² 0,0 km/h (0 Bft) W-SW 248 ° 1 min 93 W/m² 0,6 °C 2,1 °C 0,0 km/h (0 Bft)
24.12.2024 09:47 23,1 °C 2,3 °C 52 % 90 % 1025,4 hPa 0,0 l/m² 0,0 km/h (0 Bft) W-SW 248 ° 3 min 98 W/m² 0,8 °C 2,3 °C 0,0 km/h (0 Bft)
24.12.2024 09:48 23,1 °C 2,4 °C 52 % 90 % 1025,4 hPa 0,0 l/m² 0,0 km/h (0 Bft) W-SW 248 ° 1 min 98 W/m² 0,9 °C 2,4 °C 0,0 km/h (0 Bft)
24.12.2024 09:49 23,1 °C 2,4 °C 52 % 90 % 1025,5 hPa 0,0 l/m² 0,0 km/h (0 Bft) W-SW 248 ° 1 min 91 W/m² 0,9 °C 2,4 °C 0,0 km/h (0 Bft)
24.12.2024 09:51 23,0 °C 2,6 °C 52 % 90 % 1025,5 hPa 0,0 l/m² 0,2 km/h (0 Bft) W-SW 248 ° 2 min 100 W/m² 1,1 °C 2,6 °C 1,6 km/h (1 Bft)
24.12.2024 09:53 23,0 °C 2,6 °C 52 % 89 % 1025,6 hPa 0,0 l/m² 0,0 km/h (0 Bft) W-SW 248 ° 2 min 104 W/m² 1,0 °C 2,6 °C 1,6 km/h (1 Bft)
24.12.2024 09:54 23,0 °C 2,5 °C 52 % 89 % 1025,6 hPa 0,0 l/m² 0,0 km/h (0 Bft) W-SW 248 ° 1 min 74 W/m² 0,9 °C 2,5 °C 0,0 km/h (0 Bft)
24.12.2024 09:55 23,0 °C 2,4 °C 52 % 89 % 1025,7 hPa 0,0 l/m² 0,1 km/h (0 Bft) W-SW 248 ° 1 min 56 W/m² 0,8 °C 2,4 °C 1,6 km/h (1 Bft)
24.12.2024 09:56 23,0 °C 2,4 °C 52 % 89 % 1025,8 hPa 0,0 l/m² 0,0 km/h (0 Bft) W-SW 248 ° 1 min 63 W/m² 0,8 °C 2,4 °C 0,0 km/h (0 Bft)
24.12.2024 09:57 22,9 °C 2,3 °C 52 % 89 % 1025,8 hPa 0,0 l/m² 0,0 km/h (0 Bft) W-SW 248 ° 1 min 86 W/m² 0,7 °C 2,3 °C 0,0 km/h (0 Bft)
24.12.2024 09:58 22,9 °C 2,3 °C 52 % 89 % 1025,8 hPa 0,0 l/m² 0,0 km/h (0 Bft) W-SW 248 ° 1 min 107 W/m² 0,7 °C 2,3 °C 0,0 km/h (0 Bft)
24.12.2024 09:59 22,9 °C 2,3 °C 52 % 89 % 1025,8 hPa 0,0 l/m² 0,0 km/h (0 Bft) W-SW 248 ° 1 min 102 W/m² 0,7 °C 2,3 °C 0,0 km/h (0 Bft)
24.12.2024 10:01 22,9 °C 2,3 °C 52 % 89 % 1025,8 hPa 0,0 l/m² 0,0 km/h (0 Bft) W-SW 248 ° 2 min 123 W/m² 0,7 °C 2,3 °C 0,0 km/h (0 Bft)
24.12.2024 10:03 22,9 °C 2,4 °C 52 % 89 % 1025,7 hPa 0,0 l/m² 0,0 km/h (0 Bft) W-SW 248 ° 2 min 127 W/m² 0,8 °C 2,4 °C 0,0 km/h (0 Bft)
24.12.2024 10:04 22,9 °C 2,4 °C 52 % 89 % 1025,8 hPa 0,0 l/m² 0,0 km/h (0 Bft) W-SW 248 ° 1 min 128 W/m² 0,8 °C 2,4 °C 0,0 km/h (0 Bft)
24.12.2024 10:05 22,9 °C 2,4 °C 52 % 89 % 1025,6 hPa 0,0 l/m² 0,3 km/h (0 Bft) W-SW 248 ° 1 min 130 W/m² 0,8 °C 2,4 °C 1,6 km/h (1 Bft)
24.12.2024 10:06 22,9 °C 2,4 °C 52 % 89 % 1025,7 hPa 0,0 l/m² 0,5 km/h (0 Bft) W-SW 248 ° 1 min 134 W/m² 0,8 °C 2,4 °C 1,6 km/h (1 Bft)
24.12.2024 10:07 22,9 °C 2,6 °C 52 % 89 % 1025,6 hPa 0,0 l/m² 0,1 km/h (0 Bft) W-SW 248 ° 1 min 135 W/m² 1,0 °C 2,6 °C 1,6 km/h (1 Bft)
24.12.2024 10:08 22,9 °C 2,6 °C 52 % 89 % 1025,6 hPa 0,0 l/m² 1,3 km/h (1 Bft) W-SW 248 ° 1 min 137 W/m² 1,0 °C 2,6 °C 4,8 km/h (1 Bft)
24.12.2024 10:09 22,9 °C 2,7 °C 52 % 89 % 1025,7 hPa 0,0 l/m² 1,6 km/h (1 Bft) W-SW 248 ° 1 min 139 W/m² 1,1 °C 2,7 °C 3,2 km/h (1 Bft)
24.12.2024 10:11 22,9 °C 2,8 °C 52 % 89 % 1025,6 hPa 0,0 l/m² 1,0 km/h (0 Bft) W-SW 248 ° 2 min 142 W/m² 1,2 °C 2,8 °C 3,2 km/h (1 Bft)
24.12.2024 10:13 22,9 °C 2,9 °C 51 % 89 % 1025,8 hPa 0,0 l/m² 1,4 km/h (1 Bft) W-SW 248 ° 2 min 148 W/m² 1,3 °C 2,9 °C 3,2 km/h (1 Bft)
24.12.2024 10:14 22,9 °C 3,1 °C 52 % 89 % 1025,8 hPa 0,0 l/m² 0,9 km/h (0 Bft) W-SW 248 ° 1 min 149 W/m² 1,5 °C 3,1 °C 3,2 km/h (1 Bft)
24.12.2024 10:15 22,9 °C 3,1 °C 52 % 88 % 1025,7 hPa 0,0 l/m² 0,3 km/h (0 Bft) W-SW 248 ° 1 min 151 W/m² 1,3 °C 3,1 °C 3,2 km/h (1 Bft)
24.12.2024 10:16 22,9 °C 3,2 °C 52 % 88 % 1025,8 hPa 0,0 l/m² 2,1 km/h (1 Bft) W-SW 248 ° 1 min 155 W/m² 1,4 °C 3,2 °C 4,8 km/h (1 Bft)
24.12.2024 10:17 22,9 °C 3,2 °C 52 % 89 % 1025,8 hPa 0,0 l/m² 2,1 km/h (1 Bft) W-SW 248 ° 1 min 156 W/m² 1,6 °C 3,2 °C 4,8 km/h (1 Bft)
24.12.2024 10:18 22,9 °C 3,3 °C 52 % 88 % 1025,8 hPa 0,0 l/m² 2,5 km/h (1 Bft) W-SW 248 ° 1 min 162 W/m² 1,5 °C 3,3 °C 4,8 km/h (1 Bft)
24.12.2024 10:19 22,9 °C 3,4 °C 52 % 88 % 1025,8 hPa 0,0 l/m² 1,8 km/h (1 Bft) W-SW 248 ° 1 min 165 W/m² 1,6 °C 3,4 °C 4,8 km/h (1 Bft)
24.12.2024 10:21 22,9 °C 3,5 °C 52 % 88 % 1025,8 hPa 0,0 l/m² 4,4 km/h (1 Bft) W-SW 238 ° 2 min 174 W/m² 1,7 °C 3,5 °C 8,0 km/h (2 Bft)
24.12.2024 10:23 23,0 °C 3,6 °C 52 % 88 % 1025,8 hPa 0,0 l/m² 6,0 km/h (2 Bft) W-SW 240 ° 2 min 181 W/m² 1,8 °C 3,6 °C 8,0 km/h (2 Bft)
24.12.2024 10:24 23,0 °C 3,7 °C 52 % 87 % 1025,7 hPa 0,0 l/m² 6,8 km/h (2 Bft) W-SW 243 ° 1 min 185 W/m² 1,7 °C 3,3 °C 8,0 km/h (2 Bft)
24.12.2024 10:25 23,0 °C 3,7 °C 52 % 87 % 1025,8 hPa 0,0 l/m² 6,7 km/h (2 Bft) W-SW 242 ° 1 min 186 W/m² 1,7 °C 3,4 °C 8,0 km/h (2 Bft)
24.12.2024 10:26 23,0 °C 3,8 °C 52 % 87 % 1025,8 hPa 0,0 l/m² 6,2 km/h (2 Bft) W-SW 243 ° 1 min 186 W/m² 1,8 °C 3,8 °C 9,7 km/h (2 Bft)
24.12.2024 10:27 23,0 °C 3,8 °C 52 % 87 % 1025,8 hPa 0,0 l/m² 4,0 km/h (1 Bft) W-SW 239 ° 1 min 186 W/m² 1,8 °C 3,8 °C 6,4 km/h (2 Bft)
24.12.2024 10:28 23,0 °C 3,9 °C 52 % 87 % 1025,7 hPa 0,0 l/m² 5,0 km/h (1 Bft) W-SW 237 ° 1 min 190 W/m² 1,9 °C 3,9 °C 6,4 km/h (2 Bft)
24.12.2024 10:29 23,0 °C 4,0 °C 52 % 87 % 1025,7 hPa 0,0 l/m² 6,2 km/h (2 Bft) W-SW 239 ° 1 min 192 W/m² 2,0 °C 4,0 °C 9,7 km/h (2 Bft)
24.12.2024 10:31 23,1 °C 4,1 °C 52 % 86 % 1025,6 hPa 0,0 l/m² 5,2 km/h (1 Bft) W-SW 237 ° 2 min 206 W/m² 2,0 °C 4,1 °C 8,0 km/h (2 Bft)
24.12.2024 10:33 23,1 °C 4,2 °C 52 % 86 % 1025,7 hPa 0,0 l/m² 6,1 km/h (2 Bft) W-SW 245 ° 2 min 216 W/m² 2,1 °C 4,2 °C 11,3 km/h (2 Bft)
24.12.2024 10:34 23,1 °C 4,3 °C 52 % 86 % 1025,8 hPa 0,0 l/m² 5,2 km/h (1 Bft) W-SW 248 ° 1 min 223 W/m² 2,2 °C 4,3 °C 8,0 km/h (2 Bft)
24.12.2024 10:35 23,1 °C 4,4 °C 51 % 86 % 1025,7 hPa 0,0 l/m² 5,2 km/h (1 Bft) W-SW 246 ° 1 min 234 W/m² 2,3 °C 4,4 °C 11,3 km/h (2 Bft)
24.12.2024 10:36 23,1 °C 4,4 °C 51 % 86 % 1025,7 hPa 0,0 l/m² 7,3 km/h (2 Bft) W-SW 245 ° 1 min 239 W/m² 2,3 °C 3,6 °C 11,3 km/h (2 Bft)
24.12.2024 10:37 23,1 °C 4,4 °C 51 % 86 % 1025,6 hPa 0,0 l/m² 5,4 km/h (2 Bft) W-SW 246 ° 1 min 246 W/m² 2,3 °C 4,4 °C 8,0 km/h (2 Bft)
24.12.2024 10:38 23,1 °C 4,6 °C 51 % 86 % 1025,7 hPa 0,0 l/m² 4,0 km/h (1 Bft) W-SW 245 ° 1 min 251 W/m² 2,5 °C 4,6 °C 6,4 km/h (2 Bft)
24.12.2024 10:39 23,1 °C 4,7 °C 51 % 86 % 1025,7 hPa 0,0 l/m² 3,9 km/h (1 Bft) W-SW 244 ° 1 min 255 W/m² 2,6 °C 4,7 °C 6,4 km/h (2 Bft)
24.12.2024 10:41 23,1 °C 4,8 °C 51 % 86 % 1025,6 hPa 0,0 l/m² 6,3 km/h (2 Bft) W-SW 250 ° 2 min 265 W/m² 2,7 °C 4,8 °C 11,3 km/h (2 Bft)
24.12.2024 10:43 23,1 °C 4,9 °C 51 % 86 % 1025,6 hPa 0,0 l/m² 8,1 km/h (2 Bft) W-SW 244 ° 2 min 260 W/m² 2,8 °C 3,4 °C 12,9 km/h (3 Bft)
24.12.2024 10:44 23,1 °C 5,0 °C 51 % 86 % 1025,6 hPa 0,0 l/m² 8,4 km/h (2 Bft) W-SW 251 ° 1 min 265 W/m² 2,9 °C 3,3 °C 12,9 km/h (3 Bft)
24.12.2024 10:45 23,1 °C 5,1 °C 51 % 86 % 1025,7 hPa 0,0 l/m² 5,7 km/h (2 Bft) W-SW 250 ° 1 min 243 W/m² 3,0 °C 5,1 °C 8,0 km/h (2 Bft)
24.12.2024 10:46 23,1 °C 5,1 °C 51 % 85 % 1025,6 hPa 0,0 l/m² 7,4 km/h (2 Bft) W-SW 244 ° 1 min 237 W/m² 2,8 °C 4,2 °C 11,3 km/h (2 Bft)
24.12.2024 10:47 23,1 °C 5,1 °C 51 % 85 % 1025,6 hPa 0,0 l/m² 6,6 km/h (2 Bft) W-SW 244 ° 1 min 192 W/m² 2,8 °C 4,9 °C 11,3 km/h (2 Bft)
24.12.2024 10:48 23,1 °C 5,1 °C 51 % 85 % 1025,6 hPa 0,0 l/m² 8,5 km/h (2 Bft) W-SW 246 ° 1 min 183 W/m² 2,8 °C 3,3 °C 12,9 km/h (3 Bft)
24.12.2024 10:49 23,1 °C 5,1 °C 51 % 85 % 1025,7 hPa 0,0 l/m² 7,5 km/h (2 Bft) W-SW 255 ° 1 min 149 W/m² 2,8 °C 4,1 °C 11,3 km/h (2 Bft)
24.12.2024 10:51 23,1 °C 4,9 °C 51 % 85 % 1025,6 hPa 0,0 l/m² 4,6 km/h (1 Bft) W-SW 256 ° 2 min 114 W/m² 2,6 °C 4,9 °C 8,0 km/h (2 Bft)
24.12.2024 10:53 23,1 °C 4,9 °C 51 % 85 % 1025,6 hPa 0,0 l/m² 5,8 km/h (2 Bft) W 271 ° 2 min 98 W/m² 2,6 °C 4,9 °C 11,3 km/h (2 Bft)
24.12.2024 10:54 23,1 °C 4,8 °C 51 % 85 % 1025,6 hPa 0,0 l/m² 5,0 km/h (1 Bft) W 265 ° 1 min 91 W/m² 2,5 °C 4,8 °C 6,4 km/h (2 Bft)
24.12.2024 10:55 23,1 °C 4,8 °C 51 % 85 % 1025,5 hPa 0,0 l/m² 6,0 km/h (2 Bft) W 265 ° 1 min 88 W/m² 2,5 °C 4,8 °C 9,7 km/h (2 Bft)
24.12.2024 10:56 23,1 °C 4,8 °C 52 % 85 % 1025,5 hPa 0,0 l/m² 6,6 km/h (2 Bft) W 265 ° 1 min 81 W/m² 2,5 °C 4,6 °C 11,3 km/h (2 Bft)
24.12.2024 10:57 23,1 °C 4,7 °C 52 % 85 % 1025,5 hPa 0,0 l/m² 5,9 km/h (2 Bft) W 264 ° 1 min 83 W/m² 2,4 °C 4,7 °C 9,7 km/h (2 Bft)
24.12.2024 10:58 23,0 °C 4,7 °C 52 % 85 % 1025,6 hPa 0,0 l/m² 4,6 km/h (1 Bft) W 264 ° 1 min 95 W/m² 2,4 °C 4,7 °C 6,4 km/h (2 Bft)
24.12.2024 10:59 23,0 °C 4,6 °C 52 % 85 % 1025,5 hPa 0,0 l/m² 5,8 km/h (2 Bft) W 262 ° 1 min 109 W/m² 2,3 °C 4,6 °C 9,7 km/h (2 Bft)
24.12.2024 11:01 22,9 °C 4,6 °C 52 % 85 % 1025,6 hPa 0,0 l/m² 5,0 km/h (1 Bft) W 266 ° 2 min 107 W/m² 2,3 °C 4,6 °C 9,7 km/h (2 Bft)
24.12.2024 11:03 22,9 °C 4,6 °C 52 % 86 % 1025,6 hPa 0,0 l/m² 3,6 km/h (1 Bft) W 267 ° 2 min 116 W/m² 2,5 °C 4,6 °C 6,4 km/h (2 Bft)
24.12.2024 11:04 22,9 °C 4,6 °C 52 % 86 % 1025,6 hPa 0,0 l/m² 6,3 km/h (2 Bft) W 268 ° 1 min 141 W/m² 2,5 °C 4,6 °C 9,7 km/h (2 Bft)
24.12.2024 11:05 22,9 °C 4,5 °C 52 % 86 % 1025,7 hPa 0,0 l/m² 7,2 km/h (2 Bft) W 271 ° 1 min 155 W/m² 2,4 °C 3,8 °C 11,3 km/h (2 Bft)
24.12.2024 11:06 22,9 °C 4,6 °C 52 % 87 % 1025,7 hPa 0,0 l/m² 6,8 km/h (2 Bft) W 259 ° 1 min 151 W/m² 2,6 °C 4,3 °C 9,7 km/h (2 Bft)
24.12.2024 11:07 22,9 °C 4,6 °C 52 % 87 % 1025,8 hPa 0,0 l/m² 8,0 km/h (2 Bft) W 263 ° 1 min 141 W/m² 2,6 °C 3,2 °C 11,3 km/h (2 Bft)
24.12.2024 11:08 22,8 °C 4,6 °C 52 % 87 % 1025,7 hPa 0,0 l/m² 5,2 km/h (1 Bft) W 263 ° 1 min 123 W/m² 2,6 °C 4,6 °C 6,4 km/h (2 Bft)
24.12.2024 11:09 22,8 °C 4,6 °C 53 % 87 % 1025,7 hPa 0,0 l/m² 6,3 km/h (2 Bft) W 259 ° 1 min 134 W/m² 2,6 °C 4,6 °C 9,7 km/h (2 Bft)
24.12.2024 11:11 22,8 °C 4,7 °C 53 % 86 % 1025,7 hPa 0,0 l/m² 4,1 km/h (1 Bft) W 259 ° 2 min 130 W/m² 2,6 °C 4,7 °C 6,4 km/h (2 Bft)
24.12.2024 11:13 22,8 °C 4,7 °C 53 % 87 % 1025,7 hPa 0,0 l/m² 3,7 km/h (1 Bft) W 259 ° 2 min 130 W/m² 2,7 °C 4,7 °C 6,4 km/h (2 Bft)
24.12.2024 11:14 22,8 °C 4,7 °C 53 % 87 % 1025,7 hPa 0,0 l/m² 6,0 km/h (2 Bft) W-SW 241 ° 1 min 135 W/m² 2,7 °C 4,7 °C 8,0 km/h (2 Bft)
24.12.2024 11:15 22,8 °C 4,7 °C 53 % 86 % 1025,7 hPa 0,0 l/m² 5,6 km/h (2 Bft) W-SW 237 ° 1 min 137 W/m² 2,6 °C 4,7 °C 8,0 km/h (2 Bft)
24.12.2024 11:16 22,7 °C 4,7 °C 53 % 87 % 1025,7 hPa 0,0 l/m² 4,2 km/h (1 Bft) SW 236 ° 1 min 137 W/m² 2,7 °C 4,7 °C 6,4 km/h (2 Bft)
24.12.2024 11:17 22,8 °C 4,7 °C 53 % 86 % 1025,7 hPa 0,0 l/m² 4,9 km/h (1 Bft) W-SW 237 ° 1 min 130 W/m² 2,6 °C 4,7 °C 6,4 km/h (2 Bft)
24.12.2024 11:18 22,7 °C 4,6 °C 53 % 86 % 1025,8 hPa 0,0 l/m² 6,1 km/h (2 Bft) SW 236 ° 1 min 121 W/m² 2,5 °C 4,6 °C 8,0 km/h (2 Bft)
24.12.2024 11:19 22,7 °C 4,6 °C 53 % 86 % 1025,7 hPa 0,0 l/m² 7,3 km/h (2 Bft) SW 229 ° 1 min 128 W/m² 2,5 °C 3,8 °C 8,0 km/h (2 Bft)
24.12.2024 11:21 22,7 °C 4,6 °C 53 % 86 % 1025,7 hPa 0,0 l/m² 5,8 km/h (2 Bft) SW 230 ° 2 min 114 W/m² 2,5 °C 4,6 °C 8,0 km/h (2 Bft)
24.12.2024 11:23 22,7 °C 4,5 °C 53 % 86 % 1025,7 hPa 0,0 l/m² 4,8 km/h (1 Bft) SW 229 ° 2 min 84 W/m² 2,4 °C 4,5 °C 6,4 km/h (2 Bft)
24.12.2024 11:24 22,7 °C 4,4 °C 53 % 86 % 1025,7 hPa 0,0 l/m² 5,6 km/h (2 Bft) SW 229 ° 1 min 81 W/m² 2,3 °C 4,4 °C 6,4 km/h (2 Bft)
24.12.2024 11:25 22,7 °C 4,4 °C 53 % 86 % 1025,7 hPa 0,0 l/m² 5,8 km/h (2 Bft) SW 229 ° 1 min 74 W/m² 2,3 °C 4,4 °C 8,0 km/h (2 Bft)
24.12.2024 11:26 22,7 °C 4,4 °C 53 % 86 % 1025,7 hPa 0,0 l/m² 7,6 km/h (2 Bft) SW 225 ° 1 min 74 W/m² 2,3 °C 3,3 °C 9,7 km/h (2 Bft)
24.12.2024 11:27 22,7 °C 4,3 °C 53 % 86 % 1025,7 hPa 0,0 l/m² 7,2 km/h (2 Bft) SW 215 ° 1 min 81 W/m² 2,2 °C 3,6 °C 9,7 km/h (2 Bft)
24.12.2024 11:28 22,7 °C 4,2 °C 53 % 86 % 1025,8 hPa 0,0 l/m² 7,8 km/h (2 Bft) S-SW 206 ° 1 min 114 W/m² 2,1 °C 2,9 °C 9,7 km/h (2 Bft)
24.12.2024 11:29 22,6 °C 4,1 °C 53 % 86 % 1025,7 hPa 0,0 l/m² 8,2 km/h (2 Bft) S-SW 200 ° 1 min 90 W/m² 2,0 °C 2,5 °C 11,3 km/h (2 Bft)
24.12.2024 11:31 22,6 °C 3,8 °C 53 % 86 % 1025,8 hPa 0,0 l/m² 5,4 km/h (2 Bft) S-SW 200 ° 2 min 79 W/m² 1,7 °C 3,8 °C 8,0 km/h (2 Bft)
24.12.2024 11:32 22,6 °C 3,8 °C 53 % 87 % 1025,8 hPa 0,0 l/m² 5,4 km/h (2 Bft) S-SW 200 ° 1 min 81 W/m² 1,8 °C 3,8 °C 6,4 km/h (2 Bft)
24.12.2024 11:33 22,6 °C 3,8 °C 53 % 87 % 1025,8 hPa 0,0 l/m² 7,0 km/h (2 Bft) S-SW 200 ° 1 min 109 W/m² 1,8 °C 3,3 °C 9,7 km/h (2 Bft)
24.12.2024 11:34 22,6 °C 3,8 °C 54 % 87 % 1025,8 hPa 0,0 l/m² 7,7 km/h (2 Bft) S-SW 202 ° 1 min 107 W/m² 1,8 °C 2,6 °C 9,7 km/h (2 Bft)
24.12.2024 11:35 22,6 °C 3,7 °C 53 % 87 % 1025,8 hPa 0,0 l/m² 7,4 km/h (2 Bft) S-SW 202 ° 1 min 100 W/m² 1,7 °C 2,8 °C 9,7 km/h (2 Bft)
24.12.2024 11:36 22,6 °C 3,8 °C 52 % 87 % 1025,7 hPa 0,0 l/m² 7,8 km/h (2 Bft) S-SW 201 ° 1 min 197 W/m² 1,8 °C 2,5 °C 9,7 km/h (2 Bft)
24.12.2024 11:37 22,6 °C 3,8 °C 52 % 87 % 1025,7 hPa 0,0 l/m² 7,7 km/h (2 Bft) S-SW 200 ° 1 min 176 W/m² 1,8 °C 2,6 °C 9,7 km/h (2 Bft)
24.12.2024 11:38 22,6 °C 3,8 °C 52 % 87 % 1025,7 hPa 0,0 l/m² 7,5 km/h (2 Bft) S-SW 202 ° 1 min 221 W/m² 1,8 °C 2,8 °C 8,0 km/h (2 Bft)
24.12.2024 11:39 22,6 °C 3,9 °C 52 % 87 % 1025,8 hPa 0,0 l/m² 6,1 km/h (2 Bft) S-SW 202 ° 1 min 221 W/m² 1,9 °C 3,9 °C 8,0 km/h (2 Bft)
24.12.2024 11:41 22,6 °C 4,1 °C 52 % 87 % 1025,7 hPa 0,0 l/m² 7,0 km/h (2 Bft) S-SW 201 ° 2 min 239 W/m² 2,1 °C 3,6 °C 9,7 km/h (2 Bft)
24.12.2024 11:43 22,6 °C 4,2 °C 51 % 87 % 1025,7 hPa 0,0 l/m² 6,8 km/h (2 Bft) S-SW 198 ° 2 min 248 W/m² 2,2 °C 3,8 °C 9,7 km/h (2 Bft)
24.12.2024 11:44 22,6 °C 4,2 °C 51 % 87 % 1025,7 hPa 0,0 l/m² 4,5 km/h (1 Bft) S-SW 198 ° 1 min 111 W/m² 2,2 °C 4,2 °C 6,4 km/h (2 Bft)
24.12.2024 11:45 22,6 °C 4,3 °C 51 % 87 % 1025,8 hPa 0,0 l/m² 6,4 km/h (2 Bft) S-SW 198 ° 1 min 111 W/m² 2,3 °C 4,3 °C 8,0 km/h (2 Bft)
24.12.2024 11:46 22,6 °C 4,4 °C 51 % 87 % 1025,8 hPa 0,0 l/m² 6,9 km/h (2 Bft) S-SW 197 ° 1 min 111 W/m² 2,4 °C 4,0 °C 9,7 km/h (2 Bft)
24.12.2024 11:47 22,6 °C 4,4 °C 51 % 87 % 1025,8 hPa 0,0 l/m² 5,9 km/h (2 Bft) S-SW 197 ° 1 min 111 W/m² 2,4 °C 4,4 °C 9,7 km/h (2 Bft)
24.12.2024 11:48 22,6 °C 4,4 °C 51 % 88 % 1025,9 hPa 0,0 l/m² 8,9 km/h (2 Bft) S-SW 192 ° 1 min 142 W/m² 2,6 °C 2,2 °C 11,3 km/h (2 Bft)
24.12.2024 11:49 22,6 °C 4,4 °C 51 % 87 % 1025,8 hPa 0,0 l/m² 8,3 km/h (2 Bft) S-SW 196 ° 1 min 146 W/m² 2,4 °C 2,7 °C 11,3 km/h (2 Bft)
24.12.2024 11:50 22,6 °C 4,4 °C 51 % 87 % 1025,9 hPa 0,0 l/m² 7,8 km/h (2 Bft) S-SW 197 ° 1 min 148 W/m² 2,4 °C 3,1 °C 11,3 km/h (2 Bft)
24.12.2024 11:52 22,6 °C 4,3 °C 51 % 87 % 1025,9 hPa 0,0 l/m² 9,4 km/h (2 Bft) S 186 ° 2 min 127 W/m² 2,3 °C 1,7 °C 12,9 km/h (3 Bft)
24.12.2024 11:53 22,6 °C 4,3 °C 51 % 87 % 1026,0 hPa 0,0 l/m² 9,1 km/h (2 Bft) S 188 ° 1 min 142 W/m² 2,3 °C 2,0 °C 11,3 km/h (2 Bft)
24.12.2024 11:54 22,6 °C 4,3 °C 51 % 87 % 1026,0 hPa 0,0 l/m² 7,6 km/h (2 Bft) S-SW 205 ° 1 min 151 W/m² 2,3 °C 3,2 °C 11,3 km/h (2 Bft)
24.12.2024 11:55 22,6 °C 4,3 °C 51 % 87 % 1026,1 hPa 0,0 l/m² 8,3 km/h (2 Bft) S-SW 207 ° 1 min 151 W/m² 2,3 °C 2,6 °C 11,3 km/h (2 Bft)
24.12.2024 11:56 22,6 °C 4,3 °C 51 % 87 % 1026,1 hPa 0,0 l/m² 7,9 km/h (2 Bft) S-SW 202 ° 1 min 151 W/m² 2,3 °C 3,0 °C 9,7 km/h (2 Bft)
24.12.2024 11:57 22,6 °C 4,3 °C 51 % 88 % 1026,0 hPa 0,0 l/m² 9,8 km/h (2 Bft) S-SW 198 ° 1 min 155 W/m² 2,5 °C 1,4 °C 12,9 km/h (3 Bft)
24.12.2024 11:58 22,6 °C 4,4 °C 51 % 88 % 1026,0 hPa 0,0 l/m² 9,8 km/h (2 Bft) S-SW 205 ° 1 min 155 W/m² 2,6 °C 1,6 °C 11,3 km/h (2 Bft)
24.12.2024 11:59 22,6 °C 4,3 °C 51 % 87 % 1025,9 hPa 0,0 l/m² 10,7 km/h (2 Bft) S-SW 213 ° 1 min 167 W/m² 2,3 °C 0,8 °C 12,9 km/h (3 Bft)
24.12.2024 12:00 22,6 °C 4,4 °C 51 % 87 % 1026,0 hPa 0,0 l/m² 8,6 km/h (2 Bft) S-SW 205 ° 1 min 162 W/m² 2,4 °C 2,5 °C 11,3 km/h (2 Bft)
24.12.2024 12:01 22,6 °C 4,4 °C 51 % 88 % 1026,0 hPa 0,0 l/m² 7,1 km/h (2 Bft) S-SW 213 ° 1 min 153 W/m² 2,6 °C 3,8 °C 8,0 km/h (2 Bft)
24.12.2024 12:02 22,6 °C 4,5 °C 51 % 88 % 1026,0 hPa 0,0 l/m² 7,1 km/h (2 Bft) SW 217 ° 1 min 171 W/m² 2,7 °C 3,9 °C 11,3 km/h (2 Bft)
24.12.2024 12:03 22,6 °C 4,5 °C 51 % 88 % 1025,9 hPa 0,0 l/m² 8,8 km/h (2 Bft) SW 221 ° 1 min 204 W/m² 2,7 °C 2,4 °C 9,7 km/h (2 Bft)
24.12.2024 12:04 22,6 °C 4,5 °C 51 % 87 % 1025,9 hPa 0,0 l/m² 7,1 km/h (2 Bft) W-SW 238 ° 1 min 165 W/m² 2,5 °C 3,9 °C 9,7 km/h (2 Bft)
24.12.2024 12:05 22,6 °C 4,6 °C 51 % 87 % 1026,0 hPa 0,0 l/m² 7,8 km/h (2 Bft) W-SW 247 ° 1 min 214 W/m² 2,6 °C 3,4 °C 12,9 km/h (3 Bft)
24.12.2024 12:06 22,6 °C 4,6 °C 51 % 87 % 1026,0 hPa 0,0 l/m² 8,2 km/h (2 Bft) SW 232 ° 1 min 267 W/m² 2,6 °C 3,0 °C 11,3 km/h (2 Bft)
24.12.2024 12:07 22,6 °C 4,7 °C 51 % 87 % 1026,0 hPa 0,0 l/m² 5,0 km/h (1 Bft) SW 232 ° 1 min 172 W/m² 2,7 °C 4,7 °C 8,0 km/h (2 Bft)
24.12.2024 12:08 22,5 °C 4,8 °C 51 % 87 % 1026,0 hPa 0,0 l/m² 5,9 km/h (2 Bft) SW 234 ° 1 min 165 W/m² 2,8 °C 4,8 °C 6,4 km/h (2 Bft)
24.12.2024 12:09 22,6 °C 4,9 °C 51 % 87 % 1026,0 hPa 0,0 l/m² 6,0 km/h (2 Bft) SW 231 ° 1 min 165 W/m² 2,9 °C 4,9 °C 9,7 km/h (2 Bft)
24.12.2024 12:10 22,5 °C 4,9 °C 51 % 87 % 1026,0 hPa 0,0 l/m² 7,2 km/h (2 Bft) SW 230 ° 1 min 214 W/m² 2,9 °C 4,2 °C 12,9 km/h (3 Bft)
24.12.2024 12:11 22,5 °C 5,0 °C 51 % 86 % 1026,0 hPa 0,0 l/m² 6,7 km/h (2 Bft) SW 232 ° 1 min 144 W/m² 2,9 °C 4,8 °C 9,7 km/h (2 Bft)
24.12.2024 12:12 22,5 °C 5,1 °C 51 % 86 % 1026,2 hPa 0,0 l/m² 5,6 km/h (2 Bft) W-SW 237 ° 1 min 171 W/m² 3,0 °C 5,1 °C 11,3 km/h (2 Bft)
24.12.2024 12:13 22,5 °C 5,1 °C 51 % 86 % 1026,1 hPa 0,0 l/m² 8,6 km/h (2 Bft) SW 232 ° 1 min 192 W/m² 3,0 °C 3,2 °C 11,3 km/h (2 Bft)
24.12.2024 12:14 22,5 °C 5,1 °C 51 % 86 % 1026,0 hPa 0,0 l/m² 8,5 km/h (2 Bft) SW 234 ° 1 min 151 W/m² 3,0 °C 3,3 °C 11,3 km/h (2 Bft)
24.12.2024 12:15 22,5 °C 5,1 °C 51 % 85 % 1026,1 hPa 0,0 l/m² 10,2 km/h (2 Bft) SW 236 ° 1 min 199 W/m² 2,8 °C 2,0 °C 14,5 km/h (3 Bft)
24.12.2024 12:16 22,5 °C 5,1 °C 51 % 85 % 1026,0 hPa 0,0 l/m² 9,7 km/h (2 Bft) SW 227 ° 1 min 248 W/m² 2,8 °C 2,4 °C 12,9 km/h (3 Bft)
24.12.2024 12:17 22,4 °C 5,2 °C 51 % 85 % 1026,0 hPa 0,0 l/m² 9,1 km/h (2 Bft) SW 232 ° 1 min 158 W/m² 2,9 °C 2,9 °C 11,3 km/h (2 Bft)
24.12.2024 12:18 22,5 °C 5,2 °C 52 % 85 % 1026,1 hPa 0,0 l/m² 7,6 km/h (2 Bft) SW 236 ° 1 min 148 W/m² 2,9 °C 4,1 °C 9,7 km/h (2 Bft)
24.12.2024 12:19 22,4 °C 5,2 °C 52 % 85 % 1026,0 hPa 0,0 l/m² 7,9 km/h (2 Bft) W-SW 238 ° 1 min 174 W/m² 2,9 °C 3,9 °C 9,7 km/h (2 Bft)
24.12.2024 12:20 22,5 °C 5,2 °C 52 % 85 % 1026,0 hPa 0,0 l/m² 6,5 km/h (2 Bft) SW 232 ° 1 min 151 W/m² 2,9 °C 5,1 °C 9,7 km/h (2 Bft)
24.12.2024 12:21 22,4 °C 5,2 °C 52 % 85 % 1026,0 hPa 0,0 l/m² 7,6 km/h (2 Bft) SW 234 ° 1 min 118 W/m² 2,9 °C 4,1 °C 11,3 km/h (2 Bft)
24.12.2024 12:22 22,4 °C 5,2 °C 52 % 85 % 1026,0 hPa 0,0 l/m² 6,4 km/h (2 Bft) SW 233 ° 1 min 118 W/m² 2,9 °C 5,2 °C 8,0 km/h (2 Bft)
24.12.2024 12:23 22,4 °C 5,1 °C 52 % 85 % 1026,1 hPa 0,0 l/m² 7,9 km/h (2 Bft) W-SW 238 ° 1 min 109 W/m² 2,8 °C 3,8 °C 9,7 km/h (2 Bft)
24.12.2024 12:24 22,4 °C 5,1 °C 52 % 85 % 1026,0 hPa 0,0 l/m² 6,6 km/h (2 Bft) W-SW 238 ° 1 min 90 W/m² 2,8 °C 4,9 °C 9,7 km/h (2 Bft)
24.12.2024 12:25 22,4 °C 5,0 °C 52 % 85 % 1025,9 hPa 0,0 l/m² 6,6 km/h (2 Bft) W-SW 237 ° 1 min 105 W/m² 2,7 °C 4,8 °C 8,0 km/h (2 Bft)
24.12.2024 12:26 22,4 °C 4,9 °C 52 % 85 % 1026,0 hPa 0,0 l/m² 6,1 km/h (2 Bft) SW 236 ° 1 min 105 W/m² 2,6 °C 4,9 °C 6,4 km/h (2 Bft)
24.12.2024 12:27 22,4 °C 5,0 °C 52 % 85 % 1026,0 hPa 0,0 l/m² 7,4 km/h (2 Bft) SW 236 ° 1 min 105 W/m² 2,7 °C 4,1 °C 9,7 km/h (2 Bft)
24.12.2024 12:28 22,4 °C 5,0 °C 52 % 85 % 1025,9 hPa 0,0 l/m² 7,8 km/h (2 Bft) SW 236 ° 1 min 230 W/m² 2,7 °C 3,8 °C 11,3 km/h (2 Bft)
24.12.2024 12:29 22,4 °C 5,1 °C 52 % 85 % 1026,0 hPa 0,0 l/m² 5,6 km/h (2 Bft) SW 234 ° 1 min 232 W/m² 2,8 °C 5,1 °C 8,0 km/h (2 Bft)
24.12.2024 12:30 22,4 °C 5,1 °C 52 % 85 % 1026,0 hPa 0,0 l/m² 8,1 km/h (2 Bft) SW 226 ° 1 min 239 W/m² 2,8 °C 3,6 °C 9,7 km/h (2 Bft)
24.12.2024 12:31 22,4 °C 5,2 °C 52 % 85 % 1025,9 hPa 0,0 l/m² 6,6 km/h (2 Bft) SW 226 ° 1 min 241 W/m² 2,9 °C 5,0 °C 8,0 km/h (2 Bft)
24.12.2024 12:32 22,4 °C 5,2 °C 52 % 85 % 1025,9 hPa 0,0 l/m² 8,3 km/h (2 Bft) SW 221 ° 1 min 220 W/m² 2,9 °C 3,6 °C 9,7 km/h (2 Bft)
24.12.2024 12:33 22,4 °C 5,2 °C 52 % 85 % 1026,0 hPa 0,0 l/m² 8,3 km/h (2 Bft) SW 217 ° 1 min 246 W/m² 2,9 °C 3,6 °C 9,7 km/h (2 Bft)
24.12.2024 12:34 22,4 °C 5,2 °C 52 % 85 % 1026,0 hPa 0,0 l/m² 8,2 km/h (2 Bft) SW 216 ° 1 min 237 W/m² 2,9 °C 3,6 °C 9,7 km/h (2 Bft)
24.12.2024 12:35 22,4 °C 5,2 °C 52 % 86 % 1026,0 hPa 0,0 l/m² 8,3 km/h (2 Bft) S-SW 209 ° 1 min 246 W/m² 3,1 °C 3,6 °C 11,3 km/h (2 Bft)
24.12.2024 12:36 22,4 °C 5,2 °C 52 % 86 % 1025,7 hPa 0,0 l/m² 6,8 km/h (2 Bft) S-SW 210 ° 1 min 230 W/m² 3,1 °C 4,9 °C 8,0 km/h (2 Bft)
24.12.2024 12:37 22,4 °C 5,2 °C 52 % 86 % 1025,8 hPa 0,0 l/m² 8,3 km/h (2 Bft) S-SW 213 ° 1 min 214 W/m² 3,1 °C 3,6 °C 9,7 km/h (2 Bft)
24.12.2024 12:38 22,4 °C 5,1 °C 52 % 86 % 1025,8 hPa 0,0 l/m² 8,6 km/h (2 Bft) S-SW 213 ° 1 min 156 W/m² 3,0 °C 3,2 °C 11,3 km/h (2 Bft)
24.12.2024 12:39 22,4 °C 5,0 °C 52 % 86 % 1025,7 hPa 0,0 l/m² 8,9 km/h (2 Bft) S-SW 213 ° 1 min 237 W/m² 2,9 °C 2,9 °C 11,3 km/h (2 Bft)
24.12.2024 12:40 22,4 °C 5,1 °C 52 % 86 % 1025,8 hPa 0,0 l/m² 8,0 km/h (2 Bft) SW 215 ° 1 min 239 W/m² 3,0 °C 3,7 °C 9,7 km/h (2 Bft)
24.12.2024 12:41 22,4 °C 5,1 °C 52 % 86 % 1025,8 hPa 0,0 l/m² 7,7 km/h (2 Bft) S-SW 213 ° 1 min 251 W/m² 3,0 °C 4,0 °C 9,7 km/h (2 Bft)
24.12.2024 12:42 22,4 °C 5,1 °C 52 % 86 % 1025,8 hPa 0,0 l/m² 8,9 km/h (2 Bft) SW 214 ° 1 min 167 W/m² 3,0 °C 3,0 °C 9,7 km/h (2 Bft)
24.12.2024 12:43 22,4 °C 5,1 °C 52 % 86 % 1026,1 hPa 0,0 l/m² 9,3 km/h (2 Bft) S-SW 213 ° 1 min 179 W/m² 3,0 °C 2,7 °C 12,9 km/h (3 Bft)
24.12.2024 12:44 22,4 °C 5,0 °C 52 % 86 % 1026,2 hPa 0,0 l/m² 11,1 km/h (2 Bft) SW 219 ° 1 min 120 W/m² 2,9 °C 1,3 °C 12,9 km/h (3 Bft)
24.12.2024 12:47 22,4 °C 4,8 °C 52 % 86 % 1026,2 hPa 0,0 l/m² 8,5 km/h (2 Bft) SW 214 ° 3 min 127 W/m² 2,7 °C 3,0 °C 12,9 km/h (3 Bft)
24.12.2024 12:48 22,4 °C 4,8 °C 52 % 87 % 1026,3 hPa 0,0 l/m² 8,5 km/h (2 Bft) S-SW 210 ° 1 min 137 W/m² 2,8 °C 3,0 °C 11,3 km/h (2 Bft)
24.12.2024 12:49 22,4 °C 4,8 °C 52 % 87 % 1026,3 hPa 0,0 l/m² 9,5 km/h (2 Bft) S-SW 208 ° 1 min 178 W/m² 2,8 °C 2,2 °C 11,3 km/h (2 Bft)
24.12.2024 12:50 22,4 °C 4,8 °C 52 % 87 % 1026,2 hPa 0,0 l/m² 8,3 km/h (2 Bft) S-SW 213 ° 1 min 134 W/m² 2,8 °C 3,1 °C 11,3 km/h (2 Bft)
24.12.2024 12:51 22,4 °C 4,8 °C 52 % 87 % 1026,3 hPa 0,0 l/m² 9,3 km/h (2 Bft) S-SW 213 ° 1 min 135 W/m² 2,8 °C 2,4 °C 11,3 km/h (2 Bft)
24.12.2024 12:52 22,4 °C 4,8 °C 53 % 87 % 1026,3 hPa 0,0 l/m² 8,1 km/h (2 Bft) SW 214 ° 1 min 123 W/m² 2,8 °C 3,3 °C 9,7 km/h (2 Bft)
24.12.2024 12:53 22,4 °C 4,8 °C 53 % 87 % 1026,3 hPa 0,0 l/m² 5,6 km/h (2 Bft) SW 214 ° 1 min 125 W/m² 2,8 °C 4,8 °C 8,0 km/h (2 Bft)
24.12.2024 12:54 22,4 °C 4,8 °C 53 % 87 % 1026,4 hPa 0,0 l/m² 4,7 km/h (1 Bft) SW 214 ° 1 min 134 W/m² 2,8 °C 4,8 °C 6,4 km/h (2 Bft)
24.12.2024 12:55 22,4 °C 4,8 °C 53 % 87 % 1026,3 hPa 0,0 l/m² 6,4 km/h (2 Bft) SW 216 ° 1 min 90 W/m² 2,8 °C 4,8 °C 9,7 km/h (2 Bft)
24.12.2024 12:56 22,4 °C 4,8 °C 53 % 87 % 1026,4 hPa 0,0 l/m² 5,0 km/h (1 Bft) SW 216 ° 1 min 81 W/m² 2,8 °C 4,8 °C 8,0 km/h (2 Bft)
24.12.2024 12:57 22,4 °C 4,8 °C 53 % 87 % 1026,4 hPa 0,0 l/m² 5,4 km/h (2 Bft) SW 216 ° 1 min 148 W/m² 2,8 °C 4,8 °C 6,4 km/h (2 Bft)
24.12.2024 12:58 22,4 °C 4,8 °C 53 % 87 % 1026,4 hPa 0,0 l/m² 6,1 km/h (2 Bft) SW 216 ° 1 min 116 W/m² 2,8 °C 4,8 °C 9,7 km/h (2 Bft)
24.12.2024 12:59 22,4 °C 4,9 °C 53 % 87 % 1026,4 hPa 0,0 l/m² 7,5 km/h (2 Bft) SW 216 ° 1 min 171 W/m² 2,9 °C 3,9 °C 8,0 km/h (2 Bft)
24.12.2024 13:00 22,4 °C 4,9 °C 53 % 87 % 1026,5 hPa 0,0 l/m² 3,8 km/h (1 Bft) SW 217 ° 1 min 120 W/m² 2,9 °C 4,9 °C 8,0 km/h (2 Bft)
24.12.2024 13:01 22,4 °C 4,9 °C 53 % 87 % 1026,6 hPa 0,0 l/m² 2,7 km/h (1 Bft) SW 217 ° 1 min 93 W/m² 2,9 °C 4,9 °C 4,8 km/h (1 Bft)
24.12.2024 13:02 22,3 °C 4,9 °C 53 % 87 % 1026,5 hPa 0,0 l/m² 3,8 km/h (1 Bft) SW 217 ° 1 min 113 W/m² 2,9 °C 4,9 °C 6,4 km/h (2 Bft)
24.12.2024 13:03 22,3 °C 5,0 °C 53 % 87 % 1026,7 hPa 0,0 l/m² 5,9 km/h (2 Bft) SW 218 ° 1 min 105 W/m² 3,0 °C 5,0 °C 8,0 km/h (2 Bft)
24.12.2024 13:04 22,3 °C 5,1 °C 53 % 87 % 1026,7 hPa 0,0 l/m² 6,8 km/h (2 Bft) SW 224 ° 1 min 102 W/m² 3,1 °C 4,8 °C 8,0 km/h (2 Bft)
24.12.2024 13:05 22,3 °C 5,1 °C 53 % 87 % 1026,7 hPa 0,0 l/m² 6,3 km/h (2 Bft) SW 224 ° 1 min 105 W/m² 3,1 °C 5,1 °C 9,7 km/h (2 Bft)
24.12.2024 13:07 22,3 °C 5,0 °C 53 % 86 % 1026,6 hPa 0,0 l/m² 5,9 km/h (2 Bft) SW 224 ° 2 min 113 W/m² 2,9 °C 5,0 °C 8,0 km/h (2 Bft)
24.12.2024 13:08 22,3 °C 5,0 °C 53 % 86 % 1026,6 hPa 0,0 l/m² 7,4 km/h (2 Bft) S-SW 213 ° 1 min 109 W/m² 2,9 °C 4,1 °C 11,3 km/h (2 Bft)
24.12.2024 13:09 22,3 °C 5,0 °C 53 % 86 % 1026,7 hPa 0,0 l/m² 9,4 km/h (2 Bft) SW 220 ° 1 min 105 W/m² 2,9 °C 2,5 °C 12,9 km/h (3 Bft)
24.12.2024 13:10 22,3 °C 5,1 °C 53 % 86 % 1026,8 hPa 0,0 l/m² 8,2 km/h (2 Bft) SW 232 ° 1 min 102 W/m² 3,0 °C 3,5 °C 12,9 km/h (3 Bft)
24.12.2024 13:12 22,3 °C 5,1 °C 52 % 87 % 1026,8 hPa 0,0 l/m² 7,4 km/h (2 Bft) SW 221 ° 2 min 111 W/m² 3,1 °C 4,2 °C 11,3 km/h (2 Bft)
24.12.2024 13:13 22,3 °C 5,1 °C 52 % 87 % 1026,8 hPa 0,0 l/m² 6,7 km/h (2 Bft) SW 228 ° 1 min 125 W/m² 3,1 °C 4,9 °C 9,7 km/h (2 Bft)
24.12.2024 13:14 22,3 °C 5,1 °C 52 % 87 % 1026,7 hPa 0,0 l/m² 8,9 km/h (2 Bft) SW 235 ° 1 min 116 W/m² 3,1 °C 3,0 °C 14,5 km/h (3 Bft)
24.12.2024 13:15 22,3 °C 5,1 °C 52 % 87 % 1026,7 hPa 0,0 l/m² 8,6 km/h (2 Bft) SW 234 ° 1 min 116 W/m² 3,1 °C 3,2 °C 12,9 km/h (3 Bft)
24.12.2024 13:16 22,3 °C 5,2 °C 52 % 86 % 1026,7 hPa 0,0 l/m² 7,1 km/h (2 Bft) W-SW 241 ° 1 min 116 W/m² 3,1 °C 4,6 °C 9,7 km/h (2 Bft)
24.12.2024 13:17 22,3 °C 5,2 °C 52 % 86 % 1026,7 hPa 0,0 l/m² 9,7 km/h (2 Bft) SW 229 ° 1 min 130 W/m² 3,1 °C 2,5 °C 12,9 km/h (3 Bft)
24.12.2024 13:18 22,3 °C 5,2 °C 53 % 86 % 1026,7 hPa 0,0 l/m² 7,2 km/h (2 Bft) SW 230 ° 1 min 114 W/m² 3,1 °C 4,5 °C 9,7 km/h (2 Bft)
24.12.2024 13:19 22,3 °C 5,2 °C 53 % 86 % 1026,8 hPa 0,0 l/m² 6,5 km/h (2 Bft) SW 230 ° 1 min 121 W/m² 3,1 °C 5,1 °C 8,0 km/h (2 Bft)
24.12.2024 13:20 22,3 °C 5,3 °C 53 % 87 % 1026,8 hPa 0,0 l/m² 7,0 km/h (2 Bft) W-SW 240 ° 1 min 118 W/m² 3,3 °C 4,8 °C 12,9 km/h (3 Bft)
24.12.2024 13:21 22,3 °C 5,3 °C 53 % 86 % 1026,8 hPa 0,0 l/m² 11,3 km/h (2 Bft) W-SW 241 ° 1 min 114 W/m² 3,2 °C 1,5 °C 14,5 km/h (3 Bft)
24.12.2024 13:22 22,3 °C 5,3 °C 53 % 86 % 1026,8 hPa 0,0 l/m² 10,5 km/h (2 Bft) SW 232 ° 1 min 118 W/m² 3,2 °C 2,1 °C 14,5 km/h (3 Bft)
24.12.2024 13:23 22,3 °C 5,3 °C 53 % 86 % 1026,8 hPa 0,0 l/m² 8,1 km/h (2 Bft) SW 232 ° 1 min 109 W/m² 3,2 °C 3,8 °C 9,7 km/h (2 Bft)
24.12.2024 13:24 22,3 °C 5,3 °C 53 % 86 % 1026,7 hPa 0,0 l/m² 8,5 km/h (2 Bft) W-SW 240 ° 1 min 116 W/m² 3,2 °C 3,5 °C 12,9 km/h (3 Bft)
24.12.2024 13:25 22,2 °C 5,3 °C 53 % 86 % 1026,8 hPa 0,0 l/m² 9,2 km/h (2 Bft) SW 234 ° 1 min 107 W/m² 3,2 °C 3,0 °C 14,5 km/h (3 Bft)
24.12.2024 13:26 22,2 °C 5,3 °C 53 % 86 % 1026,8 hPa 0,0 l/m² 8,8 km/h (2 Bft) SW 236 ° 1 min 163 W/m² 3,2 °C 3,3 °C 14,5 km/h (3 Bft)
24.12.2024 13:27 22,2 °C 5,3 °C 53 % 86 % 1026,7 hPa 0,0 l/m² 11,1 km/h (2 Bft) W-SW 237 ° 1 min 100 W/m² 3,2 °C 1,7 °C 14,5 km/h (3 Bft)
24.12.2024 13:28 22,2 °C 5,3 °C 53 % 86 % 1026,7 hPa 0,0 l/m² 11,3 km/h (2 Bft) W-SW 238 ° 1 min 93 W/m² 3,2 °C 1,5 °C 14,5 km/h (3 Bft)
24.12.2024 13:29 22,2 °C 5,3 °C 53 % 85 % 1026,6 hPa 0,0 l/m² 10,8 km/h (2 Bft) SW 234 ° 1 min 100 W/m² 3,0 °C 1,9 °C 14,5 km/h (3 Bft)
24.12.2024 13:30 22,2 °C 5,3 °C 53 % 85 % 1026,7 hPa 0,0 l/m² 9,8 km/h (2 Bft) W-SW 240 ° 1 min 91 W/m² 3,0 °C 2,5 °C 14,5 km/h (3 Bft)
24.12.2024 13:31 22,2 °C 5,3 °C 53 % 85 % 1026,7 hPa 0,0 l/m² 11,1 km/h (2 Bft) SW 234 ° 1 min 105 W/m² 3,0 °C 1,7 °C 14,5 km/h (3 Bft)
24.12.2024 13:32 22,2 °C 5,3 °C 53 % 85 % 1026,7 hPa 0,0 l/m² 10,7 km/h (2 Bft) W-SW 240 ° 1 min 81 W/m² 3,0 °C 1,9 °C 14,5 km/h (3 Bft)
24.12.2024 13:33 22,2 °C 5,3 °C 53 % 85 % 1026,7 hPa 0,0 l/m² 8,7 km/h (2 Bft) SW 235 ° 1 min 79 W/m² 3,0 °C 3,4 °C 11,3 km/h (2 Bft)
24.12.2024 13:34 22,2 °C 5,3 °C 53 % 85 % 1026,7 hPa 0,0 l/m² 8,9 km/h (2 Bft) SW 234 ° 1 min 79 W/m² 3,0 °C 3,2 °C 11,3 km/h (2 Bft)
24.12.2024 13:35 22,2 °C 5,2 °C 53 % 85 % 1026,9 hPa 0,0 l/m² 7,3 km/h (2 Bft) W-SW 237 ° 1 min 88 W/m² 2,9 °C 4,4 °C 9,7 km/h (2 Bft)
24.12.2024 13:37 22,2 °C 5,2 °C 53 % 85 % 1026,9 hPa 0,0 l/m² 7,3 km/h (2 Bft) W-SW 244 ° 2 min 83 W/m² 2,9 °C 4,4 °C 11,3 km/h (2 Bft)
24.12.2024 13:38 22,2 °C 5,2 °C 53 % 85 % 1026,9 hPa 0,0 l/m² 9,3 km/h (2 Bft) W-SW 246 ° 1 min 81 W/m² 2,9 °C 2,8 °C 12,9 km/h (3 Bft)
24.12.2024 13:39 22,2 °C 5,2 °C 53 % 85 % 1026,9 hPa 0,0 l/m² 9,3 km/h (2 Bft) W-SW 244 ° 1 min 79 W/m² 2,9 °C 2,8 °C 12,9 km/h (3 Bft)
24.12.2024 13:40 22,2 °C 5,1 °C 53 % 85 % 1026,9 hPa 0,0 l/m² 8,9 km/h (2 Bft) W-SW 244 ° 1 min 81 W/m² 2,8 °C 3,0 °C 11,3 km/h (2 Bft)
24.12.2024 13:42 22,2 °C 5,1 °C 53 % 86 % 1027,1 hPa 0,0 l/m² 7,3 km/h (2 Bft) W-SW 239 ° 2 min 84 W/m² 3,0 °C 4,3 °C 12,9 km/h (3 Bft)
24.12.2024 13:43 22,2 °C 5,1 °C 53 % 86 % 1027,1 hPa 0,0 l/m² 6,1 km/h (2 Bft) W-SW 240 ° 1 min 88 W/m² 3,0 °C 5,1 °C 9,7 km/h (2 Bft)
24.12.2024 13:44 22,2 °C 5,1 °C 53 % 86 % 1027,1 hPa 0,0 l/m² 6,3 km/h (2 Bft) W-SW 240 ° 1 min 91 W/m² 3,0 °C 5,1 °C 8,0 km/h (2 Bft)
24.12.2024 13:45 22,2 °C 5,1 °C 53 % 86 % 1027,1 hPa 0,0 l/m² 6,2 km/h (2 Bft) W-SW 239 ° 1 min 91 W/m² 3,0 °C 5,1 °C 8,0 km/h (2 Bft)
24.12.2024 13:46 22,2 °C 5,1 °C 53 % 86 % 1027,1 hPa 0,0 l/m² 7,3 km/h (2 Bft) W-SW 239 ° 1 min 88 W/m² 3,0 °C 4,3 °C 9,7 km/h (2 Bft)
24.12.2024 13:47 22,2 °C 5,1 °C 53 % 86 % 1027,2 hPa 0,0 l/m² 7,2 km/h (2 Bft) W-SW 239 ° 1 min 88 W/m² 3,0 °C 4,4 °C 9,7 km/h (2 Bft)
24.12.2024 13:48 22,2 °C 5,1 °C 53 % 86 % 1027,2 hPa 0,0 l/m² 6,2 km/h (2 Bft) SW 236 ° 1 min 90 W/m² 3,0 °C 5,1 °C 8,0 km/h (2 Bft)
24.12.2024 13:49 22,2 °C 5,1 °C 53 % 86 % 1027,1 hPa 0,0 l/m² 7,4 km/h (2 Bft) SW 234 ° 1 min 84 W/m² 3,0 °C 4,2 °C 9,7 km/h (2 Bft)
24.12.2024 13:50 22,1 °C 5,1 °C 53 % 86 % 1027,2 hPa 0,0 l/m² 5,3 km/h (1 Bft) SW 234 ° 1 min 81 W/m² 3,0 °C 5,1 °C 9,7 km/h (2 Bft)
24.12.2024 13:51 22,2 °C 5,1 °C 53 % 86 % 1027,2 hPa 0,0 l/m² 3,8 km/h (1 Bft) SW 234 ° 1 min 77 W/m² 3,0 °C 5,1 °C 6,4 km/h (2 Bft)
24.12.2024 13:52 22,1 °C 5,1 °C 53 % 86 % 1027,1 hPa 0,0 l/m² 5,4 km/h (2 Bft) SW 233 ° 1 min 74 W/m² 3,0 °C 5,1 °C 8,0 km/h (2 Bft)
24.12.2024 13:53 22,1 °C 5,1 °C 53 % 86 % 1027,2 hPa 0,0 l/m² 4,1 km/h (1 Bft) SW 233 ° 1 min 72 W/m² 3,0 °C 5,1 °C 6,4 km/h (2 Bft)
24.12.2024 13:54 22,2 °C 5,1 °C 53 % 86 % 1027,2 hPa 0,0 l/m² 5,3 km/h (1 Bft) SW 233 ° 1 min 72 W/m² 3,0 °C 5,1 °C 8,0 km/h (2 Bft)
24.12.2024 13:55 22,1 °C 5,1 °C 54 % 86 % 1027,2 hPa 0,0 l/m² 8,4 km/h (2 Bft) SW 219 ° 1 min 76 W/m² 3,0 °C 3,4 °C 11,3 km/h (2 Bft)
24.12.2024 13:56 22,1 °C 5,0 °C 54 % 86 % 1027,1 hPa 0,0 l/m² 11,7 km/h (2 Bft) SW 216 ° 1 min 79 W/m² 2,9 °C 0,9 °C 14,5 km/h (3 Bft)
24.12.2024 13:57 22,1 °C 5,0 °C 54 % 86 % 1027,2 hPa 0,0 l/m² 10,2 km/h (2 Bft) SW 222 ° 1 min 88 W/m² 2,9 °C 1,9 °C 12,9 km/h (3 Bft)
24.12.2024 13:58 22,1 °C 5,1 °C 54 % 86 % 1027,2 hPa 0,0 l/m² 7,0 km/h (2 Bft) SW 223 ° 1 min 88 W/m² 3,0 °C 4,6 °C 9,7 km/h (2 Bft)
24.12.2024 13:59 22,1 °C 5,1 °C 54 % 86 % 1027,1 hPa 0,0 l/m² 9,1 km/h (2 Bft) SW 223 ° 1 min 121 W/m² 3,0 °C 2,8 °C 11,3 km/h (2 Bft)
24.12.2024 14:00 22,1 °C 5,1 °C 54 % 86 % 1027,2 hPa 0,0 l/m² 8,5 km/h (2 Bft) SW 222 ° 1 min 93 W/m² 3,0 °C 3,3 °C 11,3 km/h (2 Bft)
24.12.2024 14:01 22,2 °C 5,1 °C 54 % 87 % 1027,1 hPa 0,0 l/m² 5,0 km/h (1 Bft) SW 224 ° 1 min 130 W/m² 3,1 °C 5,1 °C 9,7 km/h (2 Bft)
24.12.2024 14:02 22,2 °C 5,2 °C 54 % 86 % 1027,2 hPa 0,0 l/m² 7,3 km/h (2 Bft) SW 227 ° 1 min 137 W/m² 3,1 °C 4,4 °C 11,3 km/h (2 Bft)
24.12.2024 14:03 22,1 °C 5,2 °C 54 % 86 % 1027,2 hPa 0,0 l/m² 9,7 km/h (2 Bft) SW 235 ° 1 min 167 W/m² 3,1 °C 2,5 °C 14,5 km/h (3 Bft)
24.12.2024 14:04 22,1 °C 5,3 °C 54 % 86 % 1027,1 hPa 0,0 l/m² 12,2 km/h (2 Bft) SW 228 ° 1 min 88 W/m² 3,2 °C 1,0 °C 17,7 km/h (3 Bft)
24.12.2024 14:05 22,1 °C 5,3 °C 54 % 86 % 1027,1 hPa 0,0 l/m² 13,3 km/h (3 Bft) W-SW 240 ° 1 min 109 W/m² 3,2 °C 0,3 °C 17,7 km/h (3 Bft)
24.12.2024 14:06 22,1 °C 5,3 °C 54 % 86 % 1027,1 hPa 0,0 l/m² 11,3 km/h (2 Bft) W-SW 243 ° 1 min 134 W/m² 3,2 °C 1,5 °C 14,5 km/h (3 Bft)
24.12.2024 14:07 22,1 °C 5,3 °C 54 % 86 % 1027,2 hPa 0,0 l/m² 11,7 km/h (2 Bft) W-SW 240 ° 1 min 88 W/m² 3,2 °C 1,3 °C 16,1 km/h (3 Bft)
24.12.2024 14:08 22,1 °C 5,3 °C 54 % 86 % 1027,2 hPa 0,0 l/m² 9,6 km/h (2 Bft) W-SW 241 ° 1 min 83 W/m² 3,2 °C 2,7 °C 14,5 km/h (3 Bft)
24.12.2024 14:09 22,1 °C 5,3 °C 54 % 86 % 1027,2 hPa 0,0 l/m² 12,5 km/h (2 Bft) W-SW 246 ° 1 min 76 W/m² 3,2 °C 0,8 °C 20,9 km/h (4 Bft)
24.12.2024 14:10 22,1 °C 5,3 °C 54 % 85 % 1027,2 hPa 0,0 l/m² 12,8 km/h (3 Bft) SW 231 ° 1 min 67 W/m² 3,0 °C 0,6 °C 17,7 km/h (3 Bft)
24.12.2024 14:12 22,1 °C 5,2 °C 54 % 85 % 1027,2 hPa 0,0 l/m² 10,3 km/h (2 Bft) SW 227 ° 2 min 72 W/m² 2,9 °C 2,1 °C 17,7 km/h (3 Bft)
24.12.2024 14:13 22,1 °C 5,2 °C 54 % 85 % 1027,2 hPa 0,0 l/m² 10,3 km/h (2 Bft) SW 221 ° 1 min 86 W/m² 2,9 °C 2,1 °C 16,1 km/h (3 Bft)
24.12.2024 14:14 22,1 °C 5,1 °C 54 % 85 % 1027,2 hPa 0,0 l/m² 8,6 km/h (2 Bft) SW 221 ° 1 min 125 W/m² 2,8 °C 3,2 °C 12,9 km/h (3 Bft)
24.12.2024 14:15 22,1 °C 5,1 °C 53 % 86 % 1027,3 hPa 0,0 l/m² 12,7 km/h (3 Bft) SW 227 ° 1 min 97 W/m² 3,0 °C 0,5 °C 14,5 km/h (3 Bft)
24.12.2024 14:16 22,1 °C 5,1 °C 53 % 86 % 1027,2 hPa 0,0 l/m² 12,1 km/h (2 Bft) SW 228 ° 1 min 88 W/m² 3,0 °C 0,8 °C 16,1 km/h (3 Bft)
24.12.2024 14:17 22,1 °C 5,1 °C 53 % 86 % 1027,1 hPa 0,0 l/m² 12,7 km/h (3 Bft) S-SW 209 ° 1 min 114 W/m² 3,0 °C 0,5 °C 16,1 km/h (3 Bft)
24.12.2024 14:18 22,1 °C 5,1 °C 53 % 86 % 1027,1 hPa 0,0 l/m² 11,7 km/h (2 Bft) SW 229 ° 1 min 132 W/m² 3,0 °C 1,1 °C 14,5 km/h (3 Bft)
24.12.2024 14:19 22,1 °C 5,2 °C 53 % 86 % 1027,2 hPa 0,0 l/m² 9,3 km/h (2 Bft) SW 235 ° 1 min 128 W/m² 3,1 °C 2,8 °C 12,9 km/h (3 Bft)
24.12.2024 14:20 22,1 °C 5,2 °C 53 % 87 % 1027,2 hPa 0,0 l/m² 10,5 km/h (2 Bft) SW 235 ° 1 min 125 W/m² 3,2 °C 1,9 °C 14,5 km/h (3 Bft)
24.12.2024 14:21 22,1 °C 5,2 °C 53 % 86 % 1027,3 hPa 0,0 l/m² 12,6 km/h (3 Bft) SW 225 ° 1 min 125 W/m² 3,1 °C 0,6 °C 16,1 km/h (3 Bft)
24.12.2024 14:22 22,1 °C 5,3 °C 53 % 86 % 1027,3 hPa 0,0 l/m² 10,1 km/h (2 Bft) SW 222 ° 1 min 123 W/m² 3,2 °C 2,3 °C 14,5 km/h (3 Bft)
24.12.2024 14:23 22,1 °C 5,3 °C 53 % 86 % 1027,3 hPa 0,0 l/m² 9,3 km/h (2 Bft) SW 232 ° 1 min 121 W/m² 3,2 °C 2,9 °C 12,9 km/h (3 Bft)
24.12.2024 14:24 22,1 °C 5,4 °C 53 % 86 % 1027,3 hPa 0,0 l/m² 10,4 km/h (2 Bft) SW 232 ° 1 min 120 W/m² 3,3 °C 2,2 °C 16,1 km/h (3 Bft)
24.12.2024 14:25 22,1 °C 5,4 °C 53 % 86 % 1027,3 hPa 0,0 l/m² 12,0 km/h (2 Bft) SW 225 ° 1 min 123 W/m² 3,3 °C 1,2 °C 16,1 km/h (3 Bft)
24.12.2024 14:26 22,1 °C 5,4 °C 53 % 85 % 1027,3 hPa 0,0 l/m² 12,1 km/h (2 Bft) SW 230 ° 1 min 121 W/m² 3,1 °C 1,2 °C 16,1 km/h (3 Bft)
24.12.2024 14:27 22,1 °C 5,4 °C 53 % 85 % 1027,3 hPa 0,0 l/m² 12,7 km/h (3 Bft) SW 236 ° 1 min 116 W/m² 3,1 °C 0,8 °C 16,1 km/h (3 Bft)
24.12.2024 14:28 22,1 °C 5,4 °C 53 % 85 % 1027,3 hPa 0,0 l/m² 12,0 km/h (2 Bft) W-SW 238 ° 1 min 107 W/m² 3,1 °C 1,2 °C 16,1 km/h (3 Bft)
24.12.2024 14:29 22,1 °C 5,4 °C 53 % 85 % 1027,3 hPa 0,0 l/m² 11,9 km/h (2 Bft) W-SW 245 ° 1 min 74 W/m² 3,1 °C 1,3 °C 17,7 km/h (3 Bft)
24.12.2024 14:30 22,1 °C 5,4 °C 53 % 85 % 1027,3 hPa 0,0 l/m² 12,4 km/h (2 Bft) W-SW 242 ° 1 min 77 W/m² 3,1 °C 1,0 °C 16,1 km/h (3 Bft)
24.12.2024 14:31 22,1 °C 5,3 °C 53 % 85 % 1027,3 hPa 0,0 l/m² 13,0 km/h (3 Bft) W-SW 240 ° 1 min 60 W/m² 3,0 °C 0,5 °C 16,1 km/h (3 Bft)
24.12.2024 14:32 22,1 °C 5,3 °C 53 % 85 % 1027,4 hPa 0,0 l/m² 11,8 km/h (2 Bft) W-SW 250 ° 1 min 65 W/m² 3,0 °C 1,2 °C 14,5 km/h (3 Bft)
24.12.2024 14:33 22,1 °C 5,3 °C 53 % 85 % 1027,3 hPa 0,0 l/m² 10,3 km/h (2 Bft) W-SW 246 ° 1 min 102 W/m² 3,0 °C 2,2 °C 12,9 km/h (3 Bft)
24.12.2024 14:34 22,1 °C 5,3 °C 53 % 85 % 1027,4 hPa 0,0 l/m² 8,5 km/h (2 Bft) W-SW 238 ° 1 min 88 W/m² 3,0 °C 3,5 °C 12,9 km/h (3 Bft)
24.12.2024 14:35 22,1 °C 5,3 °C 53 % 85 % 1027,3 hPa 0,0 l/m² 11,0 km/h (2 Bft) W-SW 244 ° 1 min 90 W/m² 3,0 °C 1,7 °C 14,5 km/h (3 Bft)
24.12.2024 14:36 22,1 °C 5,3 °C 53 % 85 % 1027,3 hPa 0,0 l/m² 9,8 km/h (2 Bft) W-SW 244 ° 1 min 102 W/m² 3,0 °C 2,5 °C 14,5 km/h (3 Bft)
24.12.2024 14:37 22,1 °C 5,3 °C 53 % 86 % 1027,4 hPa 0,0 l/m² 10,1 km/h (2 Bft) W-SW 246 ° 1 min 104 W/m² 3,2 °C 2,3 °C 14,5 km/h (3 Bft)
24.12.2024 14:38 22,1 °C 5,3 °C 53 % 86 % 1027,4 hPa 0,0 l/m² 8,0 km/h (2 Bft) SW 236 ° 1 min 107 W/m² 3,2 °C 3,9 °C 11,3 km/h (2 Bft)
24.12.2024 14:39 22,1 °C 5,4 °C 53 % 86 % 1027,4 hPa 0,0 l/m² 8,7 km/h (2 Bft) SW 229 ° 1 min 102 W/m² 3,3 °C 3,5 °C 14,5 km/h (3 Bft)
24.12.2024 14:40 22,1 °C 5,3 °C 53 % 86 % 1027,4 hPa 0,0 l/m² 9,1 km/h (2 Bft) W-SW 239 ° 1 min 65 W/m² 3,2 °C 3,1 °C 12,9 km/h (3 Bft)
24.12.2024 14:41 22,1 °C 5,3 °C 53 % 86 % 1027,3 hPa 0,0 l/m² 9,1 km/h (2 Bft) W-SW 240 ° 1 min 93 W/m² 3,2 °C 3,1 °C 14,5 km/h (3 Bft)
24.12.2024 14:42 22,1 °C 5,3 °C 53 % 86 % 1027,3 hPa 0,0 l/m² 7,4 km/h (2 Bft) SW 234 ° 1 min 65 W/m² 3,2 °C 4,4 °C 11,3 km/h (2 Bft)
24.12.2024 14:43 22,1 °C 5,3 °C 53 % 86 % 1027,2 hPa 0,0 l/m² 7,8 km/h (2 Bft) SW 225 ° 1 min 102 W/m² 3,2 °C 4,1 °C 11,3 km/h (2 Bft)
24.12.2024 14:44 22,1 °C 5,3 °C 53 % 86 % 1027,2 hPa 0,0 l/m² 6,2 km/h (2 Bft) W-SW 238 ° 1 min 114 W/m² 3,2 °C 5,3 °C 9,7 km/h (2 Bft)
24.12.2024 14:45 22,1 °C 5,3 °C 53 % 86 % 1027,3 hPa 0,0 l/m² 9,5 km/h (2 Bft) SW 233 ° 1 min 118 W/m² 3,2 °C 2,8 °C 11,3 km/h (2 Bft)
24.12.2024 14:46 22,1 °C 5,3 °C 53 % 86 % 1027,3 hPa 0,0 l/m² 5,8 km/h (2 Bft) SW 232 ° 1 min 116 W/m² 3,2 °C 5,3 °C 8,0 km/h (2 Bft)
24.12.2024 14:47 22,1 °C 5,4 °C 53 % 86 % 1027,4 hPa 0,0 l/m² 6,3 km/h (2 Bft) W-SW 240 ° 1 min 105 W/m² 3,3 °C 5,4 °C 9,7 km/h (2 Bft)
24.12.2024 14:48 22,1 °C 5,4 °C 52 % 86 % 1027,3 hPa 0,0 l/m² 7,3 km/h (2 Bft) SW 232 ° 1 min 100 W/m² 3,3 °C 4,6 °C 9,7 km/h (2 Bft)
24.12.2024 14:49 22,1 °C 5,5 °C 52 % 85 % 1027,4 hPa 0,0 l/m² 7,8 km/h (2 Bft) SW 227 ° 1 min 98 W/m² 3,2 °C 4,3 °C 9,7 km/h (2 Bft)
24.12.2024 14:50 22,1 °C 5,5 °C 52 % 85 % 1027,3 hPa 0,0 l/m² 9,7 km/h (2 Bft) SW 217 ° 1 min 95 W/m² 3,2 °C 2,8 °C 12,9 km/h (3 Bft)
24.12.2024 14:51 22,1 °C 5,5 °C 52 % 85 % 1027,3 hPa 0,0 l/m² 7,4 km/h (2 Bft) SW 216 ° 1 min 95 W/m² 3,2 °C 4,6 °C 9,7 km/h (2 Bft)
24.12.2024 14:52 22,1 °C 5,5 °C 52 % 85 % 1027,3 hPa 0,0 l/m² 8,4 km/h (2 Bft) W-SW 237 ° 1 min 95 W/m² 3,2 °C 3,8 °C 11,3 km/h (2 Bft)
24.12.2024 14:53 22,1 °C 5,4 °C 52 % 85 % 1027,4 hPa 0,0 l/m² 7,0 km/h (2 Bft) SW 228 ° 1 min 102 W/m² 3,1 °C 4,9 °C 9,7 km/h (2 Bft)
24.12.2024 14:54 22,1 °C 5,4 °C 52 % 85 % 1027,4 hPa 0,0 l/m² 5,8 km/h (2 Bft) SW 234 ° 1 min 104 W/m² 3,1 °C 5,4 °C 8,0 km/h (2 Bft)
24.12.2024 14:55 22,1 °C 5,5 °C 52 % 86 % 1027,5 hPa 0,0 l/m² 6,8 km/h (2 Bft) SW 234 ° 1 min 104 W/m² 3,3 °C 5,2 °C 9,7 km/h (2 Bft)
24.12.2024 14:56 22,1 °C 5,6 °C 52 % 85 % 1027,6 hPa 0,0 l/m² 5,3 km/h (1 Bft) SW 234 ° 1 min 97 W/m² 3,3 °C 5,6 °C 8,0 km/h (2 Bft)
24.12.2024 14:57 22,1 °C 5,6 °C 52 % 85 % 1027,6 hPa 0,0 l/m² 9,3 km/h (2 Bft) W-SW 242 ° 1 min 91 W/m² 3,3 °C 3,2 °C 14,5 km/h (3 Bft)
24.12.2024 14:58 22,1 °C 5,6 °C 53 % 85 % 1027,6 hPa 0,0 l/m² 8,8 km/h (2 Bft) W-SW 238 ° 1 min 84 W/m² 3,3 °C 3,6 °C 12,9 km/h (3 Bft)
24.12.2024 14:59 22,1 °C 5,6 °C 53 % 85 % 1027,7 hPa 0,0 l/m² 9,5 km/h (2 Bft) SW 227 ° 1 min 76 W/m² 3,3 °C 3,1 °C 14,5 km/h (3 Bft)
24.12.2024 15:00 22,1 °C 5,6 °C 53 % 85 % 1027,7 hPa 0,0 l/m² 10,4 km/h (2 Bft) SW 224 ° 1 min 74 W/m² 3,3 °C 2,5 °C 12,9 km/h (3 Bft)
24.12.2024 15:01 22,1 °C 5,6 °C 53 % 85 % 1027,7 hPa 0,0 l/m² 9,9 km/h (2 Bft) SW 225 ° 1 min 70 W/m² 3,3 °C 2,8 °C 14,5 km/h (3 Bft)
24.12.2024 15:02 22,1 °C 5,6 °C 53 % 85 % 1027,7 hPa 0,0 l/m² 6,5 km/h (2 Bft) SW 229 ° 1 min 62 W/m² 3,3 °C 5,5 °C 9,7 km/h (2 Bft)
24.12.2024 15:03 22,1 °C 5,6 °C 53 % 85 % 1027,7 hPa 0,0 l/m² 12,3 km/h (2 Bft) W-SW 240 ° 1 min 63 W/m² 3,3 °C 1,3 °C 16,1 km/h (3 Bft)
24.12.2024 15:04 22,1 °C 5,5 °C 53 % 85 % 1027,7 hPa 0,0 l/m² 8,1 km/h (2 Bft) W-SW 242 ° 1 min 65 W/m² 3,2 °C 4,0 °C 11,3 km/h (2 Bft)
24.12.2024 15:05 22,2 °C 5,5 °C 53 % 85 % 1027,7 hPa 0,0 l/m² 9,2 km/h (2 Bft) SW 234 ° 1 min 67 W/m² 3,2 °C 3,2 °C 12,9 km/h (3 Bft)
24.12.2024 15:06 22,1 °C 5,5 °C 53 % 85 % 1027,7 hPa 0,0 l/m² 8,0 km/h (2 Bft) W-SW 248 ° 1 min 62 W/m² 3,2 °C 4,1 °C 11,3 km/h (2 Bft)
24.12.2024 15:07 22,2 °C 5,5 °C 53 % 85 % 1027,9 hPa 0,0 l/m² 9,4 km/h (2 Bft) W-SW 246 ° 1 min 56 W/m² 3,2 °C 3,1 °C 12,9 km/h (3 Bft)
24.12.2024 15:08 22,2 °C 5,6 °C 53 % 85 % 1027,8 hPa 0,0 l/m² 5,5 km/h (2 Bft) W-SW 244 ° 1 min 53 W/m² 3,3 °C 5,6 °C 11,3 km/h (2 Bft)
24.12.2024 15:09 22,2 °C 5,6 °C 53 % 85 % 1027,9 hPa 0,0 l/m² 6,2 km/h (2 Bft) W-SW 237 ° 0 min 51 W/m² 3,3 °C 5,6 °C 9,7 km/h (2 Bft)
24.12.2024 15:10 22,2 °C 5,6 °C 53 % 85 % 1027,9 hPa 0,0 l/m² 6,4 km/h (2 Bft) W-SW 239 ° 1 min 53 W/m² 3,3 °C 5,6 °C 9,7 km/h (2 Bft)
24.12.2024 15:11 22,2 °C 5,6 °C 53 % 85 % 1027,8 hPa 0,0 l/m² 8,6 km/h (2 Bft) W-SW 246 ° 0 min 47 W/m² 3,3 °C 3,8 °C 12,9 km/h (3 Bft)
24.12.2024 15:12 22,2 °C 5,6 °C 53 % 85 % 1027,8 hPa 0,0 l/m² 10,2 km/h (2 Bft) W-SW 246 ° 0 min 37 W/m² 3,3 °C 2,6 °C 12,9 km/h (3 Bft)
24.12.2024 15:13 22,2 °C 5,5 °C 53 % 85 % 1027,8 hPa 0,0 l/m² 6,5 km/h (2 Bft) W-SW 251 ° 0 min 39 W/m² 3,2 °C 5,4 °C 8,0 km/h (2 Bft)
24.12.2024 15:14 22,2 °C 5,4 °C 54 % 85 % 1027,9 hPa 0,0 l/m² 10,3 km/h (2 Bft) W-SW 237 ° 0 min 35 W/m² 3,1 °C 2,3 °C 14,5 km/h (3 Bft)
24.12.2024 15:15 22,3 °C 5,4 °C 54 % 85 % 1027,9 hPa 0,0 l/m² 10,9 km/h (2 Bft) W-SW 247 ° 0 min 33 W/m² 3,1 °C 1,9 °C 14,5 km/h (3 Bft)
24.12.2024 15:16 22,3 °C 5,4 °C 54 % 85 % 1027,9 hPa 0,0 l/m² 8,2 km/h (2 Bft) W-SW 237 ° 0 min 35 W/m² 3,1 °C 3,9 °C 12,9 km/h (3 Bft)
24.12.2024 15:17 22,3 °C 5,4 °C 54 % 85 % 1027,9 hPa 0,0 l/m² 6,0 km/h (2 Bft) SW 236 ° 0 min 35 W/m² 3,1 °C 5,4 °C 8,0 km/h (2 Bft)
24.12.2024 15:18 22,3 °C 5,4 °C 54 % 85 % 1028,0 hPa 0,0 l/m² 6,4 km/h (2 Bft) SW 236 ° 0 min 33 W/m² 3,1 °C 5,4 °C 8,0 km/h (2 Bft)
24.12.2024 15:19 22,3 °C 5,3 °C 54 % 85 % 1027,9 hPa 0,0 l/m² 8,3 km/h (2 Bft) W-SW 241 ° 0 min 37 W/m² 3,0 °C 3,7 °C 12,9 km/h (3 Bft)
24.12.2024 15:20 22,3 °C 5,3 °C 54 % 85 % 1028,0 hPa 0,0 l/m² 6,0 km/h (2 Bft) W-SW 243 ° 0 min 37 W/m² 3,0 °C 5,3 °C 8,0 km/h (2 Bft)
24.12.2024 15:21 22,3 °C 5,3 °C 54 % 86 % 1028,0 hPa 0,0 l/m² 6,1 km/h (2 Bft) W-SW 243 ° 0 min 37 W/m² 3,2 °C 5,3 °C 8,0 km/h (2 Bft)
24.12.2024 15:22 22,3 °C 5,3 °C 54 % 86 % 1028,0 hPa 0,0 l/m² 5,3 km/h (1 Bft) W-SW 243 ° 0 min 40 W/m² 3,2 °C 5,3 °C 8,0 km/h (2 Bft)
24.12.2024 15:23 22,3 °C 5,3 °C 54 % 86 % 1027,9 hPa 0,0 l/m² 4,5 km/h (1 Bft) W-SW 243 ° 0 min 37 W/m² 3,2 °C 5,3 °C 6,4 km/h (2 Bft)
24.12.2024 15:24 22,3 °C 5,3 °C 54 % 86 % 1027,8 hPa 0,0 l/m² 6,0 km/h (2 Bft) W-SW 243 ° 0 min 35 W/m² 3,2 °C 5,3 °C 8,0 km/h (2 Bft)
24.12.2024 15:25 22,3 °C 5,3 °C 54 % 86 % 1027,9 hPa 0,0 l/m² 4,6 km/h (1 Bft) W-SW 243 ° 0 min 33 W/m² 3,2 °C 5,3 °C 6,4 km/h (2 Bft)
24.12.2024 15:26 22,3 °C 5,3 °C 54 % 86 % 1027,9 hPa 0,0 l/m² 4,4 km/h (1 Bft) W-SW 243 ° 0 min 30 W/m² 3,2 °C 5,3 °C 6,4 km/h (2 Bft)
24.12.2024 15:27 22,3 °C 5,3 °C 54 % 86 % 1028,0 hPa 0,0 l/m² 6,0 km/h (2 Bft) W-SW 247 ° 0 min 26 W/m² 3,2 °C 5,3 °C 12,9 km/h (3 Bft)
24.12.2024 15:28 22,3 °C 5,3 °C 54 % 86 % 1028,1 hPa 0,0 l/m² 9,0 km/h (2 Bft) W-SW 248 ° 0 min 23 W/m² 3,2 °C 3,1 °C 12,9 km/h (3 Bft)
24.12.2024 15:29 22,3 °C 5,3 °C 54 % 86 % 1028,1 hPa 0,0 l/m² 5,9 km/h (2 Bft) W-SW 248 ° 0 min 23 W/m² 3,2 °C 5,3 °C 8,0 km/h (2 Bft)
24.12.2024 15:30 22,3 °C 5,3 °C 54 % 86 % 1028,1 hPa 0,0 l/m² 5,9 km/h (2 Bft) W-SW 248 ° 0 min 23 W/m² 3,2 °C 5,3 °C 6,4 km/h (2 Bft)
24.12.2024 15:31 22,3 °C 5,3 °C 54 % 86 % 1028,1 hPa 0,0 l/m² 6,6 km/h (2 Bft) W-SW 248 ° 0 min 25 W/m² 3,2 °C 5,1 °C 11,3 km/h (2 Bft)
24.12.2024 15:32 22,3 °C 5,3 °C 54 % 86 % 1028,1 hPa 0,0 l/m² 5,9 km/h (2 Bft) W-SW 249 ° 0 min 26 W/m² 3,2 °C 5,3 °C 8,0 km/h (2 Bft)
24.12.2024 15:33 22,3 °C 5,3 °C 54 % 86 % 1028,2 hPa 0,0 l/m² 5,4 km/h (2 Bft) W-SW 249 ° 0 min 26 W/m² 3,2 °C 5,3 °C 8,0 km/h (2 Bft)
24.12.2024 15:34 22,3 °C 5,3 °C 54 % 86 % 1028,1 hPa 0,0 l/m² 5,4 km/h (2 Bft) W-SW 249 ° 0 min 26 W/m² 3,2 °C 5,3 °C 8,0 km/h (2 Bft)
24.12.2024 15:35 22,4 °C 5,3 °C 54 % 86 % 1028,1 hPa 0,0 l/m² 7,0 km/h (2 Bft) W-SW 250 ° 0 min 28 W/m² 3,2 °C 4,8 °C 11,3 km/h (2 Bft)
24.12.2024 15:36 22,4 °C 5,3 °C 54 % 86 % 1028,1 hPa 0,0 l/m² 7,7 km/h (2 Bft) W-SW 244 ° 0 min 28 W/m² 3,2 °C 4,2 °C 11,3 km/h (2 Bft)
24.12.2024 15:37 22,4 °C 5,3 °C 54 % 86 % 1028,1 hPa 0,0 l/m² 6,2 km/h (2 Bft) W-SW 244 ° 0 min 30 W/m² 3,2 °C 5,3 °C 8,0 km/h (2 Bft)
24.12.2024 15:38 22,4 °C 5,3 °C 54 % 86 % 1028,2 hPa 0,0 l/m² 5,6 km/h (2 Bft) W-SW 243 ° 0 min 28 W/m² 3,2 °C 5,3 °C 8,0 km/h (2 Bft)
24.12.2024 15:39 22,4 °C 5,3 °C 54 % 86 % 1028,2 hPa 0,0 l/m² 4,6 km/h (1 Bft) W-SW 243 ° 0 min 28 W/m² 3,2 °C 5,3 °C 6,4 km/h (2 Bft)
24.12.2024 15:40 22,4 °C 5,3 °C 54 % 86 % 1028,1 hPa 0,0 l/m² 4,6 km/h (1 Bft) W-SW 243 ° 0 min 26 W/m² 3,2 °C 5,3 °C 6,4 km/h (2 Bft)
24.12.2024 15:41 22,4 °C 5,3 °C 54 % 86 % 1028,2 hPa 0,0 l/m² 3,0 km/h (1 Bft) W-SW 243 ° 0 min 30 W/m² 3,2 °C 5,3 °C 4,8 km/h (1 Bft)
24.12.2024 15:42 22,4 °C 5,3 °C 54 % 86 % 1028,2 hPa 0,0 l/m² 3,1 km/h (1 Bft) W-SW 243 ° 0 min 35 W/m² 3,2 °C 5,3 °C 4,8 km/h (1 Bft)
24.12.2024 15:43 22,4 °C 5,3 °C 54 % 86 % 1028,3 hPa 0,0 l/m² 3,4 km/h (1 Bft) W-SW 243 ° 0 min 39 W/m² 3,2 °C 5,3 °C 4,8 km/h (1 Bft)
24.12.2024 15:44 22,4 °C 5,2 °C 54 % 86 % 1028,2 hPa 0,0 l/m² 6,4 km/h (2 Bft) W-SW 238 ° 0 min 37 W/m² 3,1 °C 5,2 °C 8,0 km/h (2 Bft)
24.12.2024 15:46 22,4 °C 5,2 °C 55 % 86 % 1028,3 hPa 0,0 l/m² 5,6 km/h (2 Bft) SW 234 ° 0 min 28 W/m² 3,1 °C 5,2 °C 11,3 km/h (2 Bft)
24.12.2024 15:47 22,4 °C 5,2 °C 55 % 86 % 1028,2 hPa 0,0 l/m² 7,6 km/h (2 Bft) W-SW 239 ° 0 min 25 W/m² 3,1 °C 4,1 °C 12,9 km/h (3 Bft)
24.12.2024 15:48 22,4 °C 5,1 °C 55 % 86 % 1028,3 hPa 0,0 l/m² 10,9 km/h (2 Bft) W-SW 242 ° 0 min 23 W/m² 3,0 °C 1,6 °C 14,5 km/h (3 Bft)
24.12.2024 15:49 22,4 °C 5,1 °C 55 % 86 % 1028,2 hPa 0,0 l/m² 9,8 km/h (2 Bft) W-SW 242 ° 0 min 19 W/m² 3,0 °C 2,3 °C 12,9 km/h (3 Bft)
24.12.2024 15:50 22,4 °C 5,1 °C 55 % 85 % 1028,3 hPa 0,0 l/m² 8,5 km/h (2 Bft) W-SW 243 ° 0 min 18 W/m² 2,8 °C 3,3 °C 12,9 km/h (3 Bft)
24.12.2024 15:51 22,4 °C 5,0 °C 55 % 85 % 1028,2 hPa 0,0 l/m² 7,6 km/h (2 Bft) W-SW 245 ° 0 min 16 W/m² 2,7 °C 3,9 °C 11,3 km/h (2 Bft)
24.12.2024 15:52 22,4 °C 4,9 °C 55 % 85 % 1028,4 hPa 0,0 l/m² 9,1 km/h (2 Bft) W-SW 251 ° 0 min 14 W/m² 2,6 °C 2,6 °C 12,9 km/h (3 Bft)
24.12.2024 15:53 22,4 °C 4,9 °C 55 % 85 % 1028,3 hPa 0,0 l/m² 7,8 km/h (2 Bft) W-SW 251 ° 0 min 12 W/m² 2,6 °C 3,7 °C 11,3 km/h (2 Bft)
24.12.2024 15:54 22,4 °C 4,8 °C 55 % 85 % 1028,3 hPa 0,0 l/m² 5,2 km/h (1 Bft) W-SW 251 ° 0 min 11 W/m² 2,5 °C 4,8 °C 6,4 km/h (2 Bft)
24.12.2024 15:55 22,4 °C 4,8 °C 55 % 85 % 1028,4 hPa 0,0 l/m² 6,5 km/h (2 Bft) W-SW 250 ° 0 min 11 W/m² 2,5 °C 4,7 °C 11,3 km/h (2 Bft)
24.12.2024 15:56 22,4 °C 4,7 °C 55 % 85 % 1028,4 hPa 0,0 l/m² 7,5 km/h (2 Bft) W-SW 250 ° 0 min 9 W/m² 2,4 °C 3,7 °C 12,9 km/h (3 Bft)
24.12.2024 15:57 22,5 °C 4,6 °C 55 % 85 % 1028,3 hPa 0,0 l/m² 6,9 km/h (2 Bft) W-SW 247 ° 0 min 9 W/m² 2,3 °C 4,2 °C 8,0 km/h (2 Bft)
24.12.2024 15:58 22,4 °C 4,6 °C 55 % 85 % 1028,3 hPa 0,0 l/m² 5,2 km/h (1 Bft) W-SW 247 ° 0 min 7 W/m² 2,3 °C 4,6 °C 6,4 km/h (2 Bft)
24.12.2024 15:59 22,4 °C 4,4 °C 54 % 85 % 1028,3 hPa 0,0 l/m² 5,9 km/h (2 Bft) W-SW 246 ° 0 min 7 W/m² 2,1 °C 4,4 °C 8,0 km/h (2 Bft)
24.12.2024 16:00 22,5 °C 4,4 °C 54 % 85 % 1028,3 hPa 0,0 l/m² 5,1 km/h (1 Bft) W-SW 246 ° 0 min 7 W/m² 2,1 °C 4,4 °C 6,4 km/h (2 Bft)
24.12.2024 16:01 22,4 °C 4,3 °C 54 % 86 % 1028,4 hPa 0,0 l/m² 6,0 km/h (2 Bft) W-SW 247 ° 0 min 7 W/m² 2,2 °C 4,3 °C 8,0 km/h (2 Bft)
24.12.2024 16:02 22,4 °C 4,2 °C 54 % 86 % 1028,3 hPa 0,0 l/m² 6,1 km/h (2 Bft) W-SW 246 ° 0 min 7 W/m² 2,1 °C 4,2 °C 8,0 km/h (2 Bft)
24.12.2024 16:03 22,4 °C 4,2 °C 54 % 86 % 1028,4 hPa 0,0 l/m² 5,2 km/h (1 Bft) W-SW 246 ° 0 min 5 W/m² 2,1 °C 4,2 °C 6,4 km/h (2 Bft)
24.12.2024 16:04 22,4 °C 4,1 °C 54 % 86 % 1028,4 hPa 0,0 l/m² 7,2 km/h (2 Bft) W-SW 241 ° 0 min 5 W/m² 2,0 °C 3,4 °C 11,3 km/h (2 Bft)
24.12.2024 16:05 22,4 °C 4,1 °C 54 % 86 % 1028,4 hPa 0,0 l/m² 6,0 km/h (2 Bft) W-SW 240 ° 0 min 5 W/m² 2,0 °C 4,1 °C 9,7 km/h (2 Bft)
24.12.2024 16:06 22,4 °C 4,0 °C 54 % 86 % 1028,5 hPa 0,0 l/m² 5,6 km/h (2 Bft) W-SW 238 ° 0 min 5 W/m² 1,9 °C 4,0 °C 8,0 km/h (2 Bft)
24.12.2024 16:07 22,4 °C 3,9 °C 54 % 86 % 1028,4 hPa 0,0 l/m² 5,1 km/h (1 Bft) W-SW 238 ° 0 min 5 W/m² 1,8 °C 3,9 °C 8,0 km/h (2 Bft)
24.12.2024 16:08 22,4 °C 3,9 °C 54 % 86 % 1028,5 hPa 0,0 l/m² 4,8 km/h (1 Bft) W-SW 239 ° 0 min 5 W/m² 1,8 °C 3,9 °C 6,4 km/h (2 Bft)
24.12.2024 16:09 22,3 °C 3,8 °C 54 % 87 % 1028,4 hPa 0,0 l/m² 5,5 km/h (2 Bft) W-SW 238 ° 0 min 0 W/m² 1,8 °C 3,8 °C 6,4 km/h (2 Bft)
24.12.2024 16:10 22,4 °C 3,8 °C 54 % 87 % 1028,4 hPa 0,0 l/m² 3,8 km/h (1 Bft) W-SW 238 ° 0 min 0 W/m² 1,8 °C 3,8 °C 4,8 km/h (1 Bft)
24.12.2024 16:11 22,4 °C 3,8 °C 54 % 87 % 1028,5 hPa 0,0 l/m² 2,9 km/h (1 Bft) W-SW 238 ° 0 min 0 W/m² 1,8 °C 3,8 °C 4,8 km/h (1 Bft)
24.12.2024 16:12 22,3 °C 3,7 °C 54 % 87 % 1028,4 hPa 0,0 l/m² 2,1 km/h (1 Bft) W-SW 238 ° 0 min 0 W/m² 1,7 °C 3,7 °C 3,2 km/h (1 Bft)
24.12.2024 16:13 22,3 °C 3,7 °C 54 % 87 % 1028,5 hPa 0,0 l/m² 3,0 km/h (1 Bft) W-SW 238 ° 0 min 0 W/m² 1,7 °C 3,7 °C 4,8 km/h (1 Bft)
24.12.2024 16:14 22,3 °C 3,7 °C 54 % 87 % 1028,5 hPa 0,0 l/m² 4,5 km/h (1 Bft) W-SW 238 ° 0 min 0 W/m² 1,7 °C 3,7 °C 6,4 km/h (2 Bft)
24.12.2024 16:15 22,3 °C 3,6 °C 54 % 87 % 1028,5 hPa 0,0 l/m² 3,4 km/h (1 Bft) W-SW 238 ° 0 min 0 W/m² 1,6 °C 3,6 °C 4,8 km/h (1 Bft)
24.12.2024 16:16 22,3 °C 3,6 °C 54 % 87 % 1028,5 hPa 0,0 l/m² 2,7 km/h (1 Bft) W-SW 238 ° 0 min 0 W/m² 1,6 °C 3,6 °C 4,8 km/h (1 Bft)
24.12.2024 16:17 22,3 °C 3,5 °C 54 % 87 % 1028,5 hPa 0,0 l/m² 0,6 km/h (0 Bft) W-SW 238 ° 0 min 0 W/m² 1,5 °C 3,5 °C 3,2 km/h (1 Bft)
24.12.2024 16:18 22,3 °C 3,4 °C 54 % 87 % 1028,4 hPa 0,0 l/m² 2,6 km/h (1 Bft) W-SW 238 ° 0 min 0 W/m² 1,4 °C 3,4 °C 4,8 km/h (1 Bft)
24.12.2024 16:19 22,3 °C 3,3 °C 54 % 87 % 1028,5 hPa 0,0 l/m² 3,5 km/h (1 Bft) W-SW 238 ° 0 min 0 W/m² 1,3 °C 3,3 °C 4,8 km/h (1 Bft)
24.12.2024 16:20 22,3 °C 3,3 °C 54 % 87 % 1028,5 hPa 0,0 l/m² 4,0 km/h (1 Bft) W-SW 238 ° 0 min 0 W/m² 1,3 °C 3,3 °C 6,4 km/h (2 Bft)
24.12.2024 16:21 22,3 °C 3,2 °C 54 % 87 % 1028,5 hPa 0,0 l/m² 4,5 km/h (1 Bft) W-SW 238 ° 0 min 0 W/m² 1,2 °C 3,2 °C 6,4 km/h (2 Bft)
24.12.2024 16:22 22,3 °C 3,2 °C 54 % 87 % 1028,5 hPa 0,0 l/m² 3,1 km/h (1 Bft) W-SW 238 ° 0 min 0 W/m² 1,2 °C 3,2 °C 6,4 km/h (2 Bft)
24.12.2024 16:23 22,3 °C 3,1 °C 54 % 87 % 1028,5 hPa 0,0 l/m² 2,8 km/h (1 Bft) W-SW 238 ° 0 min 0 W/m² 1,2 °C 3,1 °C 4,8 km/h (1 Bft)
24.12.2024 16:24 22,3 °C 3,1 °C 54 % 88 % 1028,6 hPa 0,0 l/m² 2,2 km/h (1 Bft) W-SW 238 ° 0 min 0 W/m² 1,3 °C 3,1 °C 4,8 km/h (1 Bft)
24.12.2024 16:25 22,3 °C 3,1 °C 54 % 88 % 1028,6 hPa 0,0 l/m² 0,3 km/h (0 Bft) W-SW 238 ° 0 min 0 W/m² 1,3 °C 3,1 °C 3,2 km/h (1 Bft)
24.12.2024 16:26 22,3 °C 3,1 °C 54 % 88 % 1028,6 hPa 0,0 l/m² 0,7 km/h (0 Bft) W-SW 238 ° 0 min 0 W/m² 1,3 °C 3,1 °C 3,2 km/h (1 Bft)
24.12.2024 16:27 22,3 °C 3,1 °C 54 % 88 % 1028,6 hPa 0,0 l/m² 1,2 km/h (1 Bft) W-SW 238 ° 0 min 0 W/m² 1,3 °C 3,1 °C 4,8 km/h (1 Bft)
24.12.2024 16:28 22,2 °C 3,1 °C 54 % 88 % 1028,6 hPa 0,0 l/m² 2,1 km/h (1 Bft) W-SW 238 ° 0 min 0 W/m² 1,3 °C 3,1 °C 3,2 km/h (1 Bft)
24.12.2024 16:29 22,2 °C 3,2 °C 54 % 88 % 1028,7 hPa 0,0 l/m² 2,2 km/h (1 Bft) W-SW 238 ° 0 min 0 W/m² 1,4 °C 3,2 °C 3,2 km/h (1 Bft)
24.12.2024 16:30 22,2 °C 3,2 °C 54 % 88 % 1028,7 hPa 0,0 l/m² 1,5 km/h (1 Bft) W-SW 238 ° 0 min 0 W/m² 1,4 °C 3,2 °C 3,2 km/h (1 Bft)
24.12.2024 16:31 22,2 °C 3,2 °C 54 % 88 % 1028,7 hPa 0,0 l/m² 0,9 km/h (0 Bft) W-SW 238 ° 0 min 0 W/m² 1,4 °C 3,2 °C 3,2 km/h (1 Bft)
24.12.2024 16:32 22,3 °C 3,2 °C 54 % 88 % 1028,6 hPa 0,0 l/m² 1,9 km/h (1 Bft) W-SW 238 ° 0 min 0 W/m² 1,4 °C 3,2 °C 3,2 km/h (1 Bft)
24.12.2024 16:33 22,2 °C 3,2 °C 54 % 89 % 1028,7 hPa 0,0 l/m² 2,3 km/h (1 Bft) W-SW 238 ° 0 min 0 W/m² 1,6 °C 3,2 °C 4,8 km/h (1 Bft)
24.12.2024 16:34 22,3 °C 3,2 °C 54 % 89 % 1028,7 hPa 0,0 l/m² 4,6 km/h (1 Bft) W-SW 238 ° 0 min 0 W/m² 1,6 °C 3,2 °C 6,4 km/h (2 Bft)
24.12.2024 16:35 22,2 °C 3,2 °C 54 % 89 % 1028,8 hPa 0,0 l/m² 4,2 km/h (1 Bft) W-SW 238 ° 0 min 0 W/m² 1,6 °C 3,2 °C 6,4 km/h (2 Bft)
24.12.2024 16:36 22,2 °C 3,2 °C 54 % 89 % 1028,7 hPa 0,0 l/m² 5,6 km/h (2 Bft) W-SW 238 ° 0 min 0 W/m² 1,6 °C 3,2 °C 8,0 km/h (2 Bft)
24.12.2024 16:37 22,2 °C 3,2 °C 54 % 89 % 1028,8 hPa 0,0 l/m² 5,2 km/h (1 Bft) W-SW 238 ° 0 min 0 W/m² 1,6 °C 3,2 °C 6,4 km/h (2 Bft)
24.12.2024 16:38 22,2 °C 3,2 °C 54 % 89 % 1028,8 hPa 0,0 l/m² 6,0 km/h (2 Bft) W-SW 237 ° 0 min 0 W/m² 1,6 °C 3,2 °C 8,0 km/h (2 Bft)
24.12.2024 16:39 22,2 °C 3,2 °C 54 % 89 % 1028,9 hPa 0,0 l/m² 4,7 km/h (1 Bft) W-SW 237 ° 0 min 0 W/m² 1,6 °C 3,2 °C 6,4 km/h (2 Bft)
24.12.2024 16:40 22,2 °C 3,2 °C 54 % 89 % 1028,8 hPa 0,0 l/m² 4,8 km/h (1 Bft) W-SW 237 ° 0 min 0 W/m² 1,6 °C 3,2 °C 6,4 km/h (2 Bft)
24.12.2024 16:41 22,2 °C 3,1 °C 54 % 89 % 1028,8 hPa 0,0 l/m² 5,4 km/h (2 Bft) SW 234 ° 0 min 0 W/m² 1,5 °C 3,1 °C 8,0 km/h (2 Bft)
24.12.2024 16:42 22,2 °C 3,1 °C 54 % 89 % 1028,9 hPa 0,0 l/m² 5,7 km/h (2 Bft) SW 234 ° 0 min 0 W/m² 1,5 °C 3,1 °C 6,4 km/h (2 Bft)
24.12.2024 16:43 22,2 °C 3,1 °C 54 % 89 % 1028,8 hPa 0,0 l/m² 5,1 km/h (1 Bft) SW 234 ° 0 min 0 W/m² 1,5 °C 3,1 °C 6,4 km/h (2 Bft)
24.12.2024 16:44 22,2 °C 3,1 °C 54 % 89 % 1028,8 hPa 0,0 l/m² 5,1 km/h (1 Bft) SW 234 ° 0 min 0 W/m² 1,5 °C 3,1 °C 8,0 km/h (2 Bft)
24.12.2024 16:45 22,2 °C 3,1 °C 54 % 89 % 1028,9 hPa 0,0 l/m² 6,9 km/h (2 Bft) SW 233 ° 0 min 0 W/m² 1,5 °C 2,6 °C 8,0 km/h (2 Bft)
24.12.2024 16:46 22,2 °C 3,1 °C 54 % 89 % 1028,9 hPa 0,0 l/m² 5,1 km/h (1 Bft) SW 233 ° 0 min 0 W/m² 1,5 °C 3,1 °C 6,4 km/h (2 Bft)
24.12.2024 16:47 22,2 °C 3,1 °C 54 % 89 % 1028,9 hPa 0,0 l/m² 5,7 km/h (2 Bft) SW 233 ° 0 min 0 W/m² 1,5 °C 3,1 °C 8,0 km/h (2 Bft)
24.12.2024 16:48 22,2 °C 3,1 °C 54 % 89 % 1028,8 hPa 0,0 l/m² 5,8 km/h (2 Bft) SW 233 ° 0 min 0 W/m² 1,5 °C 3,1 °C 8,0 km/h (2 Bft)
24.12.2024 16:49 22,2 °C 3,1 °C 54 % 89 % 1028,9 hPa 0,0 l/m² 7,2 km/h (2 Bft) SW 233 ° 0 min 0 W/m² 1,5 °C 2,3 °C 9,7 km/h (2 Bft)
24.12.2024 16:50 22,2 °C 3,1 °C 54 % 89 % 1028,9 hPa 0,0 l/m² 6,6 km/h (2 Bft) SW 233 ° 0 min 0 W/m² 1,5 °C 2,9 °C 8,0 km/h (2 Bft)
24.12.2024 16:51 22,2 °C 3,1 °C 54 % 89 % 1028,9 hPa 0,0 l/m² 6,8 km/h (2 Bft) SW 231 ° 0 min 0 W/m² 1,5 °C 2,7 °C 11,3 km/h (2 Bft)
24.12.2024 16:52 22,2 °C 3,1 °C 54 % 89 % 1028,9 hPa 0,0 l/m² 6,3 km/h (2 Bft) SW 231 ° 0 min 0 W/m² 1,5 °C 3,1 °C 8,0 km/h (2 Bft)
24.12.2024 16:53 22,2 °C 3,1 °C 54 % 89 % 1028,8 hPa 0,0 l/m² 5,7 km/h (2 Bft) SW 231 ° 0 min 0 W/m² 1,5 °C 3,1 °C 8,0 km/h (2 Bft)
24.12.2024 16:54 22,2 °C 3,1 °C 54 % 89 % 1028,9 hPa 0,0 l/m² 5,3 km/h (1 Bft) SW 231 ° 0 min 0 W/m² 1,5 °C 3,1 °C 8,0 km/h (2 Bft)
24.12.2024 16:55 22,2 °C 3,1 °C 54 % 89 % 1028,9 hPa 0,0 l/m² 3,5 km/h (1 Bft) SW 231 ° 0 min 0 W/m² 1,5 °C 3,1 °C 4,8 km/h (1 Bft)
24.12.2024 16:56 22,2 °C 3,1 °C 54 % 89 % 1028,9 hPa 0,0 l/m² 4,8 km/h (1 Bft) SW 231 ° 0 min 0 W/m² 1,5 °C 3,1 °C 8,0 km/h (2 Bft)
24.12.2024 16:57 22,2 °C 3,1 °C 54 % 89 % 1029,0 hPa 0,0 l/m² 5,2 km/h (1 Bft) SW 231 ° 0 min 0 W/m² 1,5 °C 3,1 °C 6,4 km/h (2 Bft)
24.12.2024 16:58 22,2 °C 3,1 °C 54 % 89 % 1029,0 hPa 0,0 l/m² 6,5 km/h (2 Bft) SW 230 ° 0 min 0 W/m² 1,5 °C 3,0 °C 9,7 km/h (2 Bft)
24.12.2024 16:59 22,2 °C 3,1 °C 54 % 89 % 1029,0 hPa 0,0 l/m² 7,7 km/h (2 Bft) SW 232 ° 0 min 0 W/m² 1,5 °C 1,9 °C 9,7 km/h (2 Bft)
24.12.2024 17:00 22,2 °C 3,1 °C 54 % 89 % 1029,0 hPa 0,0 l/m² 6,5 km/h (2 Bft) SW 232 ° 0 min 0 W/m² 1,5 °C 3,0 °C 8,0 km/h (2 Bft)
24.12.2024 17:01 22,2 °C 3,1 °C 54 % 89 % 1029,0 hPa 0,0 l/m² 8,2 km/h (2 Bft) SW 232 ° 0 min 0 W/m² 1,5 °C 1,4 °C 11,3 km/h (2 Bft)
24.12.2024 17:02 22,2 °C 3,1 °C 54 % 89 % 1029,0 hPa 0,0 l/m² 6,9 km/h (2 Bft) SW 232 ° 0 min 0 W/m² 1,5 °C 2,6 °C 8,0 km/h (2 Bft)
24.12.2024 17:03 22,2 °C 3,1 °C 54 % 89 % 1028,9 hPa 0,0 l/m² 5,2 km/h (1 Bft) SW 232 ° 0 min 0 W/m² 1,5 °C 3,1 °C 6,4 km/h (2 Bft)
24.12.2024 17:04 22,2 °C 3,2 °C 54 % 89 % 1028,9 hPa 0,0 l/m² 5,4 km/h (2 Bft) SW 230 ° 0 min 0 W/m² 1,6 °C 3,2 °C 8,0 km/h (2 Bft)
24.12.2024 17:05 22,2 °C 3,2 °C 54 % 89 % 1028,9 hPa 0,0 l/m² 5,9 km/h (2 Bft) SW 227 ° 0 min 0 W/m² 1,6 °C 3,2 °C 9,7 km/h (2 Bft)
24.12.2024 17:06 22,1 °C 3,2 °C 54 % 89 % 1028,9 hPa 0,0 l/m² 7,8 km/h (2 Bft) SW 227 ° 0 min 0 W/m² 1,6 °C 1,9 °C 9,7 km/h (2 Bft)
24.12.2024 17:07 22,1 °C 3,2 °C 54 % 89 % 1028,9 hPa 0,0 l/m² 5,9 km/h (2 Bft) SW 227 ° 0 min 0 W/m² 1,6 °C 3,2 °C 8,0 km/h (2 Bft)
24.12.2024 17:08 22,2 °C 3,2 °C 54 % 89 % 1028,9 hPa 0,0 l/m² 4,4 km/h (1 Bft) SW 227 ° 0 min 0 W/m² 1,6 °C 3,2 °C 6,4 km/h (2 Bft)
24.12.2024 17:09 22,1 °C 3,2 °C 54 % 89 % 1029,0 hPa 0,0 l/m² 4,3 km/h (1 Bft) SW 227 ° 0 min 0 W/m² 1,6 °C 3,2 °C 6,4 km/h (2 Bft)
24.12.2024 17:10 22,2 °C 3,1 °C 54 % 89 % 1029,0 hPa 0,0 l/m² 3,6 km/h (1 Bft) SW 227 ° 0 min 0 W/m² 1,5 °C 3,1 °C 4,8 km/h (1 Bft)
24.12.2024 17:11 22,2 °C 3,2 °C 54 % 89 % 1029,0 hPa 0,0 l/m² 3,7 km/h (1 Bft) SW 227 ° 0 min 0 W/m² 1,6 °C 3,2 °C 6,4 km/h (2 Bft)
24.12.2024 17:12 22,2 °C 3,2 °C 54 % 89 % 1029,0 hPa 0,0 l/m² 3,9 km/h (1 Bft) SW 227 ° 0 min 0 W/m² 1,6 °C 3,2 °C 6,4 km/h (2 Bft)
24.12.2024 17:13 22,1 °C 3,2 °C 54 % 89 % 1029,0 hPa 0,0 l/m² 2,4 km/h (1 Bft) SW 227 ° 0 min 0 W/m² 1,6 °C 3,2 °C 4,8 km/h (1 Bft)
24.12.2024 17:14 22,1 °C 3,1 °C 54 % 89 % 1029,1 hPa 0,0 l/m² 4,2 km/h (1 Bft) SW 227 ° 0 min 0 W/m² 1,5 °C 3,1 °C 6,4 km/h (2 Bft)
24.12.2024 17:15 22,2 °C 3,2 °C 54 % 89 % 1029,1 hPa 0,0 l/m² 4,8 km/h (1 Bft) SW 227 ° 0 min 0 W/m² 1,6 °C 3,2 °C 8,0 km/h (2 Bft)
24.12.2024 17:16 22,2 °C 3,2 °C 54 % 89 % 1029,0 hPa 0,0 l/m² 6,4 km/h (2 Bft) SW 227 ° 0 min 0 W/m² 1,6 °C 3,2 °C 9,7 km/h (2 Bft)
24.12.2024 17:17 22,2 °C 3,2 °C 54 % 89 % 1029,0 hPa 0,0 l/m² 4,4 km/h (1 Bft) SW 227 ° 0 min 0 W/m² 1,6 °C 3,2 °C 6,4 km/h (2 Bft)
24.12.2024 17:18 22,1 °C 3,2 °C 54 % 89 % 1029,0 hPa 0,0 l/m² 4,2 km/h (1 Bft) SW 227 ° 0 min 0 W/m² 1,6 °C 3,2 °C 6,4 km/h (2 Bft)
24.12.2024 17:19 22,2 °C 3,2 °C 54 % 89 % 1029,1 hPa 0,0 l/m² 5,0 km/h (1 Bft) SW 228 ° 0 min 0 W/m² 1,6 °C 3,2 °C 6,4 km/h (2 Bft)
24.12.2024 17:20 22,1 °C 3,2 °C 54 % 89 % 1029,1 hPa 0,0 l/m² 5,6 km/h (2 Bft) SW 229 ° 0 min 0 W/m² 1,6 °C 3,2 °C 8,0 km/h (2 Bft)
24.12.2024 17:21 22,1 °C 3,2 °C 54 % 89 % 1029,1 hPa 0,0 l/m² 5,8 km/h (2 Bft) SW 236 ° 0 min 0 W/m² 1,6 °C 3,2 °C 8,0 km/h (2 Bft)
24.12.2024 17:22 22,1 °C 3,2 °C 54 % 89 % 1029,1 hPa 0,0 l/m² 6,1 km/h (2 Bft) W-SW 239 ° 0 min 0 W/m² 1,6 °C 3,2 °C 8,0 km/h (2 Bft)
24.12.2024 17:23 22,2 °C 3,2 °C 54 % 89 % 1029,1 hPa 0,0 l/m² 6,1 km/h (2 Bft) W-SW 240 ° 0 min 0 W/m² 1,6 °C 3,2 °C 8,0 km/h (2 Bft)
24.12.2024 17:24 22,2 °C 3,2 °C 54 % 89 % 1029,1 hPa 0,0 l/m² 6,0 km/h (2 Bft) W-SW 241 ° 0 min 0 W/m² 1,6 °C 3,2 °C 8,0 km/h (2 Bft)
24.12.2024 17:25 22,1 °C 3,2 °C 54 % 89 % 1029,1 hPa 0,0 l/m² 6,4 km/h (2 Bft) W-SW 240 ° 0 min 0 W/m² 1,6 °C 3,2 °C 8,0 km/h (2 Bft)
24.12.2024 17:26 22,1 °C 3,2 °C 54 % 89 % 1029,1 hPa 0,0 l/m² 6,9 km/h (2 Bft) W-SW 242 ° 0 min 0 W/m² 1,6 °C 2,7 °C 9,7 km/h (2 Bft)
24.12.2024 17:27 22,1 °C 3,2 °C 54 % 88 % 1029,2 hPa 0,0 l/m² 6,5 km/h (2 Bft) W-SW 244 ° 0 min 0 W/m² 1,4 °C 3,1 °C 8,0 km/h (2 Bft)
24.12.2024 17:28 22,1 °C 3,2 °C 54 % 88 % 1029,2 hPa 0,0 l/m² 7,0 km/h (2 Bft) W-SW 245 ° 0 min 0 W/m² 1,4 °C 2,6 °C 8,0 km/h (2 Bft)
24.12.2024 17:29 22,1 °C 3,2 °C 54 % 88 % 1029,2 hPa 0,0 l/m² 7,8 km/h (2 Bft) W-SW 247 ° 0 min 0 W/m² 1,4 °C 1,9 °C 11,3 km/h (2 Bft)
24.12.2024 17:30 22,1 °C 3,2 °C 54 % 88 % 1029,2 hPa 0,0 l/m² 7,2 km/h (2 Bft) W-SW 249 ° 0 min 0 W/m² 1,4 °C 2,4 °C 11,3 km/h (2 Bft)
24.12.2024 17:31 22,1 °C 3,1 °C 54 % 88 % 1029,3 hPa 0,0 l/m² 5,5 km/h (2 Bft) W-SW 251 ° 0 min 0 W/m² 1,3 °C 3,1 °C 8,0 km/h (2 Bft)
24.12.2024 17:32 22,1 °C 3,1 °C 54 % 88 % 1029,3 hPa 0,0 l/m² 5,1 km/h (1 Bft) W-SW 251 ° 0 min 0 W/m² 1,3 °C 3,1 °C 6,4 km/h (2 Bft)
24.12.2024 17:33 22,1 °C 3,1 °C 54 % 88 % 1029,4 hPa 0,0 l/m² 3,4 km/h (1 Bft) W-SW 251 ° 0 min 0 W/m² 1,3 °C 3,1 °C 6,4 km/h (2 Bft)
24.12.2024 17:34 22,1 °C 3,1 °C 54 % 88 % 1029,4 hPa 0,0 l/m² 4,6 km/h (1 Bft) W-SW 251 ° 0 min 0 W/m² 1,3 °C 3,1 °C 6,4 km/h (2 Bft)
24.12.2024 17:35 22,1 °C 3,1 °C 54 % 88 % 1029,5 hPa 0,0 l/m² 3,0 km/h (1 Bft) W-SW 251 ° 0 min 0 W/m² 1,3 °C 3,1 °C 6,4 km/h (2 Bft)
24.12.2024 17:36 22,1 °C 3,0 °C 54 % 88 % 1029,5 hPa 0,0 l/m² 4,4 km/h (1 Bft) W-SW 251 ° 0 min 0 W/m² 1,2 °C 3,0 °C 6,4 km/h (2 Bft)
24.12.2024 17:37 22,1 °C 3,0 °C 54 % 88 % 1029,5 hPa 0,0 l/m² 3,8 km/h (1 Bft) W-SW 251 ° 0 min 0 W/m² 1,2 °C 3,0 °C 6,4 km/h (2 Bft)
24.12.2024 17:38 22,1 °C 3,0 °C 54 % 88 % 1029,6 hPa 0,0 l/m² 3,9 km/h (1 Bft) W-SW 251 ° 0 min 0 W/m² 1,2 °C 3,0 °C 6,4 km/h (2 Bft)
24.12.2024 17:39 22,1 °C 2,9 °C 54 % 88 % 1029,5 hPa 0,0 l/m² 3,9 km/h (1 Bft) W-SW 251 ° 0 min 0 W/m² 1,1 °C 2,9 °C 4,8 km/h (1 Bft)
24.12.2024 17:40 22,1 °C 2,9 °C 54 % 88 % 1029,5 hPa 0,0 l/m² 5,1 km/h (1 Bft) W-SW 251 ° 0 min 0 W/m² 1,1 °C 2,9 °C 6,4 km/h (2 Bft)
24.12.2024 17:41 22,1 °C 2,9 °C 54 % 88 % 1029,6 hPa 0,0 l/m² 5,2 km/h (1 Bft) W-SW 251 ° 0 min 0 W/m² 1,1 °C 2,9 °C 6,4 km/h (2 Bft)
24.12.2024 17:42 22,1 °C 2,9 °C 54 % 88 % 1029,6 hPa 0,0 l/m² 6,0 km/h (2 Bft) W-SW 258 ° 0 min 0 W/m² 1,1 °C 2,9 °C 9,7 km/h (2 Bft)
24.12.2024 17:43 22,1 °C 2,9 °C 54 % 88 % 1029,5 hPa 0,0 l/m² 5,0 km/h (1 Bft) W-SW 257 ° 0 min 0 W/m² 1,1 °C 2,9 °C 8,0 km/h (2 Bft)
24.12.2024 17:44 22,1 °C 2,9 °C 54 % 88 % 1029,6 hPa 0,0 l/m² 2,1 km/h (1 Bft) W-SW 257 ° 0 min 0 W/m² 1,1 °C 2,9 °C 4,8 km/h (1 Bft)
24.12.2024 17:45 22,1 °C 2,9 °C 54 % 88 % 1029,6 hPa 0,0 l/m² 5,8 km/h (2 Bft) W-SW 257 ° 0 min 0 W/m² 1,1 °C 2,9 °C 8,0 km/h (2 Bft)
24.12.2024 17:46 22,1 °C 2,9 °C 54 % 89 % 1029,6 hPa 0,0 l/m² 6,4 km/h (2 Bft) W 260 ° 0 min 0 W/m² 1,3 °C 2,9 °C 9,7 km/h (2 Bft)
24.12.2024 17:47 22,1 °C 2,9 °C 54 % 89 % 1029,5 hPa 0,0 l/m² 5,7 km/h (2 Bft) W 260 ° 0 min 0 W/m² 1,3 °C 2,9 °C 9,7 km/h (2 Bft)
24.12.2024 17:48 22,1 °C 2,9 °C 54 % 88 % 1029,5 hPa 0,0 l/m² 4,8 km/h (1 Bft) W 259 ° 0 min 0 W/m² 1,1 °C 2,9 °C 6,4 km/h (2 Bft)
24.12.2024 17:49 22,1 °C 3,0 °C 54 % 88 % 1029,5 hPa 0,0 l/m² 5,4 km/h (2 Bft) W 260 ° 0 min 0 W/m² 1,2 °C 3,0 °C 6,4 km/h (2 Bft)
24.12.2024 17:50 22,1 °C 2,9 °C 54 % 88 % 1029,6 hPa 0,0 l/m² 3,3 km/h (1 Bft) W 260 ° 0 min 0 W/m² 1,1 °C 2,9 °C 4,8 km/h (1 Bft)
24.12.2024 17:51 22,1 °C 2,9 °C 54 % 88 % 1029,6 hPa 0,0 l/m² 2,7 km/h (1 Bft) W 260 ° 0 min 0 W/m² 1,1 °C 2,9 °C 4,8 km/h (1 Bft)
24.12.2024 17:52 22,1 °C 2,9 °C 54 % 88 % 1029,5 hPa 0,0 l/m² 4,0 km/h (1 Bft) W 260 ° 0 min 0 W/m² 1,1 °C 2,9 °C 4,8 km/h (1 Bft)
24.12.2024 17:53 22,1 °C 2,8 °C 54 % 88 % 1029,6 hPa 0,0 l/m² 3,6 km/h (1 Bft) W 260 ° 0 min 0 W/m² 1,0 °C 2,8 °C 4,8 km/h (1 Bft)
24.12.2024 17:54 22,1 °C 2,8 °C 54 % 88 % 1029,6 hPa 0,0 l/m² 3,6 km/h (1 Bft) W 260 ° 0 min 0 W/m² 1,0 °C 2,8 °C 4,8 km/h (1 Bft)
24.12.2024 17:55 22,1 °C 2,7 °C 54 % 88 % 1029,5 hPa 0,0 l/m² 3,2 km/h (1 Bft) W 260 ° 0 min 0 W/m² 0,9 °C 2,7 °C 4,8 km/h (1 Bft)
24.12.2024 17:56 22,1 °C 2,6 °C 54 % 88 % 1029,6 hPa 0,0 l/m² 3,7 km/h (1 Bft) W 260 ° 0 min 0 W/m² 0,8 °C 2,6 °C 6,4 km/h (2 Bft)
24.12.2024 17:57 22,1 °C 2,5 °C 54 % 88 % 1029,5 hPa 0,0 l/m² 4,3 km/h (1 Bft) W 260 ° 0 min 0 W/m² 0,7 °C 2,5 °C 6,4 km/h (2 Bft)
24.12.2024 17:58 22,1 °C 2,4 °C 54 % 88 % 1029,5 hPa 0,0 l/m² 3,8 km/h (1 Bft) W 260 ° 0 min 0 W/m² 0,6 °C 2,4 °C 4,8 km/h (1 Bft)
24.12.2024 17:59 22,1 °C 2,3 °C 54 % 88 % 1029,4 hPa 0,0 l/m² 3,1 km/h (1 Bft) W 260 ° 0 min 0 W/m² 0,5 °C 2,3 °C 4,8 km/h (1 Bft)
24.12.2024 18:00 22,1 °C 2,3 °C 54 % 88 % 1029,5 hPa 0,0 l/m² 2,7 km/h (1 Bft) W 260 ° 0 min 0 W/m² 0,5 °C 2,3 °C 3,2 km/h (1 Bft)
24.12.2024 18:01 22,1 °C 2,2 °C 54 % 88 % 1029,4 hPa 0,0 l/m² 2,5 km/h (1 Bft) W 260 ° 0 min 0 W/m² 0,4 °C 2,2 °C 3,2 km/h (1 Bft)
24.12.2024 18:02 22,1 °C 2,2 °C 54 % 88 % 1029,5 hPa 0,0 l/m² 1,9 km/h (1 Bft) W 260 ° 0 min 0 W/m² 0,4 °C 2,2 °C 3,2 km/h (1 Bft)
24.12.2024 18:03 22,1 °C 2,2 °C 54 % 89 % 1029,5 hPa 0,0 l/m² 0,7 km/h (0 Bft) W 260 ° 0 min 0 W/m² 0,6 °C 2,2 °C 3,2 km/h (1 Bft)
24.12.2024 18:04 22,1 °C 2,2 °C 54 % 89 % 1029,6 hPa 0,0 l/m² 0,6 km/h (0 Bft) W 260 ° 0 min 0 W/m² 0,6 °C 2,2 °C 1,6 km/h (1 Bft)
24.12.2024 18:05 22,1 °C 2,3 °C 54 % 89 % 1029,5 hPa 0,0 l/m² 0,2 km/h (0 Bft) W 260 ° 0 min 0 W/m² 0,7 °C 2,3 °C 1,6 km/h (1 Bft)
24.12.2024 18:06 22,1 °C 2,3 °C 54 % 89 % 1029,5 hPa 0,0 l/m² 0,3 km/h (0 Bft) W 260 ° 0 min 0 W/m² 0,7 °C 2,3 °C 1,6 km/h (1 Bft)
24.12.2024 18:07 22,1 °C 2,3 °C 54 % 89 % 1029,6 hPa 0,0 l/m² 0,1 km/h (0 Bft) W 260 ° 0 min 0 W/m² 0,7 °C 2,3 °C 1,6 km/h (1 Bft)
24.12.2024 18:08 22,1 °C 2,4 °C 54 % 89 % 1029,5 hPa 0,0 l/m² 0,7 km/h (0 Bft) W 260 ° 0 min 0 W/m² 0,8 °C 2,4 °C 1,6 km/h (1 Bft)
24.12.2024 18:09 22,1 °C 2,4 °C 54 % 89 % 1029,6 hPa 0,0 l/m² 0,0 km/h (0 Bft) W 260 ° 0 min 0 W/m² 0,8 °C 2,4 °C 0,0 km/h (0 Bft)
24.12.2024 18:10 22,1 °C 2,4 °C 54 % 89 % 1029,6 hPa 0,0 l/m² 0,2 km/h (0 Bft) W 260 ° 0 min 0 W/m² 0,8 °C 2,4 °C 1,6 km/h (1 Bft)
24.12.2024 18:11 22,1 °C 2,4 °C 54 % 89 % 1029,5 hPa 0,0 l/m² 0,0 km/h (0 Bft) W 260 ° 0 min 0 W/m² 0,8 °C 2,4 °C 0,0 km/h (0 Bft)
24.12.2024 18:12 22,1 °C 2,5 °C 54 % 89 % 1029,6 hPa 0,0 l/m² 0,0 km/h (0 Bft) W 260 ° 0 min 0 W/m² 0,9 °C 2,5 °C 0,0 km/h (0 Bft)
24.12.2024 18:13 22,1 °C 2,5 °C 54 % 89 % 1029,6 hPa 0,0 l/m² 0,0 km/h (0 Bft) W 260 ° 0 min 0 W/m² 0,9 °C 2,5 °C 0,0 km/h (0 Bft)
24.12.2024 18:14 22,1 °C 2,5 °C 54 % 89 % 1029,5 hPa 0,0 l/m² 0,1 km/h (0 Bft) W 260 ° 0 min 0 W/m² 0,9 °C 2,5 °C 1,6 km/h (1 Bft)
24.12.2024 18:15 22,1 °C 2,5 °C 54 % 89 % 1029,5 hPa 0,0 l/m² 0,0 km/h (0 Bft) W 260 ° 0 min 0 W/m² 0,9 °C 2,5 °C 0,0 km/h (0 Bft)
24.12.2024 18:16 22,1 °C 2,5 °C 54 % 89 % 1029,6 hPa 0,0 l/m² 0,0 km/h (0 Bft) W 260 ° 0 min 0 W/m² 0,9 °C 2,5 °C 0,0 km/h (0 Bft)
24.12.2024 18:17 22,1 °C 2,5 °C 54 % 89 % 1029,6 hPa 0,0 l/m² 0,0 km/h (0 Bft) W 260 ° 0 min 0 W/m² 0,9 °C 2,5 °C 0,0 km/h (0 Bft)
24.12.2024 18:18 22,1 °C 2,5 °C 54 % 89 % 1029,6 hPa 0,0 l/m² 0,0 km/h (0 Bft) W 260 ° 0 min 0 W/m² 0,9 °C 2,5 °C 0,0 km/h (0 Bft)
24.12.2024 18:19 22,1 °C 2,4 °C 54 % 89 % 1029,6 hPa 0,0 l/m² 0,0 km/h (0 Bft) W 260 ° 0 min 0 W/m² 0,8 °C 2,4 °C 0,0 km/h (0 Bft)
24.12.2024 18:20 22,1 °C 2,4 °C 54 % 89 % 1029,7 hPa 0,0 l/m² 0,0 km/h (0 Bft) W 260 ° 0 min 0 W/m² 0,8 °C 2,4 °C 0,0 km/h (0 Bft)
24.12.2024 18:21 22,1 °C 2,4 °C 54 % 89 % 1029,6 hPa 0,0 l/m² 0,0 km/h (0 Bft) W 260 ° 0 min 0 W/m² 0,8 °C 2,4 °C 0,0 km/h (0 Bft)
24.12.2024 18:22 22,1 °C 2,3 °C 54 % 89 % 1029,6 hPa 0,0 l/m² 0,0 km/h (0 Bft) W 260 ° 0 min 0 W/m² 0,7 °C 2,3 °C 0,0 km/h (0 Bft)
24.12.2024 18:23 22,1 °C 2,3 °C 54 % 89 % 1029,7 hPa 0,0 l/m² 0,0 km/h (0 Bft) W 260 ° 0 min 0 W/m² 0,7 °C 2,3 °C 0,0 km/h (0 Bft)
24.12.2024 18:24 22,1 °C 2,3 °C 54 % 89 % 1029,7 hPa 0,0 l/m² 0,0 km/h (0 Bft) W 260 ° 0 min 0 W/m² 0,7 °C 2,3 °C 0,0 km/h (0 Bft)
24.12.2024 18:25 22,1 °C 2,3 °C 54 % 89 % 1029,8 hPa 0,0 l/m² 0,0 km/h (0 Bft) W 260 ° 0 min 0 W/m² 0,7 °C 2,3 °C 0,0 km/h (0 Bft)
24.12.2024 18:26 22,1 °C 2,3 °C 54 % 89 % 1029,6 hPa 0,0 l/m² 0,0 km/h (0 Bft) W 260 ° 0 min 0 W/m² 0,7 °C 2,3 °C 0,0 km/h (0 Bft)
24.12.2024 18:27 22,1 °C 2,3 °C 54 % 89 % 1029,7 hPa 0,0 l/m² 0,0 km/h (0 Bft) W 260 ° 0 min 0 W/m² 0,7 °C 2,3 °C 0,0 km/h (0 Bft)
24.12.2024 18:28 22,1 °C 2,3 °C 54 % 90 % 1029,7 hPa 0,0 l/m² 0,0 km/h (0 Bft) W 260 ° 0 min 0 W/m² 0,8 °C 2,3 °C 0,0 km/h (0 Bft)
24.12.2024 18:29 22,1 °C 2,3 °C 54 % 90 % 1029,7 hPa 0,0 l/m² 0,0 km/h (0 Bft) W 260 ° 0 min 0 W/m² 0,8 °C 2,3 °C 0,0 km/h (0 Bft)
24.12.2024 18:30 22,1 °C 2,3 °C 54 % 90 % 1029,7 hPa 0,0 l/m² 0,0 km/h (0 Bft) W 260 ° 0 min 0 W/m² 0,8 °C 2,3 °C 0,0 km/h (0 Bft)
24.12.2024 18:31 22,1 °C 2,3 °C 54 % 90 % 1029,8 hPa 0,0 l/m² 0,0 km/h (0 Bft) W 260 ° 0 min 0 W/m² 0,8 °C 2,3 °C 0,0 km/h (0 Bft)
24.12.2024 18:32 22,1 °C 2,4 °C 54 % 90 % 1029,8 hPa 0,0 l/m² 0,0 km/h (0 Bft) W 260 ° 0 min 0 W/m² 0,9 °C 2,4 °C 0,0 km/h (0 Bft)
24.12.2024 18:33 22,1 °C 2,3 °C 54 % 90 % 1029,8 hPa 0,0 l/m² 0,0 km/h (0 Bft) W 260 ° 0 min 0 W/m² 0,8 °C 2,3 °C 0,0 km/h (0 Bft)
24.12.2024 18:34 22,1 °C 2,4 °C 54 % 90 % 1029,7 hPa 0,0 l/m² 0,0 km/h (0 Bft) W 260 ° 0 min 0 W/m² 0,9 °C 2,4 °C 0,0 km/h (0 Bft)
24.12.2024 18:35 22,1 °C 2,4 °C 55 % 90 % 1029,7 hPa 0,0 l/m² 0,0 km/h (0 Bft) W 260 ° 0 min 0 W/m² 0,9 °C 2,4 °C 0,0 km/h (0 Bft)
24.12.2024 18:36 22,1 °C 2,4 °C 55 % 90 % 1029,8 hPa 0,0 l/m² 0,0 km/h (0 Bft) W 260 ° 0 min 0 W/m² 0,9 °C 2,4 °C 0,0 km/h (0 Bft)
24.12.2024 18:37 22,1 °C 2,4 °C 55 % 90 % 1029,8 hPa 0,0 l/m² 0,0 km/h (0 Bft) W 260 ° 0 min 0 W/m² 0,9 °C 2,4 °C 0,0 km/h (0 Bft)
24.12.2024 18:38 22,1 °C 2,4 °C 55 % 90 % 1029,8 hPa 0,0 l/m² 0,0 km/h (0 Bft) W 260 ° 0 min 0 W/m² 0,9 °C 2,4 °C 0,0 km/h (0 Bft)
24.12.2024 18:39 22,1 °C 2,4 °C 55 % 90 % 1029,8 hPa 0,0 l/m² 0,0 km/h (0 Bft) W 260 ° 0 min 0 W/m² 0,9 °C 2,4 °C 0,0 km/h (0 Bft)
24.12.2024 18:40 22,1 °C 2,4 °C 55 % 90 % 1029,8 hPa 0,0 l/m² 0,0 km/h (0 Bft) W 260 ° 0 min 0 W/m² 0,9 °C 2,4 °C 0,0 km/h (0 Bft)
24.12.2024 18:41 22,1 °C 2,4 °C 55 % 90 % 1029,8 hPa 0,0 l/m² 0,1 km/h (0 Bft) W 260 ° 0 min 0 W/m² 0,9 °C 2,4 °C 1,6 km/h (1 Bft)
24.12.2024 18:42 22,1 °C 2,4 °C 55 % 90 % 1029,8 hPa 0,0 l/m² 0,0 km/h (0 Bft) W 260 ° 0 min 0 W/m² 0,9 °C 2,4 °C 0,0 km/h (0 Bft)
24.12.2024 18:43 22,1 °C 2,4 °C 55 % 90 % 1029,8 hPa 0,0 l/m² 0,0 km/h (0 Bft) W 260 ° 0 min 0 W/m² 0,9 °C 2,4 °C 0,0 km/h (0 Bft)
24.12.2024 18:44 22,2 °C 2,3 °C 55 % 90 % 1029,8 hPa 0,0 l/m² 0,0 km/h (0 Bft) W 260 ° 0 min 0 W/m² 0,8 °C 2,3 °C 1,6 km/h (1 Bft)
24.12.2024 18:45 22,2 °C 2,3 °C 55 % 90 % 1029,8 hPa 0,0 l/m² 0,0 km/h (0 Bft) W 260 ° 0 min 0 W/m² 0,8 °C 2,3 °C 1,6 km/h (1 Bft)
24.12.2024 18:46 22,2 °C 2,3 °C 55 % 90 % 1029,8 hPa 0,0 l/m² 0,0 km/h (0 Bft) W 260 ° 0 min 0 W/m² 0,8 °C 2,3 °C 0,0 km/h (0 Bft)
24.12.2024 18:47 22,2 °C 2,3 °C 55 % 90 % 1029,8 hPa 0,0 l/m² 0,0 km/h (0 Bft) W 260 ° 0 min 0 W/m² 0,8 °C 2,3 °C 0,0 km/h (0 Bft)
24.12.2024 18:48 22,2 °C 2,3 °C 55 % 90 % 1029,8 hPa 0,0 l/m² 0,0 km/h (0 Bft) W 260 ° 0 min 0 W/m² 0,8 °C 2,3 °C 0,0 km/h (0 Bft)
24.12.2024 18:49 22,2 °C 2,3 °C 55 % 90 % 1029,8 hPa 0,0 l/m² 0,0 km/h (0 Bft) W 260 ° 0 min 0 W/m² 0,8 °C 2,3 °C 0,0 km/h (0 Bft)
24.12.2024 18:50 22,2 °C 2,3 °C 55 % 90 % 1029,8 hPa 0,0 l/m² 0,0 km/h (0 Bft) W 260 ° 0 min 0 W/m² 0,8 °C 2,3 °C 0,0 km/h (0 Bft)
24.12.2024 18:51 22,2 °C 2,3 °C 55 % 90 % 1029,9 hPa 0,0 l/m² 0,0 km/h (0 Bft) W 260 ° 0 min 0 W/m² 0,8 °C 2,3 °C 0,0 km/h (0 Bft)
24.12.2024 18:52 22,2 °C 2,3 °C 55 % 90 % 1029,9 hPa 0,0 l/m² 0,0 km/h (0 Bft) W 260 ° 0 min 0 W/m² 0,8 °C 2,3 °C 0,0 km/h (0 Bft)
24.12.2024 18:53 22,2 °C 2,3 °C 55 % 90 % 1029,8 hPa 0,0 l/m² 0,0 km/h (0 Bft) W 260 ° 0 min 0 W/m² 0,8 °C 2,3 °C 0,0 km/h (0 Bft)
24.12.2024 18:54 22,2 °C 2,3 °C 55 % 90 % 1029,9 hPa 0,0 l/m² 0,0 km/h (0 Bft) W 260 ° 0 min 0 W/m² 0,8 °C 2,3 °C 0,0 km/h (0 Bft)
24.12.2024 18:55 22,2 °C 2,2 °C 55 % 90 % 1029,8 hPa 0,0 l/m² 0,0 km/h (0 Bft) W 260 ° 0 min 0 W/m² 0,7 °C 2,2 °C 0,0 km/h (0 Bft)
24.12.2024 18:56 22,2 °C 2,2 °C 55 % 90 % 1029,9 hPa 0,0 l/m² 0,0 km/h (0 Bft) W 260 ° 0 min 0 W/m² 0,7 °C 2,2 °C 0,0 km/h (0 Bft)
24.12.2024 18:57 22,2 °C 2,2 °C 55 % 90 % 1029,9 hPa 0,0 l/m² 0,1 km/h (0 Bft) W 260 ° 0 min 0 W/m² 0,7 °C 2,2 °C 1,6 km/h (1 Bft)
24.12.2024 18:58 22,2 °C 2,2 °C 55 % 90 % 1030,0 hPa 0,0 l/m² 0,0 km/h (0 Bft) W 260 ° 0 min 0 W/m² 0,7 °C 2,2 °C 0,0 km/h (0 Bft)
24.12.2024 18:59 22,2 °C 2,2 °C 55 % 90 % 1029,9 hPa 0,0 l/m² 0,5 km/h (0 Bft) W 260 ° 0 min 0 W/m² 0,7 °C 2,2 °C 1,6 km/h (1 Bft)
24.12.2024 19:00 22,2 °C 2,1 °C 55 % 90 % 1030,0 hPa 0,0 l/m² 1,3 km/h (1 Bft) W 260 ° 0 min 0 W/m² 0,6 °C 2,1 °C 3,2 km/h (1 Bft)
24.12.2024 19:02 22,2 °C 2,1 °C 55 % 90 % 1029,8 hPa 0,0 l/m² 0,0 km/h (0 Bft) W 260 ° 0 min 0 W/m² 0,6 °C 2,1 °C 0,0 km/h (0 Bft)
24.12.2024 19:03 22,2 °C 2,1 °C 55 % 90 % 1029,8 hPa 0,0 l/m² 0,0 km/h (0 Bft) W 260 ° 0 min 0 W/m² 0,6 °C 2,1 °C 0,0 km/h (0 Bft)
24.12.2024 19:04 22,2 °C 2,1 °C 55 % 90 % 1029,9 hPa 0,0 l/m² 0,0 km/h (0 Bft) W 260 ° 0 min 0 W/m² 0,6 °C 2,1 °C 0,0 km/h (0 Bft)
24.12.2024 19:05 22,2 °C 2,0 °C 55 % 89 % 1029,9 hPa 0,0 l/m² 0,0 km/h (0 Bft) W 260 ° 0 min 0 W/m² 0,4 °C 2,0 °C 0,0 km/h (0 Bft)
24.12.2024 19:06 22,2 °C 1,9 °C 55 % 89 % 1030,0 hPa 0,0 l/m² 0,1 km/h (0 Bft) W 260 ° 0 min 0 W/m² 0,3 °C 1,9 °C 1,6 km/h (1 Bft)
24.12.2024 19:07 22,2 °C 1,9 °C 55 % 90 % 1029,9 hPa 0,0 l/m² 0,0 km/h (0 Bft) W 260 ° 0 min 0 W/m² 0,4 °C 1,9 °C 0,0 km/h (0 Bft)
24.12.2024 19:08 22,2 °C 1,9 °C 55 % 90 % 1029,9 hPa 0,0 l/m² 0,0 km/h (0 Bft) W 260 ° 0 min 0 W/m² 0,4 °C 1,9 °C 0,0 km/h (0 Bft)
24.12.2024 19:09 22,2 °C 1,9 °C 55 % 90 % 1030,0 hPa 0,0 l/m² 0,0 km/h (0 Bft) W 260 ° 0 min 0 W/m² 0,4 °C 1,9 °C 0,0 km/h (0 Bft)
24.12.2024 19:10 22,2 °C 1,9 °C 55 % 90 % 1030,0 hPa 0,0 l/m² 0,3 km/h (0 Bft) W 260 ° 0 min 0 W/m² 0,4 °C 1,9 °C 1,6 km/h (1 Bft)
24.12.2024 19:11 22,2 °C 2,0 °C 55 % 90 % 1030,0 hPa 0,0 l/m² 0,0 km/h (0 Bft) W 260 ° 0 min 0 W/m² 0,5 °C 2,0 °C 0,0 km/h (0 Bft)
24.12.2024 19:12 22,2 °C 1,9 °C 55 % 90 % 1030,0 hPa 0,0 l/m² 0,0 km/h (0 Bft) W 260 ° 0 min 0 W/m² 0,4 °C 1,9 °C 0,0 km/h (0 Bft)
24.12.2024 19:13 22,2 °C 1,9 °C 55 % 90 % 1030,0 hPa 0,0 l/m² 0,0 km/h (0 Bft) W 260 ° 0 min 0 W/m² 0,4 °C 1,9 °C 0,0 km/h (0 Bft)
24.12.2024 19:14 22,2 °C 1,8 °C 55 % 89 % 1030,1 hPa 0,0 l/m² 0,0 km/h (0 Bft) W 260 ° 0 min 0 W/m² 0,2 °C 1,8 °C 0,0 km/h (0 Bft)
24.12.2024 19:15 22,2 °C 1,7 °C 55 % 89 % 1030,1 hPa 0,0 l/m² 0,0 km/h (0 Bft) W 260 ° 0 min 0 W/m² 0,1 °C 1,7 °C 0,0 km/h (0 Bft)
24.12.2024 19:16 22,2 °C 1,7 °C 55 % 89 % 1030,0 hPa 0,0 l/m² 0,0 km/h (0 Bft) W 260 ° 0 min 0 W/m² 0,1 °C 1,7 °C 0,0 km/h (0 Bft)
24.12.2024 19:17 22,3 °C 1,7 °C 55 % 89 % 1030,2 hPa 0,0 l/m² 0,0 km/h (0 Bft) W 259 ° 0 min 0 W/m² 0,1 °C 1,7 °C 0,0 km/h (0 Bft)
24.12.2024 19:18 22,3 °C 1,6 °C 55 % 90 % 1030,2 hPa 0,0 l/m² 0,0 km/h (0 Bft) W 260 ° 0 min 0 W/m² 0,1 °C 1,6 °C 0,0 km/h (0 Bft)
24.12.2024 19:19 22,3 °C 1,6 °C 55 % 90 % 1030,2 hPa 0,0 l/m² 0,0 km/h (0 Bft) W 260 ° 0 min 0 W/m² 0,1 °C 1,6 °C 0,0 km/h (0 Bft)
24.12.2024 19:20 22,3 °C 1,6 °C 55 % 90 % 1030,3 hPa 0,0 l/m² 0,0 km/h (0 Bft) W 260 ° 0 min 0 W/m² 0,1 °C 1,6 °C 0,0 km/h (0 Bft)
24.12.2024 19:21 22,3 °C 1,7 °C 55 % 90 % 1030,2 hPa 0,0 l/m² 0,0 km/h (0 Bft) W 260 ° 0 min 0 W/m² 0,2 °C 1,7 °C 0,0 km/h (0 Bft)
24.12.2024 19:22 22,3 °C 1,7 °C 55 % 90 % 1030,3 hPa 0,0 l/m² 0,0 km/h (0 Bft) W 260 ° 0 min 0 W/m² 0,2 °C 1,7 °C 0,0 km/h (0 Bft)
24.12.2024 19:23 22,3 °C 1,7 °C 55 % 90 % 1030,3 hPa 0,0 l/m² 0,0 km/h (0 Bft) W 260 ° 0 min 0 W/m² 0,2 °C 1,7 °C 0,0 km/h (0 Bft)
24.12.2024 19:24 22,2 °C 1,7 °C 55 % 90 % 1030,4 hPa 0,0 l/m² 0,0 km/h (0 Bft) W 260 ° 0 min 0 W/m² 0,2 °C 1,7 °C 0,0 km/h (0 Bft)
24.12.2024 19:25 22,3 °C 1,7 °C 55 % 90 % 1030,4 hPa 0,0 l/m² 0,0 km/h (0 Bft) W 260 ° 0 min 0 W/m² 0,2 °C 1,7 °C 0,0 km/h (0 Bft)
24.12.2024 19:26 22,3 °C 1,7 °C 55 % 90 % 1030,4 hPa 0,0 l/m² 0,0 km/h (0 Bft) W 260 ° 0 min 0 W/m² 0,2 °C 1,7 °C 0,0 km/h (0 Bft)
24.12.2024 19:27 22,3 °C 1,7 °C 55 % 90 % 1030,4 hPa 0,0 l/m² 0,0 km/h (0 Bft) W 260 ° 0 min 0 W/m² 0,2 °C 1,7 °C 0,0 km/h (0 Bft)
24.12.2024 19:28 22,3 °C 1,7 °C 55 % 90 % 1030,4 hPa 0,0 l/m² 0,0 km/h (0 Bft) W 260 ° 0 min 0 W/m² 0,2 °C 1,7 °C 0,0 km/h (0 Bft)
24.12.2024 19:29 22,3 °C 1,7 °C 55 % 90 % 1030,4 hPa 0,0 l/m² 0,0 km/h (0 Bft) W 260 ° 0 min 0 W/m² 0,2 °C 1,7 °C 0,0 km/h (0 Bft)
24.12.2024 19:30 22,3 °C 1,7 °C 55 % 90 % 1030,4 hPa 0,0 l/m² 0,0 km/h (0 Bft) W 260 ° 0 min 0 W/m² 0,2 °C 1,7 °C 0,0 km/h (0 Bft)
24.12.2024 19:31 22,3 °C 1,7 °C 55 % 90 % 1030,5 hPa 0,0 l/m² 0,0 km/h (0 Bft) W 260 ° 0 min 0 W/m² 0,2 °C 1,7 °C 0,0 km/h (0 Bft)
24.12.2024 19:32 22,3 °C 1,7 °C 55 % 90 % 1030,5 hPa 0,0 l/m² 0,0 km/h (0 Bft) W 260 ° 0 min 0 W/m² 0,2 °C 1,7 °C 0,0 km/h (0 Bft)
24.12.2024 19:33 22,3 °C 1,7 °C 55 % 90 % 1030,5 hPa 0,0 l/m² 0,0 km/h (0 Bft) W 260 ° 0 min 0 W/m² 0,2 °C 1,7 °C 0,0 km/h (0 Bft)
24.12.2024 19:34 22,3 °C 1,7 °C 55 % 91 % 1030,5 hPa 0,0 l/m² 0,0 km/h (0 Bft) W 260 ° 0 min 0 W/m² 0,4 °C 1,7 °C 0,0 km/h (0 Bft)
24.12.2024 19:35 22,3 °C 1,7 °C 55 % 90 % 1030,5 hPa 0,0 l/m² 0,0 km/h (0 Bft) W 260 ° 0 min 0 W/m² 0,2 °C 1,7 °C 0,0 km/h (0 Bft)
24.12.2024 19:36 22,3 °C 1,7 °C 55 % 90 % 1030,6 hPa 0,0 l/m² 0,0 km/h (0 Bft) W 260 ° 0 min 0 W/m² 0,2 °C 1,7 °C 0,0 km/h (0 Bft)
24.12.2024 19:37 22,3 °C 1,6 °C 55 % 90 % 1030,5 hPa 0,0 l/m² 0,0 km/h (0 Bft) W 260 ° 0 min 0 W/m² 0,1 °C 1,6 °C 0,0 km/h (0 Bft)
24.12.2024 19:38 22,3 °C 1,6 °C 56 % 90 % 1030,6 hPa 0,0 l/m² 0,0 km/h (0 Bft) W 260 ° 0 min 0 W/m² 0,1 °C 1,6 °C 0,0 km/h (0 Bft)
24.12.2024 19:39 22,3 °C 1,6 °C 56 % 90 % 1030,5 hPa 0,0 l/m² 0,0 km/h (0 Bft) W 260 ° 0 min 0 W/m² 0,1 °C 1,6 °C 0,0 km/h (0 Bft)
24.12.2024 19:40 22,3 °C 1,6 °C 55 % 90 % 1030,5 hPa 0,0 l/m² 0,0 km/h (0 Bft) W 260 ° 0 min 0 W/m² 0,1 °C 1,6 °C 0,0 km/h (0 Bft)
24.12.2024 19:42 22,3 °C 1,6 °C 56 % 90 % 1030,5 hPa 0,0 l/m² 0,0 km/h (0 Bft) W 260 ° 0 min 0 W/m² 0,1 °C 1,6 °C 0,0 km/h (0 Bft)
24.12.2024 19:43 22,3 °C 1,6 °C 56 % 90 % 1030,5 hPa 0,0 l/m² 0,0 km/h (0 Bft) W 260 ° 0 min 0 W/m² 0,1 °C 1,6 °C 0,0 km/h (0 Bft)
24.12.2024 19:44 22,3 °C 1,5 °C 56 % 90 % 1030,5 hPa 0,0 l/m² 0,0 km/h (0 Bft) W 260 ° 0 min 0 W/m² 0,0 °C 1,5 °C 0,0 km/h (0 Bft)
24.12.2024 19:45 22,3 °C 1,5 °C 56 % 90 % 1030,5 hPa 0,0 l/m² 0,0 km/h (0 Bft) W 260 ° 0 min 0 W/m² 0,0 °C 1,5 °C 0,0 km/h (0 Bft)
24.12.2024 19:46 22,3 °C 1,4 °C 56 % 90 % 1030,5 hPa 0,0 l/m² 0,0 km/h (0 Bft) W 260 ° 0 min 0 W/m² -0,1 °C 1,4 °C 0,0 km/h (0 Bft)
24.12.2024 19:47 22,3 °C 1,4 °C 56 % 90 % 1030,5 hPa 0,0 l/m² 0,0 km/h (0 Bft) W 260 ° 0 min 0 W/m² -0,1 °C 1,4 °C 0,0 km/h (0 Bft)
24.12.2024 19:48 22,3 °C 1,4 °C 56 % 90 % 1030,6 hPa 0,0 l/m² 0,0 km/h (0 Bft) W 260 ° 0 min 0 W/m² -0,1 °C 1,4 °C 0,0 km/h (0 Bft)
24.12.2024 19:49 22,3 °C 1,4 °C 56 % 91 % 1030,6 hPa 0,0 l/m² 0,0 km/h (0 Bft) W 260 ° 0 min 0 W/m² 0,1 °C 1,4 °C 0,0 km/h (0 Bft)
24.12.2024 19:50 22,3 °C 1,4 °C 56 % 91 % 1030,7 hPa 0,0 l/m² 0,0 km/h (0 Bft) W 260 ° 0 min 0 W/m² 0,1 °C 1,4 °C 0,0 km/h (0 Bft)
24.12.2024 19:51 22,3 °C 1,4 °C 56 % 91 % 1030,7 hPa 0,0 l/m² 0,9 km/h (0 Bft) W 260 ° 0 min 0 W/m² 0,1 °C 1,4 °C 3,2 km/h (1 Bft)
24.12.2024 19:52 22,3 °C 1,4 °C 56 % 91 % 1030,7 hPa 0,0 l/m² 0,1 km/h (0 Bft) W 260 ° 0 min 0 W/m² 0,1 °C 1,4 °C 1,6 km/h (1 Bft)
24.12.2024 19:53 22,3 °C 1,4 °C 56 % 91 % 1030,7 hPa 0,0 l/m² 0,0 km/h (0 Bft) W 260 ° 0 min 0 W/m² 0,1 °C 1,4 °C 0,0 km/h (0 Bft)
24.12.2024 19:54 22,3 °C 1,4 °C 56 % 91 % 1030,7 hPa 0,0 l/m² 0,0 km/h (0 Bft) W 260 ° 0 min 0 W/m² 0,1 °C 1,4 °C 0,0 km/h (0 Bft)
24.12.2024 19:55 22,3 °C 1,4 °C 56 % 91 % 1030,7 hPa 0,0 l/m² 0,0 km/h (0 Bft) W 260 ° 0 min 0 W/m² 0,1 °C 1,4 °C 0,0 km/h (0 Bft)
24.12.2024 19:56 22,3 °C 1,4 °C 55 % 91 % 1030,7 hPa 0,0 l/m² 0,0 km/h (0 Bft) W 260 ° 0 min 0 W/m² 0,1 °C 1,4 °C 0,0 km/h (0 Bft)
24.12.2024 19:57 22,3 °C 1,4 °C 54 % 91 % 1030,7 hPa 0,0 l/m² 0,0 km/h (0 Bft) W 260 ° 0 min 0 W/m² 0,1 °C 1,4 °C 0,0 km/h (0 Bft)
24.12.2024 19:58 22,3 °C 1,4 °C 54 % 91 % 1030,7 hPa 0,0 l/m² 0,0 km/h (0 Bft) W 260 ° 0 min 0 W/m² 0,1 °C 1,4 °C 0,0 km/h (0 Bft)
24.12.2024 19:59 22,3 °C 1,4 °C 54 % 91 % 1030,7 hPa 0,0 l/m² 0,0 km/h (0 Bft) W 260 ° 0 min 0 W/m² 0,1 °C 1,4 °C 0,0 km/h (0 Bft)
24.12.2024 20:00 22,3 °C 1,4 °C 53 % 91 % 1030,7 hPa 0,0 l/m² 0,0 km/h (0 Bft) W 260 ° 0 min 0 W/m² 0,1 °C 1,4 °C 0,0 km/h (0 Bft)
24.12.2024 20:01 22,3 °C 1,4 °C 53 % 91 % 1030,7 hPa 0,0 l/m² 0,0 km/h (0 Bft) W 260 ° 0 min 0 W/m² 0,1 °C 1,4 °C 0,0 km/h (0 Bft)
24.12.2024 20:02 22,3 °C 1,4 °C 53 % 91 % 1030,7 hPa 0,0 l/m² 0,0 km/h (0 Bft) W 260 ° 0 min 0 W/m² 0,1 °C 1,4 °C 0,0 km/h (0 Bft)
24.12.2024 20:03 22,3 °C 1,4 °C 53 % 91 % 1030,6 hPa 0,0 l/m² 0,0 km/h (0 Bft) W 260 ° 0 min 0 W/m² 0,1 °C 1,4 °C 0,0 km/h (0 Bft)
24.12.2024 20:04 22,3 °C 1,4 °C 53 % 91 % 1030,7 hPa 0,0 l/m² 0,0 km/h (0 Bft) W 260 ° 0 min 0 W/m² 0,1 °C 1,4 °C 0,0 km/h (0 Bft)
24.12.2024 20:05 22,3 °C 1,4 °C 53 % 91 % 1030,7 hPa 0,0 l/m² 0,0 km/h (0 Bft) W 260 ° 0 min 0 W/m² 0,1 °C 1,4 °C 0,0 km/h (0 Bft)
24.12.2024 20:06 22,3 °C 1,4 °C 53 % 91 % 1030,7 hPa 0,0 l/m² 0,0 km/h (0 Bft) W 260 ° 0 min 0 W/m² 0,1 °C 1,4 °C 0,0 km/h (0 Bft)
24.12.2024 20:07 22,4 °C 1,4 °C 54 % 91 % 1030,6 hPa 0,0 l/m² 0,0 km/h (0 Bft) W 260 ° 0 min 0 W/m² 0,1 °C 1,4 °C 0,0 km/h (0 Bft)
24.12.2024 20:08 22,4 °C 1,4 °C 54 % 91 % 1030,7 hPa 0,0 l/m² 0,0 km/h (0 Bft) W 260 ° 0 min 0 W/m² 0,1 °C 1,4 °C 0,0 km/h (0 Bft)
24.12.2024 20:09 22,4 °C 1,4 °C 54 % 91 % 1030,7 hPa 0,0 l/m² 0,0 km/h (0 Bft) W 260 ° 0 min 0 W/m² 0,1 °C 1,4 °C 0,0 km/h (0 Bft)
24.12.2024 20:10 22,4 °C 1,4 °C 54 % 91 % 1030,6 hPa 0,0 l/m² 0,0 km/h (0 Bft) W 260 ° 0 min 0 W/m² 0,1 °C 1,4 °C 0,0 km/h (0 Bft)
24.12.2024 20:11 22,4 °C 1,4 °C 54 % 91 % 1030,6 hPa 0,0 l/m² 0,0 km/h (0 Bft) W 260 ° 0 min 0 W/m² 0,1 °C 1,4 °C 0,0 km/h (0 Bft)
24.12.2024 20:12 22,4 °C 1,4 °C 54 % 91 % 1030,6 hPa 0,0 l/m² 0,0 km/h (0 Bft) W 260 ° 0 min 0 W/m² 0,1 °C 1,4 °C 0,0 km/h (0 Bft)
24.12.2024 20:13 22,4 °C 1,4 °C 54 % 91 % 1030,7 hPa 0,0 l/m² 0,0 km/h (0 Bft) W 260 ° 0 min 0 W/m² 0,1 °C 1,4 °C 0,0 km/h (0 Bft)
24.12.2024 20:14 22,4 °C 1,4 °C 54 % 91 % 1030,6 hPa 0,0 l/m² 0,0 km/h (0 Bft) W 260 ° 0 min 0 W/m² 0,1 °C 1,4 °C 0,0 km/h (0 Bft)
24.12.2024 20:15 22,4 °C 1,4 °C 54 % 91 % 1030,6 hPa 0,0 l/m² 0,0 km/h (0 Bft) W 260 ° 0 min 0 W/m² 0,1 °C 1,4 °C 0,0 km/h (0 Bft)
24.12.2024 20:16 22,5 °C 1,4 °C 54 % 91 % 1030,7 hPa 0,0 l/m² 0,0 km/h (0 Bft) W 260 ° 0 min 0 W/m² 0,1 °C 1,4 °C 0,0 km/h (0 Bft)
24.12.2024 20:17 22,4 °C 1,4 °C 54 % 91 % 1030,7 hPa 0,0 l/m² 0,0 km/h (0 Bft) W 260 ° 0 min 0 W/m² 0,1 °C 1,4 °C 0,0 km/h (0 Bft)
24.12.2024 20:18 22,5 °C 1,4 °C 54 % 91 % 1030,7 hPa 0,0 l/m² 0,0 km/h (0 Bft) W 260 ° 0 min 0 W/m² 0,1 °C 1,4 °C 0,0 km/h (0 Bft)
24.12.2024 20:19 22,5 °C 1,4 °C 54 % 91 % 1030,6 hPa 0,0 l/m² 0,0 km/h (0 Bft) W 260 ° 0 min 0 W/m² 0,1 °C 1,4 °C 0,0 km/h (0 Bft)
24.12.2024 20:20 22,6 °C 1,4 °C 54 % 91 % 1030,7 hPa 0,0 l/m² 0,0 km/h (0 Bft) W 260 ° 0 min 0 W/m² 0,1 °C 1,4 °C 0,0 km/h (0 Bft)
24.12.2024 20:21 22,5 °C 1,3 °C 54 % 91 % 1030,6 hPa 0,0 l/m² 0,1 km/h (0 Bft) W 260 ° 0 min 0 W/m² -0,0 °C 1,3 °C 1,6 km/h (1 Bft)
24.12.2024 20:22 22,6 °C 1,3 °C 54 % 91 % 1030,6 hPa 0,0 l/m² 0,0 km/h (0 Bft) W 260 ° 0 min 0 W/m² -0,0 °C 1,3 °C 0,0 km/h (0 Bft)
24.12.2024 20:23 22,6 °C 1,3 °C 54 % 91 % 1030,6 hPa 0,0 l/m² 0,2 km/h (0 Bft) W 260 ° 0 min 0 W/m² -0,0 °C 1,3 °C 1,6 km/h (1 Bft)
24.12.2024 20:24 22,6 °C 1,3 °C 54 % 91 % 1030,6 hPa 0,0 l/m² 0,5 km/h (0 Bft) W 260 ° 0 min 0 W/m² -0,0 °C 1,3 °C 1,6 km/h (1 Bft)
24.12.2024 20:25 22,6 °C 1,3 °C 54 % 91 % 1030,6 hPa 0,0 l/m² 0,0 km/h (0 Bft) W 260 ° 0 min 0 W/m² -0,0 °C 1,3 °C 0,0 km/h (0 Bft)
24.12.2024 20:26 22,6 °C 1,3 °C 54 % 91 % 1030,6 hPa 0,0 l/m² 0,1 km/h (0 Bft) W 260 ° 0 min 0 W/m² -0,0 °C 1,3 °C 1,6 km/h (1 Bft)
24.12.2024 20:27 22,6 °C 1,3 °C 54 % 91 % 1030,7 hPa 0,0 l/m² 0,0 km/h (0 Bft) W 260 ° 0 min 0 W/m² -0,0 °C 1,3 °C 0,0 km/h (0 Bft)
24.12.2024 20:28 22,6 °C 1,3 °C 54 % 91 % 1030,7 hPa 0,0 l/m² 0,1 km/h (0 Bft) W 260 ° 0 min 0 W/m² -0,0 °C 1,3 °C 1,6 km/h (1 Bft)
24.12.2024 20:29 22,6 °C 1,3 °C 54 % 91 % 1030,7 hPa 0,0 l/m² 0,0 km/h (0 Bft) W 260 ° 0 min 0 W/m² -0,0 °C 1,3 °C 0,0 km/h (0 Bft)
24.12.2024 20:30 22,7 °C 1,2 °C 54 % 91 % 1030,6 hPa 0,0 l/m² 0,7 km/h (0 Bft) W 260 ° 0 min 0 W/m² -0,1 °C 1,2 °C 3,2 km/h (1 Bft)
24.12.2024 20:31 22,7 °C 1,3 °C 54 % 91 % 1030,6 hPa 0,0 l/m² 1,9 km/h (1 Bft) W 260 ° 0 min 0 W/m² -0,0 °C 1,3 °C 3,2 km/h (1 Bft)
24.12.2024 20:32 22,7 °C 1,2 °C 54 % 91 % 1030,5 hPa 0,0 l/m² 0,6 km/h (0 Bft) W 260 ° 0 min 0 W/m² -0,1 °C 1,2 °C 1,6 km/h (1 Bft)
24.12.2024 20:33 22,7 °C 1,3 °C 54 % 91 % 1030,6 hPa 0,0 l/m² 0,1 km/h (0 Bft) W 260 ° 0 min 0 W/m² -0,0 °C 1,3 °C 1,6 km/h (1 Bft)
24.12.2024 20:34 22,7 °C 1,3 °C 54 % 91 % 1030,7 hPa 0,0 l/m² 0,0 km/h (0 Bft) W 260 ° 0 min 0 W/m² -0,0 °C 1,3 °C 0,0 km/h (0 Bft)
24.12.2024 20:35 22,7 °C 1,3 °C 54 % 91 % 1030,6 hPa 0,0 l/m² 0,0 km/h (0 Bft) W 260 ° 0 min 0 W/m² -0,0 °C 1,3 °C 0,0 km/h (0 Bft)
24.12.2024 20:37 22,7 °C 1,3 °C 54 % 91 % 1030,8 hPa 0,0 l/m² 0,0 km/h (0 Bft) W 260 ° 0 min 0 W/m² -0,0 °C 1,3 °C 0,0 km/h (0 Bft)
24.12.2024 20:38 22,7 °C 1,3 °C 54 % 91 % 1030,8 hPa 0,0 l/m² 0,7 km/h (0 Bft) W 260 ° 0 min 0 W/m² -0,0 °C 1,3 °C 3,2 km/h (1 Bft)
24.12.2024 20:39 22,7 °C 1,3 °C 54 % 91 % 1030,7 hPa 0,0 l/m² 0,0 km/h (0 Bft) W 260 ° 0 min 0 W/m² -0,0 °C 1,3 °C 0,0 km/h (0 Bft)
24.12.2024 20:40 22,7 °C 1,3 °C 54 % 91 % 1030,6 hPa 0,0 l/m² 0,0 km/h (0 Bft) W 260 ° 0 min 0 W/m² -0,0 °C 1,3 °C 0,0 km/h (0 Bft)
24.12.2024 20:41 22,7 °C 1,3 °C 54 % 91 % 1030,7 hPa 0,0 l/m² 0,0 km/h (0 Bft) W 260 ° 0 min 0 W/m² -0,0 °C 1,3 °C 0,0 km/h (0 Bft)
24.12.2024 20:42 22,8 °C 1,3 °C 54 % 91 % 1030,6 hPa 0,0 l/m² 0,0 km/h (0 Bft) W 260 ° 0 min 0 W/m² -0,0 °C 1,3 °C 0,0 km/h (0 Bft)
24.12.2024 20:43 22,8 °C 1,3 °C 54 % 91 % 1030,7 hPa 0,0 l/m² 0,0 km/h (0 Bft) W 260 ° 0 min 0 W/m² -0,0 °C 1,3 °C 0,0 km/h (0 Bft)
24.12.2024 20:44 22,8 °C 1,3 °C 54 % 91 % 1030,8 hPa 0,0 l/m² 0,0 km/h (0 Bft) W 260 ° 0 min 0 W/m² -0,0 °C 1,3 °C 0,0 km/h (0 Bft)
24.12.2024 20:45 22,8 °C 1,3 °C 54 % 92 % 1030,8 hPa 0,0 l/m² 0,0 km/h (0 Bft) W 260 ° 0 min 0 W/m² 0,1 °C 1,3 °C 0,0 km/h (0 Bft)
24.12.2024 20:46 22,8 °C 1,3 °C 54 % 92 % 1030,8 hPa 0,0 l/m² 0,0 km/h (0 Bft) W 260 ° 0 min 0 W/m² 0,1 °C 1,3 °C 0,0 km/h (0 Bft)
24.12.2024 20:47 22,8 °C 1,3 °C 54 % 92 % 1030,7 hPa 0,0 l/m² 0,0 km/h (0 Bft) W 259 ° 0 min 0 W/m² 0,1 °C 1,3 °C 0,0 km/h (0 Bft)
24.12.2024 20:48 22,8 °C 1,3 °C 54 % 91 % 1030,7 hPa 0,0 l/m² 0,1 km/h (0 Bft) W 260 ° 0 min 0 W/m² -0,0 °C 1,3 °C 1,6 km/h (1 Bft)
24.12.2024 20:49 22,8 °C 1,3 °C 54 % 91 % 1030,7 hPa 0,0 l/m² 0,0 km/h (0 Bft) W 260 ° 0 min 0 W/m² -0,0 °C 1,3 °C 0,0 km/h (0 Bft)
24.12.2024 20:50 22,8 °C 1,3 °C 54 % 91 % 1030,8 hPa 0,0 l/m² 0,0 km/h (0 Bft) W 260 ° 0 min 0 W/m² -0,0 °C 1,3 °C 0,0 km/h (0 Bft)
24.12.2024 20:51 22,9 °C 1,3 °C 54 % 91 % 1030,9 hPa 0,0 l/m² 0,0 km/h (0 Bft) W 260 ° 0 min 0 W/m² -0,0 °C 1,3 °C 0,0 km/h (0 Bft)
24.12.2024 20:52 22,8 °C 1,3 °C 54 % 91 % 1030,9 hPa 0,0 l/m² 0,0 km/h (0 Bft) W 260 ° 0 min 0 W/m² -0,0 °C 1,3 °C 0,0 km/h (0 Bft)
24.12.2024 20:53 22,9 °C 1,3 °C 54 % 91 % 1030,9 hPa 0,0 l/m² 0,0 km/h (0 Bft) W 260 ° 0 min 0 W/m² -0,0 °C 1,3 °C 0,0 km/h (0 Bft)
24.12.2024 20:54 22,9 °C 1,3 °C 54 % 91 % 1030,9 hPa 0,0 l/m² 0,0 km/h (0 Bft) W 260 ° 0 min 0 W/m² -0,0 °C 1,3 °C 0,0 km/h (0 Bft)
24.12.2024 20:55 22,9 °C 1,3 °C 54 % 91 % 1031,0 hPa 0,0 l/m² 0,0 km/h (0 Bft) W 260 ° 0 min 0 W/m² -0,0 °C 1,3 °C 0,0 km/h (0 Bft)
24.12.2024 20:56 22,9 °C 1,3 °C 54 % 91 % 1031,0 hPa 0,0 l/m² 0,0 km/h (0 Bft) W 260 ° 0 min 0 W/m² -0,0 °C 1,3 °C 0,0 km/h (0 Bft)
24.12.2024 20:57 22,9 °C 1,3 °C 54 % 91 % 1031,0 hPa 0,0 l/m² 0,0 km/h (0 Bft) W 260 ° 0 min 0 W/m² -0,0 °C 1,3 °C 0,0 km/h (0 Bft)
24.12.2024 20:58 22,9 °C 1,3 °C 54 % 91 % 1031,0 hPa 0,0 l/m² 0,0 km/h (0 Bft) W 260 ° 0 min 0 W/m² -0,0 °C 1,3 °C 0,0 km/h (0 Bft)
24.12.2024 20:59 22,9 °C 1,3 °C 54 % 91 % 1031,0 hPa 0,0 l/m² 0,0 km/h (0 Bft) W 260 ° 0 min 0 W/m² -0,0 °C 1,3 °C 0,0 km/h (0 Bft)
24.12.2024 21:00 22,9 °C 1,3 °C 54 % 91 % 1030,9 hPa 0,0 l/m² 0,6 km/h (0 Bft) W 260 ° 0 min 0 W/m² -0,0 °C 1,3 °C 1,6 km/h (1 Bft)
24.12.2024 21:01 22,9 °C 1,2 °C 54 % 91 % 1031,0 hPa 0,0 l/m² 2,1 km/h (1 Bft) W 260 ° 0 min 0 W/m² -0,1 °C 1,2 °C 4,8 km/h (1 Bft)
24.12.2024 21:02 22,9 °C 1,3 °C 54 % 91 % 1030,9 hPa 0,0 l/m² 2,9 km/h (1 Bft) W 260 ° 0 min 0 W/m² -0,0 °C 1,3 °C 4,8 km/h (1 Bft)
24.12.2024 21:03 22,9 °C 1,3 °C 54 % 91 % 1030,8 hPa 0,0 l/m² 4,8 km/h (1 Bft) W 260 ° 0 min 0 W/m² -0,0 °C 1,3 °C 6,4 km/h (2 Bft)
24.12.2024 21:04 22,9 °C 1,2 °C 54 % 91 % 1030,8 hPa 0,0 l/m² 2,6 km/h (1 Bft) W 260 ° 0 min 0 W/m² -0,1 °C 1,2 °C 4,8 km/h (1 Bft)
24.12.2024 21:05 22,9 °C 1,2 °C 54 % 91 % 1030,8 hPa 0,0 l/m² 1,3 km/h (1 Bft) W 260 ° 0 min 0 W/m² -0,1 °C 1,2 °C 3,2 km/h (1 Bft)
24.12.2024 21:06 22,9 °C 1,2 °C 54 % 91 % 1030,9 hPa 0,0 l/m² 0,3 km/h (0 Bft) W 260 ° 0 min 0 W/m² -0,1 °C 1,2 °C 1,6 km/h (1 Bft)
24.12.2024 21:07 22,9 °C 1,2 °C 54 % 91 % 1030,8 hPa 0,0 l/m² 0,1 km/h (0 Bft) W 260 ° 0 min 0 W/m² -0,1 °C 1,2 °C 1,6 km/h (1 Bft)
24.12.2024 21:08 22,9 °C 1,2 °C 54 % 91 % 1030,7 hPa 0,0 l/m² 2,0 km/h (1 Bft) W 260 ° 0 min 0 W/m² -0,1 °C 1,2 °C 4,8 km/h (1 Bft)
24.12.2024 21:09 22,9 °C 1,2 °C 54 % 91 % 1030,8 hPa 0,0 l/m² 2,7 km/h (1 Bft) W 260 ° 0 min 0 W/m² -0,1 °C 1,2 °C 3,2 km/h (1 Bft)
24.12.2024 21:10 22,9 °C 1,2 °C 54 % 91 % 1030,8 hPa 0,0 l/m² 2,7 km/h (1 Bft) W 260 ° 0 min 0 W/m² -0,1 °C 1,2 °C 3,2 km/h (1 Bft)
24.12.2024 21:11 22,9 °C 1,2 °C 54 % 91 % 1030,8 hPa 0,0 l/m² 2,5 km/h (1 Bft) W 260 ° 0 min 0 W/m² -0,1 °C 1,2 °C 3,2 km/h (1 Bft)
24.12.2024 21:12 22,9 °C 1,2 °C 54 % 91 % 1030,8 hPa 0,0 l/m² 0,9 km/h (0 Bft) W 260 ° 0 min 0 W/m² -0,1 °C 1,2 °C 1,6 km/h (1 Bft)
24.12.2024 21:13 22,9 °C 1,1 °C 54 % 91 % 1030,8 hPa 0,0 l/m² 0,0 km/h (0 Bft) W 260 ° 0 min 0 W/m² -0,2 °C 1,1 °C 0,0 km/h (0 Bft)
24.12.2024 21:14 22,9 °C 1,1 °C 54 % 91 % 1030,8 hPa 0,0 l/m² 0,0 km/h (0 Bft) W 260 ° 0 min 0 W/m² -0,2 °C 1,1 °C 0,0 km/h (0 Bft)
24.12.2024 21:15 23,0 °C 1,1 °C 54 % 91 % 1030,7 hPa 0,0 l/m² 0,0 km/h (0 Bft) W 260 ° 0 min 0 W/m² -0,2 °C 1,1 °C 0,0 km/h (0 Bft)
24.12.2024 21:16 22,9 °C 1,1 °C 54 % 91 % 1030,9 hPa 0,0 l/m² 0,0 km/h (0 Bft) W 260 ° 0 min 0 W/m² -0,2 °C 1,1 °C 0,0 km/h (0 Bft)
24.12.2024 21:17 23,0 °C 1,1 °C 54 % 91 % 1030,9 hPa 0,0 l/m² 0,0 km/h (0 Bft) W 260 ° 0 min 0 W/m² -0,2 °C 1,1 °C 0,0 km/h (0 Bft)
24.12.2024 21:18 23,0 °C 1,1 °C 54 % 91 % 1030,8 hPa 0,0 l/m² 0,0 km/h (0 Bft) W 260 ° 0 min 0 W/m² -0,2 °C 1,1 °C 0,0 km/h (0 Bft)
24.12.2024 21:19 23,0 °C 1,1 °C 54 % 91 % 1030,9 hPa 0,0 l/m² 0,0 km/h (0 Bft) W 260 ° 0 min 0 W/m² -0,2 °C 1,1 °C 0,0 km/h (0 Bft)
24.12.2024 21:20 23,0 °C 1,0 °C 54 % 91 % 1030,9 hPa 0,0 l/m² 0,0 km/h (0 Bft) W 260 ° 0 min 0 W/m² -0,3 °C 1,0 °C 0,0 km/h (0 Bft)
24.12.2024 21:21 23,0 °C 1,1 °C 54 % 91 % 1031,0 hPa 0,0 l/m² 0,3 km/h (0 Bft) W 260 ° 0 min 0 W/m² -0,2 °C 1,1 °C 1,6 km/h (1 Bft)
24.12.2024 21:22 23,0 °C 1,0 °C 54 % 91 % 1031,0 hPa 0,0 l/m² 1,0 km/h (0 Bft) W 260 ° 0 min 0 W/m² -0,3 °C 1,0 °C 1,6 km/h (1 Bft)
24.12.2024 21:23 23,0 °C 1,0 °C 54 % 91 % 1031,0 hPa 0,0 l/m² 0,0 km/h (0 Bft) W 260 ° 0 min 0 W/m² -0,3 °C 1,0 °C 0,0 km/h (0 Bft)
24.12.2024 21:24 23,0 °C 1,0 °C 54 % 91 % 1031,0 hPa 0,0 l/m² 0,1 km/h (0 Bft) W 260 ° 0 min 0 W/m² -0,3 °C 1,0 °C 1,6 km/h (1 Bft)
24.12.2024 21:25 22,9 °C 1,0 °C 54 % 91 % 1031,0 hPa 0,0 l/m² 0,0 km/h (0 Bft) W 260 ° 0 min 0 W/m² -0,3 °C 1,0 °C 0,0 km/h (0 Bft)
24.12.2024 21:26 23,0 °C 1,0 °C 54 % 91 % 1031,0 hPa 0,0 l/m² 0,0 km/h (0 Bft) W 259 ° 0 min 0 W/m² -0,3 °C 1,0 °C 0,0 km/h (0 Bft)
24.12.2024 21:27 23,0 °C 0,9 °C 54 % 91 % 1031,0 hPa 0,0 l/m² 0,0 km/h (0 Bft) W 260 ° 0 min 0 W/m² -0,4 °C 0,9 °C 0,0 km/h (0 Bft)
24.12.2024 21:28 23,0 °C 0,9 °C 54 % 91 % 1031,0 hPa 0,0 l/m² 0,0 km/h (0 Bft) W 260 ° 0 min 0 W/m² -0,4 °C 0,9 °C 0,0 km/h (0 Bft)
24.12.2024 21:29 23,0 °C 0,9 °C 54 % 91 % 1031,0 hPa 0,0 l/m² 0,0 km/h (0 Bft) W 260 ° 0 min 0 W/m² -0,4 °C 0,9 °C 0,0 km/h (0 Bft)
24.12.2024 21:30 22,9 °C 0,9 °C 54 % 91 % 1030,9 hPa 0,0 l/m² 0,1 km/h (0 Bft) W 260 ° 0 min 0 W/m² -0,4 °C 0,9 °C 1,6 km/h (1 Bft)
24.12.2024 21:31 23,0 °C 0,9 °C 54 % 91 % 1031,0 hPa 0,0 l/m² 2,1 km/h (1 Bft) W 259 ° 0 min 0 W/m² -0,4 °C 0,9 °C 3,2 km/h (1 Bft)
24.12.2024 21:32 22,9 °C 0,9 °C 54 % 91 % 1031,1 hPa 0,0 l/m² 2,7 km/h (1 Bft) W 259 ° 0 min 0 W/m² -0,4 °C 0,9 °C 3,2 km/h (1 Bft)
24.12.2024 21:33 23,0 °C 0,9 °C 54 % 91 % 1031,0 hPa 0,0 l/m² 1,5 km/h (1 Bft) W 260 ° 0 min 0 W/m² -0,4 °C 0,9 °C 3,2 km/h (1 Bft)
24.12.2024 21:34 22,9 °C 0,9 °C 54 % 91 % 1031,1 hPa 0,0 l/m² 0,8 km/h (0 Bft) W 260 ° 0 min 0 W/m² -0,4 °C 0,9 °C 1,6 km/h (1 Bft)
24.12.2024 21:35 22,9 °C 0,9 °C 54 % 91 % 1031,1 hPa 0,0 l/m² 0,2 km/h (0 Bft) W 260 ° 0 min 0 W/m² -0,4 °C 0,9 °C 1,6 km/h (1 Bft)
24.12.2024 21:36 22,9 °C 0,9 °C 54 % 91 % 1031,1 hPa 0,0 l/m² 0,0 km/h (0 Bft) W 260 ° 0 min 0 W/m² -0,4 °C 0,9 °C 0,0 km/h (0 Bft)
24.12.2024 21:37 22,9 °C 0,8 °C 54 % 91 % 1031,1 hPa 0,0 l/m² 0,0 km/h (0 Bft) W 260 ° 0 min 0 W/m² -0,5 °C 0,8 °C 0,0 km/h (0 Bft)
24.12.2024 21:38 23,0 °C 0,9 °C 54 % 91 % 1031,2 hPa 0,0 l/m² 0,0 km/h (0 Bft) W 260 ° 0 min 0 W/m² -0,4 °C 0,9 °C 0,0 km/h (0 Bft)
24.12.2024 21:39 22,9 °C 0,8 °C 54 % 91 % 1031,1 hPa 0,0 l/m² 0,0 km/h (0 Bft) W 260 ° 0 min 0 W/m² -0,5 °C 0,8 °C 0,0 km/h (0 Bft)
24.12.2024 21:40 22,9 °C 0,8 °C 54 % 91 % 1031,2 hPa 0,0 l/m² 0,0 km/h (0 Bft) W 260 ° 0 min 0 W/m² -0,5 °C 0,8 °C 0,0 km/h (0 Bft)
24.12.2024 21:41 22,9 °C 0,8 °C 54 % 91 % 1031,2 hPa 0,0 l/m² 0,0 km/h (0 Bft) W 260 ° 0 min 0 W/m² -0,5 °C 0,8 °C 0,0 km/h (0 Bft)
24.12.2024 21:42 22,9 °C 0,8 °C 54 % 91 % 1031,3 hPa 0,0 l/m² 0,0 km/h (0 Bft) W 260 ° 0 min 0 W/m² -0,5 °C 0,8 °C 0,0 km/h (0 Bft)
24.12.2024 21:43 22,9 °C 0,8 °C 54 % 91 % 1031,3 hPa 0,0 l/m² 0,0 km/h (0 Bft) W 260 ° 0 min 0 W/m² -0,5 °C 0,8 °C 0,0 km/h (0 Bft)
24.12.2024 21:44 22,9 °C 0,8 °C 54 % 91 % 1031,2 hPa 0,0 l/m² 0,1 km/h (0 Bft) W 260 ° 0 min 0 W/m² -0,5 °C 0,8 °C 1,6 km/h (1 Bft)
24.12.2024 21:46 22,9 °C 0,8 °C 54 % 91 % 1031,2 hPa 0,0 l/m² 0,2 km/h (0 Bft) W 260 ° 0 min 0 W/m² -0,5 °C 0,8 °C 1,6 km/h (1 Bft)
24.12.2024 21:47 22,9 °C 0,8 °C 54 % 91 % 1031,2 hPa 0,0 l/m² 0,0 km/h (0 Bft) W 260 ° 0 min 0 W/m² -0,5 °C 0,8 °C 0,0 km/h (0 Bft)
24.12.2024 21:48 22,9 °C 0,8 °C 54 % 91 % 1031,1 hPa 0,0 l/m² 0,0 km/h (0 Bft) W 260 ° 0 min 0 W/m² -0,5 °C 0,8 °C 0,0 km/h (0 Bft)
24.12.2024 21:49 22,9 °C 0,8 °C 54 % 91 % 1031,2 hPa 0,0 l/m² 0,0 km/h (0 Bft) W 260 ° 0 min 0 W/m² -0,5 °C 0,8 °C 0,0 km/h (0 Bft)
24.12.2024 21:50 22,9 °C 0,8 °C 54 % 91 % 1031,3 hPa 0,0 l/m² 0,0 km/h (0 Bft) W 260 ° 0 min 0 W/m² -0,5 °C 0,8 °C 0,0 km/h (0 Bft)
24.12.2024 21:51 22,9 °C 0,8 °C 54 % 91 % 1031,3 hPa 0,0 l/m² 0,0 km/h (0 Bft) W 260 ° 0 min 0 W/m² -0,5 °C 0,8 °C 0,0 km/h (0 Bft)
24.12.2024 21:52 22,9 °C 0,8 °C 54 % 91 % 1031,3 hPa 0,0 l/m² 0,0 km/h (0 Bft) W 260 ° 0 min 0 W/m² -0,5 °C 0,8 °C 0,0 km/h (0 Bft)
24.12.2024 21:53 22,9 °C 0,8 °C 54 % 91 % 1031,4 hPa 0,0 l/m² 0,0 km/h (0 Bft) W 260 ° 0 min 0 W/m² -0,5 °C 0,8 °C 0,0 km/h (0 Bft)
24.12.2024 21:54 22,9 °C 0,8 °C 54 % 91 % 1031,5 hPa 0,0 l/m² 0,0 km/h (0 Bft) W 260 ° 0 min 0 W/m² -0,5 °C 0,8 °C 0,0 km/h (0 Bft)
24.12.2024 21:55 22,9 °C 0,8 °C 54 % 91 % 1031,5 hPa 0,0 l/m² 0,0 km/h (0 Bft) W 260 ° 0 min 0 W/m² -0,5 °C 0,8 °C 0,0 km/h (0 Bft)
24.12.2024 21:56 22,9 °C 0,8 °C 54 % 91 % 1031,5 hPa 0,0 l/m² 0,0 km/h (0 Bft) W 260 ° 0 min 0 W/m² -0,5 °C 0,8 °C 0,0 km/h (0 Bft)
24.12.2024 21:57 22,9 °C 0,8 °C 54 % 91 % 1031,5 hPa 0,0 l/m² 0,0 km/h (0 Bft) W 260 ° 0 min 0 W/m² -0,5 °C 0,8 °C 0,0 km/h (0 Bft)
24.12.2024 21:58 22,9 °C 0,7 °C 55 % 91 % 1031,5 hPa 0,0 l/m² 0,0 km/h (0 Bft) W 260 ° 0 min 0 W/m² -0,6 °C 0,7 °C 0,0 km/h (0 Bft)
24.12.2024 21:59 22,9 °C 0,7 °C 55 % 91 % 1031,4 hPa 0,0 l/m² 0,0 km/h (0 Bft) W 260 ° 0 min 0 W/m² -0,6 °C 0,7 °C 0,0 km/h (0 Bft)
24.12.2024 22:00 22,9 °C 0,7 °C 55 % 91 % 1031,6 hPa 0,0 l/m² 0,0 km/h (0 Bft) W 260 ° 0 min 0 W/m² -0,6 °C 0,7 °C 0,0 km/h (0 Bft)
24.12.2024 22:01 22,9 °C 0,7 °C 55 % 91 % 1031,6 hPa 0,0 l/m² 0,0 km/h (0 Bft) W 260 ° 0 min 0 W/m² -0,6 °C 0,7 °C 0,0 km/h (0 Bft)
24.12.2024 22:02 22,9 °C 0,7 °C 55 % 91 % 1031,7 hPa 0,0 l/m² 0,0 km/h (0 Bft) W 260 ° 0 min 0 W/m² -0,6 °C 0,7 °C 0,0 km/h (0 Bft)
24.12.2024 22:03 22,9 °C 0,7 °C 55 % 91 % 1031,7 hPa 0,0 l/m² 0,0 km/h (0 Bft) W 260 ° 0 min 0 W/m² -0,6 °C 0,7 °C 0,0 km/h (0 Bft)
24.12.2024 22:04 22,9 °C 0,7 °C 55 % 91 % 1031,7 hPa 0,0 l/m² 1,9 km/h (1 Bft) W 260 ° 0 min 0 W/m² -0,6 °C 0,7 °C 3,2 km/h (1 Bft)
24.12.2024 22:05 22,9 °C 0,7 °C 55 % 91 % 1031,8 hPa 0,0 l/m² 4,0 km/h (1 Bft) W 260 ° 0 min 0 W/m² -0,6 °C 0,7 °C 4,8 km/h (1 Bft)
24.12.2024 22:06 22,9 °C 0,7 °C 55 % 91 % 1031,8 hPa 0,0 l/m² 4,1 km/h (1 Bft) W 260 ° 0 min 0 W/m² -0,6 °C 0,7 °C 4,8 km/h (1 Bft)
24.12.2024 22:07 22,9 °C 0,6 °C 55 % 91 % 1031,7 hPa 0,0 l/m² 3,3 km/h (1 Bft) W 260 ° 0 min 0 W/m² -0,7 °C 0,6 °C 4,8 km/h (1 Bft)
24.12.2024 22:08 22,9 °C 0,6 °C 55 % 91 % 1031,8 hPa 0,0 l/m² 3,6 km/h (1 Bft) W 260 ° 0 min 0 W/m² -0,7 °C 0,6 °C 4,8 km/h (1 Bft)
24.12.2024 22:09 22,9 °C 0,6 °C 55 % 91 % 1031,8 hPa 0,0 l/m² 2,3 km/h (1 Bft) W 260 ° 0 min 0 W/m² -0,7 °C 0,6 °C 3,2 km/h (1 Bft)
24.12.2024 22:10 22,9 °C 0,6 °C 55 % 91 % 1031,9 hPa 0,0 l/m² 1,5 km/h (1 Bft) W 260 ° 0 min 0 W/m² -0,7 °C 0,6 °C 3,2 km/h (1 Bft)
24.12.2024 22:11 22,9 °C 0,5 °C 55 % 91 % 1031,9 hPa 0,0 l/m² 0,4 km/h (0 Bft) W 260 ° 0 min 0 W/m² -0,8 °C 0,5 °C 1,6 km/h (1 Bft)
24.12.2024 22:12 22,9 °C 0,5 °C 55 % 91 % 1031,8 hPa 0,0 l/m² 0,0 km/h (0 Bft) W 259 ° 0 min 0 W/m² -0,8 °C 0,5 °C 0,0 km/h (0 Bft)
24.12.2024 22:13 22,9 °C 0,5 °C 55 % 91 % 1031,9 hPa 0,0 l/m² 0,0 km/h (0 Bft) W 260 ° 0 min 0 W/m² -0,8 °C 0,5 °C 0,0 km/h (0 Bft)
24.12.2024 22:14 22,9 °C 0,5 °C 55 % 91 % 1031,9 hPa 0,0 l/m² 0,0 km/h (0 Bft) W 260 ° 0 min 0 W/m² -0,8 °C 0,5 °C 0,0 km/h (0 Bft)
24.12.2024 22:15 22,9 °C 0,5 °C 55 % 91 % 1032,2 hPa 0,0 l/m² 0,0 km/h (0 Bft) W 260 ° 0 min 0 W/m² -0,8 °C 0,5 °C 0,0 km/h (0 Bft)
24.12.2024 22:16 22,9 °C 0,5 °C 55 % 91 % 1031,9 hPa 0,0 l/m² 0,0 km/h (0 Bft) W 260 ° 0 min 0 W/m² -0,8 °C 0,5 °C 0,0 km/h (0 Bft)
24.12.2024 22:17 22,9 °C 0,5 °C 55 % 91 % 1031,9 hPa 0,0 l/m² 0,0 km/h (0 Bft) W 260 ° 0 min 0 W/m² -0,8 °C 0,5 °C 0,0 km/h (0 Bft)
24.12.2024 22:18 22,9 °C 0,5 °C 55 % 91 % 1031,9 hPa 0,0 l/m² 0,0 km/h (0 Bft) W 260 ° 0 min 0 W/m² -0,8 °C 0,5 °C 0,0 km/h (0 Bft)
24.12.2024 22:19 22,9 °C 0,5 °C 55 % 91 % 1031,9 hPa 0,0 l/m² 0,0 km/h (0 Bft) W 260 ° 0 min 0 W/m² -0,8 °C 0,5 °C 0,0 km/h (0 Bft)
24.12.2024 22:20 22,9 °C 0,5 °C 55 % 91 % 1031,9 hPa 0,0 l/m² 0,0 km/h (0 Bft) W 260 ° 0 min 0 W/m² -0,8 °C 0,5 °C 0,0 km/h (0 Bft)
24.12.2024 22:21 22,9 °C 0,4 °C 55 % 91 % 1031,9 hPa 0,0 l/m² 0,0 km/h (0 Bft) W 260 ° 0 min 0 W/m² -0,9 °C 0,4 °C 0,0 km/h (0 Bft)
24.12.2024 22:22 22,9 °C 0,5 °C 55 % 91 % 1031,9 hPa 0,0 l/m² 0,0 km/h (0 Bft) W 260 ° 0 min 0 W/m² -0,8 °C 0,5 °C 0,0 km/h (0 Bft)
24.12.2024 22:23 22,9 °C 0,5 °C 55 % 91 % 1031,9 hPa 0,0 l/m² 0,0 km/h (0 Bft) W 260 ° 0 min 0 W/m² -0,8 °C 0,5 °C 0,0 km/h (0 Bft)
24.12.2024 22:24 22,9 °C 0,5 °C 55 % 91 % 1031,8 hPa 0,0 l/m² 0,0 km/h (0 Bft) W 260 ° 0 min 0 W/m² -0,8 °C 0,5 °C 0,0 km/h (0 Bft)
24.12.2024 22:25 22,9 °C 0,5 °C 55 % 91 % 1031,9 hPa 0,0 l/m² 0,0 km/h (0 Bft) W 260 ° 0 min 0 W/m² -0,8 °C 0,5 °C 0,0 km/h (0 Bft)
24.12.2024 22:26 22,9 °C 0,5 °C 55 % 91 % 1031,9 hPa 0,0 l/m² 0,0 km/h (0 Bft) W 260 ° 0 min 0 W/m² -0,8 °C 0,5 °C 0,0 km/h (0 Bft)
24.12.2024 22:27 22,9 °C 0,5 °C 55 % 91 % 1031,9 hPa 0,0 l/m² 0,0 km/h (0 Bft) W 260 ° 0 min 0 W/m² -0,8 °C 0,5 °C 0,0 km/h (0 Bft)
24.12.2024 22:28 22,9 °C 0,4 °C 55 % 91 % 1031,9 hPa 0,0 l/m² 0,0 km/h (0 Bft) W 260 ° 0 min 0 W/m² -0,9 °C 0,4 °C 0,0 km/h (0 Bft)
24.12.2024 22:29 22,9 °C 0,4 °C 55 % 91 % 1031,9 hPa 0,0 l/m² 0,0 km/h (0 Bft) W 260 ° 0 min 0 W/m² -0,9 °C 0,4 °C 0,0 km/h (0 Bft)
24.12.2024 22:30 22,9 °C 0,5 °C 55 % 91 % 1031,8 hPa 0,0 l/m² 0,0 km/h (0 Bft) W 260 ° 0 min 0 W/m² -0,8 °C 0,5 °C 0,0 km/h (0 Bft)
24.12.2024 22:31 22,9 °C 0,4 °C 55 % 91 % 1031,8 hPa 0,0 l/m² 0,0 km/h (0 Bft) W 260 ° 0 min 0 W/m² -0,9 °C 0,4 °C 0,0 km/h (0 Bft)
24.12.2024 22:32 22,9 °C 0,4 °C 55 % 91 % 1031,9 hPa 0,0 l/m² 0,0 km/h (0 Bft) W 260 ° 0 min 0 W/m² -0,9 °C 0,4 °C 0,0 km/h (0 Bft)
24.12.2024 22:33 22,9 °C 0,4 °C 55 % 91 % 1031,8 hPa 0,0 l/m² 0,0 km/h (0 Bft) W 260 ° 0 min 0 W/m² -0,9 °C 0,4 °C 0,0 km/h (0 Bft)
24.12.2024 22:34 22,9 °C 0,4 °C 55 % 91 % 1031,7 hPa 0,0 l/m² 0,0 km/h (0 Bft) W 260 ° 0 min 0 W/m² -0,9 °C 0,4 °C 0,0 km/h (0 Bft)
24.12.2024 22:35 22,9 °C 0,4 °C 55 % 91 % 1031,8 hPa 0,0 l/m² 0,0 km/h (0 Bft) W 260 ° 0 min 0 W/m² -0,9 °C 0,4 °C 0,0 km/h (0 Bft)
24.12.2024 22:36 22,9 °C 0,4 °C 55 % 91 % 1031,8 hPa 0,0 l/m² 0,0 km/h (0 Bft) W 260 ° 0 min 0 W/m² -0,9 °C 0,4 °C 0,0 km/h (0 Bft)
24.12.2024 22:37 22,9 °C 0,4 °C 55 % 91 % 1031,8 hPa 0,0 l/m² 0,0 km/h (0 Bft) W 260 ° 0 min 0 W/m² -0,9 °C 0,4 °C 0,0 km/h (0 Bft)
24.12.2024 22:38 22,9 °C 0,4 °C 55 % 91 % 1031,8 hPa 0,0 l/m² 0,0 km/h (0 Bft) W 260 ° 0 min 0 W/m² -0,9 °C 0,4 °C 0,0 km/h (0 Bft)
24.12.2024 22:39 22,9 °C 0,4 °C 55 % 91 % 1031,8 hPa 0,0 l/m² 0,0 km/h (0 Bft) W 260 ° 0 min 0 W/m² -0,9 °C 0,4 °C 0,0 km/h (0 Bft)
24.12.2024 22:40 22,9 °C 0,4 °C 55 % 91 % 1031,7 hPa 0,0 l/m² 0,0 km/h (0 Bft) W 260 ° 0 min 0 W/m² -0,9 °C 0,4 °C 0,0 km/h (0 Bft)
24.12.2024 22:41 22,9 °C 0,4 °C 55 % 91 % 1031,8 hPa 0,0 l/m² 0,0 km/h (0 Bft) W 260 ° 0 min 0 W/m² -0,9 °C 0,4 °C 0,0 km/h (0 Bft)
24.12.2024 22:42 22,8 °C 0,4 °C 55 % 91 % 1031,7 hPa 0,0 l/m² 0,0 km/h (0 Bft) W 260 ° 0 min 0 W/m² -0,9 °C 0,4 °C 0,0 km/h (0 Bft)
24.12.2024 22:43 22,8 °C 0,4 °C 54 % 91 % 1031,6 hPa 0,0 l/m² 0,0 km/h (0 Bft) W 259 ° 0 min 0 W/m² -0,9 °C 0,4 °C 0,0 km/h (0 Bft)
24.12.2024 22:44 22,8 °C 0,4 °C 54 % 91 % 1031,7 hPa 0,0 l/m² 0,0 km/h (0 Bft) W 260 ° 0 min 0 W/m² -0,9 °C 0,4 °C 0,0 km/h (0 Bft)
24.12.2024 22:45 22,8 °C 0,4 °C 54 % 91 % 1031,6 hPa 0,0 l/m² 0,0 km/h (0 Bft) W 260 ° 0 min 0 W/m² -0,9 °C 0,4 °C 0,0 km/h (0 Bft)
24.12.2024 22:46 22,8 °C 0,4 °C 54 % 91 % 1031,6 hPa 0,0 l/m² 0,0 km/h (0 Bft) W 260 ° 0 min 0 W/m² -0,9 °C 0,4 °C 0,0 km/h (0 Bft)
24.12.2024 22:47 22,8 °C 0,4 °C 54 % 91 % 1031,6 hPa 0,0 l/m² 0,0 km/h (0 Bft) W 260 ° 0 min 0 W/m² -0,9 °C 0,4 °C 0,0 km/h (0 Bft)
24.12.2024 22:48 22,8 °C 0,4 °C 54 % 91 % 1031,6 hPa 0,0 l/m² 0,0 km/h (0 Bft) W 260 ° 0 min 0 W/m² -0,9 °C 0,4 °C 0,0 km/h (0 Bft)
24.12.2024 22:49 22,8 °C 0,4 °C 54 % 91 % 1031,7 hPa 0,0 l/m² 0,0 km/h (0 Bft) W 260 ° 0 min 0 W/m² -0,9 °C 0,4 °C 0,0 km/h (0 Bft)
24.12.2024 22:50 22,8 °C 0,3 °C 54 % 91 % 1031,7 hPa 0,0 l/m² 0,0 km/h (0 Bft) W 260 ° 0 min 0 W/m² -1,0 °C 0,3 °C 0,0 km/h (0 Bft)
24.12.2024 22:51 22,7 °C 0,4 °C 53 % 91 % 1031,7 hPa 0,0 l/m² 0,0 km/h (0 Bft) W 260 ° 0 min 0 W/m² -0,9 °C 0,4 °C 0,0 km/h (0 Bft)
24.12.2024 22:52 22,7 °C 0,4 °C 53 % 91 % 1031,8 hPa 0,0 l/m² 0,0 km/h (0 Bft) W 260 ° 0 min 0 W/m² -0,9 °C 0,4 °C 0,0 km/h (0 Bft)
24.12.2024 22:53 22,7 °C 0,4 °C 52 % 92 % 1031,8 hPa 0,0 l/m² 0,0 km/h (0 Bft) W 260 ° 0 min 0 W/m² -0,7 °C 0,4 °C 0,0 km/h (0 Bft)
24.12.2024 22:54 22,7 °C 0,4 °C 52 % 92 % 1031,8 hPa 0,0 l/m² 0,0 km/h (0 Bft) W 259 ° 0 min 0 W/m² -0,7 °C 0,4 °C 0,0 km/h (0 Bft)
24.12.2024 22:55 22,7 °C 0,4 °C 52 % 91 % 1031,8 hPa 0,0 l/m² 0,0 km/h (0 Bft) W 260 ° 0 min 0 W/m² -0,9 °C 0,4 °C 0,0 km/h (0 Bft)
24.12.2024 22:56 22,7 °C 0,4 °C 52 % 91 % 1031,8 hPa 0,0 l/m² 0,0 km/h (0 Bft) W 259 ° 0 min 0 W/m² -0,9 °C 0,4 °C 0,0 km/h (0 Bft)
24.12.2024 22:57 22,7 °C 0,4 °C 52 % 91 % 1031,8 hPa 0,0 l/m² 0,0 km/h (0 Bft) W 260 ° 0 min 0 W/m² -0,9 °C 0,4 °C 0,0 km/h (0 Bft)
24.12.2024 22:58 22,7 °C 0,4 °C 52 % 91 % 1031,8 hPa 0,0 l/m² 0,0 km/h (0 Bft) W 260 ° 0 min 0 W/m² -0,9 °C 0,4 °C 0,0 km/h (0 Bft)
24.12.2024 22:59 22,6 °C 0,4 °C 52 % 92 % 1031,9 hPa 0,0 l/m² 0,0 km/h (0 Bft) W 260 ° 0 min 0 W/m² -0,7 °C 0,4 °C 0,0 km/h (0 Bft)
24.12.2024 23:00 22,6 °C 0,4 °C 52 % 91 % 1031,9 hPa 0,0 l/m² 0,0 km/h (0 Bft) W 260 ° 0 min 0 W/m² -0,9 °C 0,4 °C 0,0 km/h (0 Bft)
24.12.2024 23:01 22,6 °C 0,4 °C 52 % 91 % 1031,9 hPa 0,0 l/m² 0,0 km/h (0 Bft) W 260 ° 0 min 0 W/m² -0,9 °C 0,4 °C 0,0 km/h (0 Bft)
24.12.2024 23:02 22,6 °C 0,4 °C 53 % 91 % 1032,0 hPa 0,0 l/m² 0,0 km/h (0 Bft) W 260 ° 0 min 0 W/m² -0,9 °C 0,4 °C 0,0 km/h (0 Bft)
24.12.2024 23:03 22,6 °C 0,4 °C 53 % 91 % 1032,0 hPa 0,0 l/m² 0,0 km/h (0 Bft) W 260 ° 0 min 0 W/m² -0,9 °C 0,4 °C 0,0 km/h (0 Bft)
24.12.2024 23:04 22,6 °C 0,4 °C 53 % 92 % 1032,0 hPa 0,0 l/m² 0,0 km/h (0 Bft) W 260 ° 0 min 0 W/m² -0,7 °C 0,4 °C 0,0 km/h (0 Bft)
24.12.2024 23:05 22,6 °C 0,4 °C 53 % 91 % 1032,1 hPa 0,0 l/m² 0,0 km/h (0 Bft) W 260 ° 0 min 0 W/m² -0,9 °C 0,4 °C 0,0 km/h (0 Bft)
24.12.2024 23:06 22,6 °C 0,4 °C 53 % 92 % 1032,0 hPa 0,0 l/m² 0,1 km/h (0 Bft) W 260 ° 0 min 0 W/m² -0,7 °C 0,4 °C 1,6 km/h (1 Bft)
24.12.2024 23:07 22,6 °C 0,4 °C 53 % 91 % 1032,0 hPa 0,0 l/m² 0,0 km/h (0 Bft) W 260 ° 0 min 0 W/m² -0,9 °C 0,4 °C 0,0 km/h (0 Bft)
24.12.2024 23:08 22,6 °C 0,3 °C 53 % 91 % 1032,1 hPa 0,0 l/m² 0,0 km/h (0 Bft) W 260 ° 0 min 0 W/m² -1,0 °C 0,3 °C 0,0 km/h (0 Bft)
24.12.2024 23:09 22,6 °C 0,3 °C 53 % 92 % 1032,0 hPa 0,0 l/m² 0,0 km/h (0 Bft) W 260 ° 0 min 0 W/m² -0,8 °C 0,3 °C 0,0 km/h (0 Bft)
24.12.2024 23:10 22,6 °C 0,3 °C 53 % 92 % 1032,1 hPa 0,0 l/m² 2,1 km/h (1 Bft) W 260 ° 0 min 0 W/m² -0,8 °C 0,3 °C 4,8 km/h (1 Bft)
24.12.2024 23:11 22,5 °C 0,3 °C 53 % 91 % 1032,2 hPa 0,0 l/m² 1,7 km/h (1 Bft) W 260 ° 0 min 0 W/m² -1,0 °C 0,3 °C 4,8 km/h (1 Bft)
24.12.2024 23:12 22,5 °C 0,3 °C 53 % 91 % 1032,1 hPa 0,0 l/m² 2,2 km/h (1 Bft) W 259 ° 0 min 0 W/m² -1,0 °C 0,3 °C 3,2 km/h (1 Bft)
24.12.2024 23:13 22,5 °C 0,3 °C 53 % 92 % 1032,3 hPa 0,0 l/m² 0,5 km/h (0 Bft) W 260 ° 0 min 0 W/m² -0,8 °C 0,3 °C 3,2 km/h (1 Bft)
24.12.2024 23:14 22,5 °C 0,3 °C 53 % 92 % 1032,2 hPa 0,0 l/m² 0,0 km/h (0 Bft) W 260 ° 0 min 0 W/m² -0,8 °C 0,3 °C 0,0 km/h (0 Bft)
24.12.2024 23:15 22,5 °C 0,3 °C 53 % 92 % 1032,3 hPa 0,0 l/m² 0,0 km/h (0 Bft) W 260 ° 0 min 0 W/m² -0,8 °C 0,3 °C 0,0 km/h (0 Bft)
24.12.2024 23:16 22,5 °C 0,3 °C 53 % 92 % 1032,4 hPa 0,0 l/m² 0,0 km/h (0 Bft) N 0 ° 0 min 0 W/m² -0,8 °C 0,3 °C 0,0 km/h (0 Bft)
24.12.2024 23:17 22,5 °C 0,3 °C 53 % 92 % 1032,4 hPa 0,0 l/m² 0,0 km/h (0 Bft) N 0 ° 0 min 0 W/m² -0,8 °C 0,3 °C 0,0 km/h (0 Bft)
24.12.2024 23:18 22,4 °C 0,3 °C 53 % 92 % 1032,3 hPa 0,0 l/m² 0,0 km/h (0 Bft) N 0 ° 0 min 0 W/m² -0,8 °C 0,3 °C 0,0 km/h (0 Bft)
24.12.2024 23:19 22,4 °C 0,3 °C 53 % 92 % 1032,3 hPa 0,0 l/m² 0,0 km/h (0 Bft) W 270 ° 0 min 0 W/m² -0,8 °C 0,3 °C 1,6 km/h (1 Bft)
24.12.2024 23:20 22,4 °C 0,3 °C 53 % 92 % 1032,3 hPa 0,0 l/m² 0,0 km/h (0 Bft) N 0 ° 0 min 0 W/m² -0,8 °C 0,3 °C 0,0 km/h (0 Bft)
24.12.2024 23:26 22,4 °C 0,2 °C 53 % 91 % 1032,3 hPa 0,0 l/m² 2,4 km/h (1 Bft) W 260 ° 0 min 0 W/m² -1,1 °C 0,2 °C 3,2 km/h (1 Bft)
24.12.2024 23:28 22,4 °C 0,2 °C 53 % 91 % 1032,2 hPa 0,0 l/m² 1,9 km/h (1 Bft) W 260 ° 0 min 0 W/m² -1,1 °C 0,2 °C 3,2 km/h (1 Bft)
24.12.2024 23:30 22,4 °C 0,1 °C 53 % 91 % 1032,2 hPa 0,0 l/m² 2,0 km/h (1 Bft) W 260 ° 0 min 0 W/m² -1,2 °C 0,1 °C 3,2 km/h (1 Bft)
24.12.2024 23:31 22,4 °C 0,1 °C 53 % 91 % 1032,3 hPa 0,0 l/m² 0,9 km/h (0 Bft) W 260 ° 0 min 0 W/m² -1,2 °C 0,1 °C 3,2 km/h (1 Bft)
24.12.2024 23:32 22,4 °C 0,1 °C 53 % 91 % 1032,3 hPa 0,0 l/m² 0,1 km/h (0 Bft) W 260 ° 0 min 0 W/m² -1,2 °C 0,1 °C 1,6 km/h (1 Bft)
24.12.2024 23:35 22,4 °C 0,1 °C 53 % 91 % 1032,3 hPa 0,0 l/m² 0,0 km/h (0 Bft) W 260 ° 0 min 0 W/m² -1,2 °C 0,1 °C 0,0 km/h (0 Bft)
24.12.2024 23:37 22,3 °C 0,1 °C 53 % 91 % 1032,3 hPa 0,0 l/m² 0,0 km/h (0 Bft) W 260 ° 0 min 0 W/m² -1,2 °C 0,1 °C 1,6 km/h (1 Bft)
24.12.2024 23:39 22,3 °C 0,1 °C 53 % 91 % 1032,3 hPa 0,0 l/m² 0,0 km/h (0 Bft) W 260 ° 0 min 0 W/m² -1,2 °C 0,1 °C 0,0 km/h (0 Bft)
24.12.2024 23:40 22,4 °C 0,1 °C 53 % 92 % 1032,4 hPa 0,0 l/m² 0,0 km/h (0 Bft) W 260 ° 0 min 0 W/m² -1,0 °C 0,1 °C 0,0 km/h (0 Bft)
24.12.2024 23:41 22,3 °C 0,1 °C 53 % 92 % 1032,4 hPa 0,0 l/m² 0,0 km/h (0 Bft) W 260 ° 0 min 0 W/m² -1,0 °C 0,1 °C 0,0 km/h (0 Bft)
24.12.2024 23:42 22,3 °C 0,0 °C 53 % 91 % 1032,4 hPa 0,0 l/m² 0,0 km/h (0 Bft) W 260 ° 0 min 0 W/m² -1,3 °C 0,0 °C 0,0 km/h (0 Bft)
24.12.2024 23:45 22,3 °C 0,0 °C 53 % 92 % 1032,3 hPa 0,0 l/m² 0,0 km/h (0 Bft) W 260 ° 0 min 0 W/m² -1,1 °C 0,0 °C 0,0 km/h (0 Bft)
24.12.2024 23:47 22,4 °C 0,0 °C 53 % 92 % 1032,4 hPa 0,0 l/m² 0,0 km/h (0 Bft) W 260 ° 0 min 0 W/m² -1,1 °C 0,0 °C 0,0 km/h (0 Bft)
24.12.2024 23:49 22,3 °C -0,1 °C 53 % 92 % 1032,3 hPa 0,0 l/m² 0,0 km/h (0 Bft) W 260 ° 0 min 0 W/m² -1,2 °C -0,1 °C 0,0 km/h (0 Bft)
24.12.2024 23:50 22,3 °C -0,1 °C 53 % 91 % 1032,4 hPa 0,0 l/m² 0,0 km/h (0 Bft) W 260 ° 0 min 0 W/m² -1,4 °C -0,1 °C 0,0 km/h (0 Bft)
24.12.2024 23:51 22,3 °C -0,1 °C 53 % 92 % 1032,3 hPa 0,0 l/m² 0,0 km/h (0 Bft) W 260 ° 0 min 0 W/m² -1,2 °C -0,1 °C 0,0 km/h (0 Bft)
24.12.2024 23:52 22,3 °C -0,1 °C 53 % 91 % 1032,3 hPa 0,0 l/m² 0,0 km/h (0 Bft) W 260 ° 0 min 0 W/m² -1,4 °C -0,1 °C 0,0 km/h (0 Bft)
24.12.2024 23:55 22,3 °C -0,2 °C 53 % 91 % 1032,4 hPa 0,0 l/m² 0,2 km/h (0 Bft) W 260 ° 0 min 0 W/m² -1,5 °C -0,2 °C 1,6 km/h (1 Bft)
24.12.2024 23:57 22,3 °C -0,2 °C 54 % 91 % 1032,3 hPa 0,0 l/m² 0,0 km/h (0 Bft) W 260 ° 0 min 0 W/m² -1,5 °C -0,2 °C 0,0 km/h (0 Bft)
24.12.2024 23:59 22,3 °C -0,2 °C 53 % 91 % 1032,4 hPa 0,0 l/m² 0,3 km/h (0 Bft) W 260 ° 0 min 0 W/m² -1,5 °C -0,2 °C 1,6 km/h (1 Bft)
_ Min-Zeit 08:48 23:59 09:18 16:00 00:05 - 23:57 - - - - 23:59 04:02 23:57
Minimum _ 21,4 °C -0,2 °C 50 % 85 % 1016,5 hPa - 0,0 km/h (0 Bft) - - - - -1,5 °C -4,7 °C 0,0 km/h (0 Bft)
_ Max-Zeit 09:15 15:12 19:55 23:51 23:59 23:59 06:42 - - 12:47 12:06 14:55 15:10 07:02
Maximum _ 23,7 °C 5,6 °C 56 % 92 % 1032,4 hPa 0,0 l/m² 17,6 km/h
W (3 Bft)
- - 3 min 267 W/m² 3,3 °C 5,6 °C 24,1 km/h
W (4 Bft)
Durchschnitt _ 22,2 °C 2,9 °C 53 % 88 % 1025,4 hPa #0,0 l/m² 6,0 km/h (2 Bft) W - #5:57 h 33 W/m² 1,2 °C 1,5 °C 8,9 km/h (2 Bft)
© 2009 Mathias Hoßbach